[[{"header":{"parameterUnit":"m.s-1","parameterCategory":1,"la1":31.0,"la2":29.5877,"lo1":-88.7671,"lo2":-86.6584,"dy":0.0162,"dx":0.0185,"nx":115,"ny":88,"refTime":"2024-03-11T06:00:00:Z","depth":0,"parameterNumber":2,"parameterNumberName":"U-component_of_WINDS"},"data":[0.0,0.0,0.0,0.0,0.0,0.0,0.0,0.0,0.0,0.0,0.0,0.0,0.0,0.0,0.0,0.0,0.0,0.0,0.0,0.0,0.0,0.0,0.0,0.0,0.0,0.0,0.0,0.0,0.0,0.0,0.0,0.0,0.0,0.0,0.0,0.0,0.0,0.0,0.0,0.0,0.0,0.0,0.0,0.0,0.0,0.0,0.0,0.0,0.0,0.0,0.0,0.0,0.0,0.0,0.0,0.0,0.0,0.0,0.0,0.0,0.0,0.0,0.0,0.0,0.0,0.0,0.0,0.0,0.0,0.0,0.0,0.0,0.0,0.0,0.0,0.0,0.0,0.0,0.0,0.0,0.0,0.0,0.0,0.0,0.0,0.0,0.0,0.0,0.0,0.0,0.0,0.0,0.0,0.0,0.0,0.0,0.0,0.0,0.0,0.0,0.0,0.0,0.0,0.0,0.0,0.0,0.0,0.0,0.0,0.0,0.0,0.0,0.0,0.0,0.0,0.0,0.0,0.0,0.0,0.0,0.0,0.0,0.0,0.0,0.0,0.0,0.0,0.0,0.0,0.0,0.0,0.0,0.0,0.0,0.0,0.0,0.0,0.0,0.0,0.0,0.0,0.0,0.0,0.0,0.0,0.0,0.0,0.0,0.0,0.0,0.0,0.0,0.0,0.0,0.0,0.0,0.0,0.0,0.0,0.0,0.0,0.0,0.0,0.0,0.0,0.0,0.0,0.0,0.0,0.0,0.0,0.0,0.0,0.0,0.0,0.0,0.0,0.0,0.0,0.0,0.0,0.0,0.0,0.0,0.0,0.0,0.0,0.0,0.0,0.0,0.0,0.0,0.0,0.0,0.0,0.0,0.0,0.0,0.0,0.0,0.0,0.0,0.0,0.0,0.0,0.0,0.0,0.0,0.0,0.0,0.0,0.0,0.0,0.0,0.0,0.0,0.0,0.0,0.0,0.0,0.0,0.0,0.0,0.0,0.0,0.0,0.0,0.0,0.0,0.0,0.0,0.0,0.0,0.0,0.0,0.0,0.0,0.0,0.0,0.0,0.0,0.0,0.0,0.0,0.0,0.0,0.0,0.0,0.0,0.0,0.0,0.0,0.0,0.0,0.0,0.0,0.0,0.0,0.0,0.0,0.0,0.0,0.0,0.0,0.0,0.0,0.0,0.0,0.0,0.0,0.0,0.0,0.0,0.0,0.0,0.0,0.0,0.0,0.0,0.0,0.0,0.0,0.0,0.0,0.0,0.0,0.0,0.0,0.0,0.0,0.0,0.0,0.0,0.0,0.0,0.0,0.0,0.0,0.0,0.0,0.0,0.0,0.0,0.0,0.0,0.0,0.0,0.0,0.0,0.0,0.0,0.0,0.0,0.0,0.0,0.0,0.0,0.0,0.0,0.0,0.0,0.0,0.0,0.0,0.0,0.0,0.0,0.0,0.0,0.0,0.0,0.0,0.0,0.0,0.0,0.0,0.0,0.0,0.0,0.0,0.0,0.0,0.0,0.0,0.0,0.0,0.0,0.0,0.0,0.0,0.0,0.0,0.0,0.0,0.0,0.0,0.0,0.0,0.0,0.0,0.0,0.0,0.0,0.0,0.0,0.0,0.0,0.0,0.0,0.0,0.0,0.0,0.0,0.0,0.0,0.0,0.0,0.0,0.0,0.0,0.0,0.0,0.0,0.0,0.0,0.0,0.0,0.0,0.0,0.0,0.0,0.0,0.0,0.0,0.0,0.0,0.0,0.0,0.0,0.0,0.0,0.0,0.0,0.0,0.0,0.0,0.0,0.0,0.0,0.0,0.0,0.0,0.0,0.0,0.0,0.0,0.0,0.0,0.0,0.0,0.0,0.0,0.0,0.0,0.0,0.0,0.0,0.0,0.0,0.0,0.0,0.0,0.0,0.0,0.0,0.0,0.0,0.0,0.0,0.0,0.0,0.0,0.0,0.0,0.0,0.0,0.0,0.0,0.0,0.0,0.0,0.0,0.0,0.0,0.0,0.0,0.0,0.0,0.0,0.0,0.0,0.0,0.0,0.0,0.0,0.0,0.0,0.0,0.0,0.0,0.0,0.0,0.0,0.0,0.0,0.0,0.0,0.0,0.0,0.0,0.0,0.0,0.0,0.0,0.0,0.0,0.0,0.0,0.0,0.0,0.0,0.0,0.0,0.0,0.0,0.0,0.0,0.0,0.0,0.0,0.0,0.0,0.0,0.0,0.0,0.0,0.0,0.0,0.0,0.0,0.0,0.0,0.0,0.0,0.0,0.0,0.0,0.0,0.0,0.0,0.0,0.0,0.0,0.0,0.0,0.0,0.0,0.0,0.0,0.0,0.0,0.0,0.0,0.0,0.0,0.0,0.0,0.0,0.0,0.0,0.0,0.0,0.0,0.0,0.0,0.0,0.0,0.0,0.0,0.0,0.0,0.0,0.0,0.0,0.0,0.0,0.0,0.0,0.0,0.0,0.0,0.0,0.0,0.0,0.0,0.0,0.0,0.0,0.0,0.0,0.0,0.0,0.0,0.0,0.0,0.0,0.0,0.0,0.0,0.0,0.0,0.0,0.0,0.0,0.0,0.0,0.0,0.0,0.0,0.0,0.0,0.0,0.0,0.0,0.0,0.0,0.0,0.0,0.0,0.0,0.0,0.0,0.0,0.0,0.0,0.0,0.0,0.0,0.0,0.0,0.0,0.0,0.0,0.0,0.0,0.0,0.0,0.0,0.0,0.0,0.0,0.0,0.0,0.0,0.0,0.0,0.0,0.0,0.0,0.0,0.0,0.0,0.0,0.0,0.0,0.0,0.0,0.0,0.0,0.0,0.0,0.0,0.0,0.0,0.0,0.0,0.0,0.0,0.0,0.0,0.0,0.0,0.0,0.0,0.0,0.0,0.0,0.0,0.0,0.0,0.0,0.0,0.0,0.0,0.0,0.0,0.0,0.0,0.0,0.0,0.0,0.0,0.0,0.0,0.0,0.0,0.0,0.0,0.0,0.0,0.0,0.0,0.0,0.0,0.0,0.0,0.0,0.0,0.0,0.0,0.0,0.0,0.0,0.0,0.0,0.0,0.0,0.0,0.0,0.0,0.0,0.0,0.0,0.0,0.0,0.0,0.0,0.0,0.0,0.0,0.0,0.0,0.0,0.0,0.0,0.0,0.0,0.0,0.0,0.0,0.0,0.0,0.0,0.0,0.0,0.0,0.0,0.0,0.0,0.0,0.0,0.0,0.0,0.0,0.0,0.0,0.0,0.0,0.0,0.0,0.0,0.0,0.0,0.0,0.0,0.0,0.0,0.0,0.0,0.0,0.0,0.0,0.0,0.0,0.0,0.0,0.0,0.0,0.0,0.0,0.0,0.0,0.0,0.0,0.0,0.0,0.0,0.0,0.0,0.0,0.0,0.0,0.0,0.0,0.0,0.0,0.0,0.0,0.0,0.0,0.0,0.0,0.0,0.0,0.0,0.0,0.0,0.0,0.0,0.0,0.0,0.0,0.0,0.0,0.0,0.0,0.0,0.0,0.0,0.0,0.0,0.0,0.0,0.0,0.0,0.0,0.0,0.0,0.0,0.0,0.0,0.0,0.0,0.0,0.0,0.0,0.0,0.0,0.0,0.0,0.0,0.0,0.0,0.0,0.0,0.0,0.0,0.0,0.0,0.0,0.0,0.0,0.0,0.0,0.0,0.0,0.0,0.0,0.0,0.0,0.0,0.0,0.0,0.0,0.0,0.0,0.0,0.0,0.0,0.0,0.0,0.0,0.0,0.0,0.0,0.0,0.0,0.0,0.0,0.0,0.0,0.0,0.0,0.0,0.0,0.0,0.0,0.0,0.0,0.0,0.0,0.0,0.0,0.0,0.0,0.0,0.0,0.0,0.0,0.0,0.0,0.0,0.0,0.0,0.0,0.0,0.0,0.0,0.0,0.0,0.0,0.0,0.0,0.0,0.0,0.0,0.0,0.0,0.0,0.0,0.0,0.0,0.0,0.0,0.0,0.0,0.0,0.0,0.0,0.0,0.0,0.0,0.0,0.0,0.0,0.0,0.0,0.0,0.0,0.0,0.0,0.0,0.0,0.0,0.0,0.0,0.0,0.0,0.0,0.0,0.0,0.0,0.0,0.0,0.0,0.0,0.0,0.0,0.0,0.0,0.0,0.0,0.0,0.0,0.0,0.0,0.0,0.0,0.0,0.0,0.0,0.0,0.0,0.0,0.0,0.0,0.0,0.0,0.0,0.0,0.0,0.0,0.0,0.0,0.0,0.0,0.2539,0.0,0.0,0.0,0.0,0.0,0.0,0.0,0.0,0.0,0.0,0.0,0.0,0.0,0.0,0.0,0.0,0.0,0.0,0.0,0.0,0.0,0.0,0.0,0.0,0.0,0.0,0.0,0.0,0.0,0.0,0.0,0.0,0.0,0.0,0.0,0.0,0.0,0.0,0.0,0.0,0.0,0.0,0.0,0.0,0.0,0.0,0.0,0.0,0.0,0.0,0.0,0.0,0.0,0.0,0.0,0.0,0.0,0.0,0.0,0.0,0.0,0.0,0.0,0.0,0.0,0.0,0.0,0.0,0.0,0.0,0.0,0.0,0.0,0.0,0.0,0.0,0.0,0.0,0.0,0.0,0.0,0.0,0.0,0.0,0.0,0.0,0.0,0.0,0.0,0.0,0.0,0.0,0.0,0.0,0.0,0.0,0.0,0.0,0.0,0.0,0.0,0.0,0.0,0.0,0.0,0.0,0.0,0.0,0.0,0.0,0.401,0.3567,0.3229,0.284,0.2423,0.0,0.0,0.0,0.0,0.0,0.0,0.0,0.0,0.0,0.0,0.0,0.0,0.0,0.0,0.0,0.0,0.0,0.0,0.0,0.0,0.0,0.0,0.0,0.0,0.0,0.0,0.0,0.0,0.0,0.0,0.0,0.0,0.0,0.0,0.0,0.0,0.0,0.0,0.0,0.0,0.0,0.0,0.0,0.0,0.0,0.0,0.0,0.0,0.0,0.0,0.0,0.0,0.0,0.0,0.0,0.0,0.0,0.0,0.0,0.0,0.0,0.0,0.0,0.0,0.0,0.0,0.0,0.0,0.0,0.0,0.0,0.0,0.0,0.0,0.0,0.0,0.0,0.0,0.0,0.0,0.0,0.0,0.0,0.0,0.0,0.0,0.0,0.0,0.0,0.0,0.0,0.0,0.0,0.0,0.0,0.0,0.0,0.0,0.0,0.0,0.0,0.0,0.0,0.0,0.0,0.0,0.0,0.0,0.0,0.0,0.0,0.0,0.3429,0.3055,0.2514,0.0,0.0,0.0,0.0,0.0,0.0,0.0,0.0,0.0,0.0,0.0,0.0,0.0,0.0,0.0,0.0,0.0,0.0,0.0,0.0,0.0,0.0,0.0,0.0,0.0,0.0,0.0,0.0,0.0,0.0,0.0,0.0,0.0,0.0,0.0,0.0,0.0,0.0,0.0,0.0,0.0,0.0,0.0,0.0,0.0,0.0,0.0,0.0,0.0,0.0,0.0,0.0,0.0,0.0,0.0,0.0,0.0,0.0,0.0,0.0,0.0,0.0,0.0,0.0,0.0,0.0,0.0,0.0,0.0,0.0,0.0,0.0,0.0,0.0,0.0,0.0,0.0,0.0,0.0,0.0,0.0,0.0,0.0,0.0,0.0,0.0,0.0,0.0,0.0,0.0,0.0,0.0,0.0,0.0,0.0,0.0,0.0,0.0,0.0,0.0,0.0,0.0,0.0,0.0,0.0,0.0,0.0,0.0,0.0,0.0,0.4642,0.4249,0.4187,0.0,0.3079,0.0,0.0,0.0,0.0,0.0,0.0,0.0,0.0,0.0,0.0,0.0,0.0,0.0,0.0,0.0,0.0,0.0,0.0,0.0,0.0,0.0,0.0,0.0,0.0,0.0,0.0,0.0,0.0,0.0,0.0,0.0,0.0,0.0,0.0,0.0,0.0,0.0,0.0,0.0,0.0,0.0,0.0,0.0,0.0,0.0,0.0,0.0,0.0,0.0,0.0,0.0,0.0,0.0,0.0,0.0,0.0,0.0,0.0,0.0,0.0,0.0,0.0,0.0,0.0,0.0,0.0,0.0,0.0,0.0,0.0,0.0,0.0,0.0,0.0,0.0,0.0,0.0,0.0,0.0,0.0,0.0,0.0,0.0,0.0,0.0,0.0,0.0,0.0,0.0,0.0,0.0,0.0,0.0,0.0,0.0,0.0,0.0,0.0,0.0,0.0,0.0,0.0,0.0,0.0,0.0,0.0,0.0,0.0,0.0,0.0,0.4721,0.4258,0.3664,0.3271,0.0,0.0,0.0,0.0,0.0,0.0,0.0,0.0,0.0,0.0,0.0,0.0,0.0,0.0,0.0,0.0,0.0,0.0,0.0,0.0,0.0,0.0,0.0,0.0,0.0,0.0,0.0,0.0,0.0,0.0,0.0,0.0,0.0,0.0,0.0,0.0,0.0,0.0,0.0,0.0,0.0,0.0,0.0,0.0,0.0,0.0,0.0,0.0,0.0,0.0,0.0,0.0,0.0,0.0,0.0,0.0,0.0,0.0,0.0,0.0,0.0,0.0,0.0,0.0,0.0,0.0,0.0,0.0,0.0,0.0,0.0,0.0,0.0,0.0,0.0,0.0,0.0,0.0,0.0,0.0,0.0,0.0,0.0,0.0,0.0,0.0,0.0,0.0,0.0,0.0,0.0,0.0,0.0,0.0,0.0,0.0,0.0,0.0,0.0,0.0,0.0,0.0,0.0,0.0,0.0,0.0,0.0,0.0,0.0,0.0,0.5249,0.53,0.5092,0.3943,0.3384,0.3546,0.0,0.0,0.0,0.0,0.0,0.0,0.0,0.0,0.0,0.0,0.0,0.0,0.0,0.0,0.0,0.0,0.0,0.0,0.0,0.0,0.0,0.0,0.0,0.0,0.0,0.0,0.0,0.0,0.0,0.0,0.0,0.0,0.0,0.0,0.0,0.0,0.0,0.0,0.0,0.0,0.0,0.0,0.0,0.0,0.0,0.0,0.0,0.0,0.0,0.0,0.0,0.0,0.0,0.0,0.0,0.0,0.0,0.0,0.0,0.0,0.0,0.0,0.0,0.0,0.0,0.0,0.0,0.0,0.0,0.0,0.0,0.0,0.0,0.0,0.0,0.0,0.0,0.0,0.0,0.0,0.0,0.0,0.0,0.0,0.0,0.0,0.0,0.0,0.0,0.0,0.0,0.0,0.0,0.0,0.0,0.0,0.0,0.0,0.0,0.0,0.0,0.0,0.0,0.0,0.0,0.0,0.0,0.0,0.5131,0.5922,0.669,0.7344,0.5707,0.4831,0.0,0.0,0.0,0.0,0.0,0.0,0.0,0.0,0.0,0.0,0.0,0.0,0.0,0.0,0.0,0.0,0.0,0.0,0.0,0.0,0.0,0.0,0.0,0.0,0.0,0.0,0.0,0.0,0.0,0.0,0.0,0.0,0.0,0.0,0.0,0.0,0.0,0.0,0.0,0.0,0.0,0.0,0.0,0.0,0.0,0.0,0.0,0.0,0.0,0.0,0.0,0.0,0.0,0.0,0.0,0.0,0.0,0.0,0.0,0.0,0.0,0.0,0.0,0.0,0.0,0.0,0.0,0.0,0.0,0.0,0.0,0.0,0.0,0.0,0.0,0.0,0.0,0.0,0.0,0.0,0.0,0.0,0.0,0.0,0.0,0.0,0.0,0.0,0.0,0.0,0.0,0.0,0.0,0.0,0.0,0.0,0.0,0.0,0.0,0.0,0.0,0.0,0.0,0.0,0.0,0.0,0.0,0.0,0.0,0.5961,0.6786,0.7383,0.7584,0.5958,0.516,0.0,0.0,0.0,0.0,0.0,0.0,0.0,0.0,0.0,0.0,0.0,0.0,0.0,0.0,0.0,0.0,0.0,0.0,0.0,0.0,0.0,0.0,0.0,0.0,0.0,0.0,0.0,0.0,0.0,0.0,0.0,0.0,0.0,0.0,0.0,0.0,0.0,0.0,0.0,0.0,0.0,0.0,0.0,0.0,0.0,0.0,0.0,0.0,0.0,0.0,0.0,0.0,0.0,0.0,0.0,0.0,0.0,0.0,0.0,0.0,0.0,0.0,0.0,0.0,0.0,0.0,0.0,0.0,0.0,0.0,0.0,0.0,0.0,0.0,0.0,0.0,0.0,0.0,0.0,0.0,0.0,0.0,0.0,0.0,0.0,0.0,0.0,0.0,0.0,0.0,0.0,0.0,0.0,0.0,0.0,0.0,0.0,0.0,0.0,0.0,0.0,0.0,0.0,0.0,0.0,0.0,0.0,0.0,0.0,0.7214,0.0,0.8203,0.8376,0.6731,0.5908,0.0,0.0,0.0,0.0,0.0,0.0,0.0,0.0,0.0,0.0,0.0,0.0,0.0,0.0,0.0,0.0,0.0,0.0,0.0,0.0,0.0,0.0,0.0,0.0,0.0,0.0,0.0,0.0,0.0,0.0,0.0,0.0,0.0,0.0,0.0,0.0,0.0,0.0,0.0,0.0,0.0,0.0,0.0,0.0,0.0,0.0,0.0,0.0,0.0,0.0,0.0,0.0,0.0,0.0,0.0,0.0,0.0,0.0,0.0,0.0,0.0,0.0,0.0,0.0,0.0,0.0,0.0,0.0,0.0,0.0,0.0,0.0,0.0,0.0,0.0,0.0,0.0,0.0,0.0,0.0,0.0,0.0,0.0,0.0,0.0,0.0,0.0,0.0,0.0,0.0,0.0,0.0,0.0,0.0,0.0,0.0,0.0,0.0,0.0,0.0,0.0,0.0,0.0,0.0,0.0,0.0,0.0,0.0,0.8046,0.8858,0.8934,0.927,0.9919,0.8221,0.7156,0.0,0.0,0.0,0.0,0.0,0.0,0.0,0.0,0.0,0.0,0.0,0.0,0.0,0.0,0.0,0.0,0.0,0.0,0.0,0.0,0.0,0.0,0.0,0.0,0.0,0.0,0.0,0.0,0.0,0.0,0.0,0.0,0.0,0.0,0.0,0.0,0.0,0.0,0.0,0.0,0.0,0.0,0.0,0.0,0.0,0.0,0.0,0.0,0.0,0.0,0.0,0.0,0.0,0.0,0.0,0.0,0.0,0.0,0.0,0.0,0.0,0.0,0.0,0.0,0.0,0.0,0.0,0.0,0.0,0.0,0.0,0.0,0.0,0.0,0.0,0.0,0.0,0.0,0.0,0.0,0.0,0.0,0.0,0.0,0.0,0.0,0.0,0.0,0.0,0.0,0.0,0.0,0.0,0.0,0.0,0.0,0.0,0.0,0.0,0.0,0.0,0.0,0.0,0.0,0.0,0.0,0.0,0.0,0.0,1.0663,1.0559,1.0537,1.0581,0.9046,0.7879,0.0,0.0,0.0,0.0,0.0,0.0,0.0,0.0,0.0,0.0,0.0,0.0,0.0,0.0,0.0,0.0,0.0,0.0,0.0,0.0,0.0,0.0,0.0,0.0,0.0,0.0,0.0,0.0,0.0,0.0,0.0,0.0,0.0,0.0,0.0,0.0,0.0,0.0,0.0,0.0,0.0,0.0,0.0,0.0,0.0,0.0,0.0,0.0,0.0,0.0,0.0,0.0,0.0,0.0,0.0,0.0,0.0,0.0,0.0,0.0,0.0,0.0,0.0,0.0,0.0,0.0,0.0,0.0,0.0,0.0,0.0,0.0,0.0,0.0,0.0,0.0,0.0,0.0,0.0,0.0,0.0,0.0,0.0,0.0,0.0,0.0,0.0,0.0,0.0,0.0,0.0,0.0,0.0,0.0,0.0,0.0,0.0,0.0,0.0,0.0,0.0,0.0,0.0,0.0,0.0,0.0,0.0,0.0,0.0,1.1482,1.1139,1.0802,1.0508,0.9229,0.8139,0.722,0.0,0.0,0.0,0.0,0.0,0.0,0.0,0.0,0.0,0.0,0.0,0.0,0.0,0.0,0.0,0.0,0.0,0.0,0.0,0.0,0.0,0.0,0.0,0.0,0.0,0.0,0.0,0.0,0.0,0.0,0.0,0.0,0.0,0.0,0.0,0.0,0.0,0.0,0.0,0.0,0.0,0.0,0.0,0.0,0.0,0.0,0.0,0.0,0.0,0.0,0.0,0.0,0.0,0.0,0.0,0.0,0.0,0.0,0.0,0.0,0.0,0.0,0.0,0.0,0.0,0.0,0.0,0.0,0.0,0.0,0.0,0.0,0.0,0.0,0.0,0.0,0.0,0.0,0.0,0.0,0.0,0.0,0.0,0.0,0.0,0.0,0.0,0.0,0.0,0.0,0.0,0.0,0.0,0.0,0.0,0.0,0.0,0.0,0.0,0.0,0.0,0.0,0.0,0.0,0.0,0.0,0.0,0.0,1.1586,1.0855,1.0256,0.9845,0.9014,0.8067,0.0,0.0,0.0,0.0,0.0,0.0,0.0,0.0,0.0,0.0,0.0,0.0,0.0,0.0,0.0,0.0,0.0,0.0,0.0,0.0,0.0,0.0,0.0,0.0,0.0,0.0,0.0,0.0,0.0,0.0,0.0,0.0,0.0,0.0,0.0,0.0,0.0,0.0,0.0,0.0,0.0,0.0,0.0,0.0,0.0,0.0,0.0,0.0,0.0,0.0,0.0,0.0,0.0,0.0,0.0,0.0,0.0,0.0,0.0,0.0,0.0,0.0,0.0,0.0,0.0,0.0,0.0,0.0,0.0,0.0,0.0,0.0,0.0,0.0,0.0,0.0,0.0,0.0,0.0,0.0,0.0,0.0,0.0,0.0,0.0,0.0,0.0,0.0,0.0,0.0,0.0,0.0,0.0,0.0,0.0,0.0,0.0,0.0,0.0,0.0,0.0,0.0,0.0,0.0,0.0,0.0,0.0,0.0,0.0,1.1718,1.0572,1.0019,1.0217,0.9547,0.8445,0.0,0.0,0.0,0.0,0.0,0.0,0.0,0.0,0.0,0.0,0.0,0.0,0.0,0.0,0.0,0.0,0.0,0.0,0.0,0.0,0.0,0.0,0.0,0.0,0.0,0.0,0.0,0.0,0.0,0.0,0.0,0.0,0.0,0.0,0.0,0.0,0.0,0.0,0.0,0.0,0.0,0.0,0.0,0.0,0.0,0.0,0.0,0.0,0.0,0.0,0.0,0.0,0.0,0.0,0.0,0.0,0.0,0.0,0.0,0.0,0.0,0.0,0.0,0.0,0.0,0.0,0.0,0.0,0.0,0.0,0.0,0.0,0.0,0.0,0.0,0.0,0.0,0.0,0.0,0.0,0.0,0.0,0.0,0.0,0.0,0.0,0.0,0.0,0.0,0.0,0.0,0.0,0.0,0.0,0.0,0.0,0.0,0.0,0.0,0.0,0.0,0.0,0.0,0.0,0.0,0.0,0.0,0.0,1.0518,1.1561,1.0121,0.9364,0.9412,0.896,0.8034,0.0,0.0,0.0,0.0,0.0,0.0,0.0,0.0,0.0,0.0,0.0,0.0,0.0,0.0,0.0,0.0,0.0,0.0,0.0,0.0,0.0,0.0,0.0,0.0,0.0,0.0,0.0,0.0,0.0,0.0,0.0,0.0,0.0,0.0,0.0,0.0,0.0,0.0,0.0,0.0,0.0,0.0,0.0,0.0,0.0,0.0,0.0,0.0,0.0,0.0,0.0,0.0,0.0,0.0,0.0,0.0,0.0,0.0,0.0,0.0,0.0,0.0,0.0,0.0,0.0,0.0,0.0,0.0,0.0,0.0,0.0,0.0,0.0,0.0,0.0,0.0,0.0,0.0,0.0,0.0,0.0,0.0,0.0,0.0,0.0,0.0,0.0,0.0,0.0,0.0,0.0,0.0,0.0,0.0,0.0,0.0,0.0,0.0,0.0,0.0,0.0,0.0,0.0,0.0,0.0,0.0,0.0,0.0,1.0437,1.1251,0.9633,0.8513,0.7983,0.7792,0.7178,0.0,0.0,0.0,0.0,0.0,0.0,0.0,0.0,0.0,0.0,0.0,0.0,0.0,0.0,0.0,0.0,0.0,0.0,0.0,0.0,0.0,0.0,0.0,0.0,0.0,0.0,0.0,0.0,0.0,0.0,0.0,0.0,0.0,0.0,0.0,0.0,0.0,0.0,0.0,0.0,0.0,0.0,0.0,0.0,0.0,0.0,0.0,0.0,0.0,0.0,0.0,0.0,0.0,0.0,0.0,0.0,0.0,0.0,0.0,0.0,0.0,0.0,0.0,0.0,0.0,0.0,0.0,0.0,0.0,0.0,0.0,0.0,0.0,0.0,0.0,0.0,0.0,0.0,0.0,0.0,0.0,0.0,0.0,0.0,0.0,0.0,0.0,0.0,0.0,0.0,0.0,0.0,0.0,0.0,0.0,0.0,0.0,0.0,0.0,0.0,0.0,0.0,0.0,0.0,0.0,0.0,0.0,0.0,1.0839,1.1828,0.9682,0.8049,0.7166,0.7051,0.6785,0.0,0.0,0.0,0.0,0.0,0.0,0.0,0.0,0.0,0.0,0.0,0.0,0.0,0.0,0.0,0.0,0.0,0.0,0.0,0.0,0.0,0.0,0.0,0.0,0.0,0.0,0.0,0.0,0.0,0.0,0.0,0.0,0.0,0.0,0.0,0.0,0.0,0.0,0.0,0.0,0.0,0.0,0.0,0.0,0.0,0.0,0.0,0.0,1.1132,0.0,0.0,0.0,0.0,0.0,0.0,0.0,0.0,0.0,0.0,0.0,0.0,0.0,0.0,0.0,0.0,0.0,0.0,0.0,0.0,0.0,0.0,0.0,0.0,0.0,0.0,0.0,0.0,0.0,0.0,0.0,0.0,0.0,0.0,0.0,0.0,0.0,0.0,0.0,0.0,0.0,0.0,0.0,0.0,0.0,0.0,0.0,0.0,0.0,0.0,0.0,0.0,0.0,0.0,0.0,0.0,0.0,0.0,0.0,1.1412,1.1861,0.9532,0.7679,0.6462,0.5996,0.5745,0.0,0.0,0.0,0.0,0.0,0.0,0.0,0.0,0.0,0.0,0.0,0.0,0.0,0.0,0.0,0.0,0.0,0.0,0.0,0.0,0.0,0.0,0.0,0.0,0.0,0.0,0.0,0.0,0.0,0.0,0.0,0.0,0.0,0.0,0.0,0.0,0.0,0.0,0.0,0.0,0.0,0.0,0.0,0.0,0.0,0.0,0.0,0.0,0.0,0.0,0.0,0.0,0.0,0.0,0.0,0.0,0.0,0.0,0.0,0.0,0.0,0.0,0.0,0.0,0.0,0.0,0.0,0.0,0.0,0.0,0.0,0.0,0.0,0.0,0.0,0.0,0.0,0.0,0.0,0.0,0.0,0.0,0.0,0.0,0.0,0.0,0.0,0.0,0.0,0.0,0.0,0.0,0.0,0.0,0.0,0.0,0.0,0.0,0.0,0.0,0.0,0.0,0.0,0.0,0.0,0.0,0.0,1.2199,1.1937,1.1684,0.9359,0.7367,0.5846,0.4973,0.4643,0.4942,0.0,0.0,0.0,0.0,0.0,0.0,0.0,0.0,0.0,0.0,0.0,0.0,0.0,0.0,0.0,0.0,0.0,0.0,0.0,0.0,0.0,0.0,0.0,0.0,0.0,0.0,0.0,0.0,0.0,0.0,0.0,0.0,0.0,0.0,0.0,0.0,0.0,0.0,0.9849,1.1374,0.0,0.0,0.0,0.0,0.0,0.0,0.0,0.0,1.4246,0.0,0.0,0.0,0.0,0.0,0.0,0.0,0.0,0.0,0.0,0.0,0.0,0.0,0.0,0.0,0.0,0.0,0.0,0.0,0.0,0.0,0.0,0.0,0.0,0.0,0.0,0.0,0.0,0.0,0.0,0.0,0.0,0.0,0.0,0.0,0.0,0.0,0.0,0.0,0.0,0.0,0.0,0.0,0.0,0.0,0.0,0.0,0.0,0.0,0.0,0.0,0.0,0.0,0.0,0.0,0.0,1.2565,1.2318,1.1983,1.1542,0.9292,0.7209,0.537,0.4576,0.4327,0.4677,0.0,0.0,0.0,0.0,0.0,0.0,0.0,0.0,0.0,0.0,0.0,0.0,0.0,0.0,0.0,0.0,0.0,0.0,0.0,0.0,0.0,0.0,0.0,0.0,0.0,0.0,0.0,0.0,0.0,0.0,0.0,0.0,0.0,0.0,0.0,0.0,0.0,0.0,0.0,1.3483,1.4052,0.0,0.0,0.0,0.0,0.0,0.0,0.0,0.0,1.4687,0.0,0.0,0.0,0.0,0.0,0.0,0.0,0.0,0.0,0.0,0.0,0.0,0.0,0.0,0.0,0.0,0.0,0.0,0.0,0.0,0.0,0.0,0.0,0.0,0.0,0.0,0.0,0.0,0.0,0.0,0.0,0.0,0.0,0.0,0.0,0.0,0.0,0.0,0.0,0.0,0.0,0.0,0.0,0.0,0.0,0.0,0.0,0.0,0.0,0.0,0.0,0.0,0.0,0.0,0.0,1.2544,1.2759,1.2333,1.1162,0.9011,0.6911,0.4947,0.4402,0.4322,0.0,0.0,0.0,0.0,0.0,0.0,0.0,0.0,0.0,0.0,0.0,0.0,0.0,0.0,0.0,0.0,0.0,0.0,0.0,0.0,0.0,0.0,0.0,0.0,0.0,0.0,0.0,0.0,0.0,0.0,0.0,0.0,0.0,0.0,0.0,0.0,0.0,0.0,0.0,0.0,1.4405,1.5282,1.5564,0.0,0.0,0.0,0.0,0.0,0.0,1.575,1.5508,0.0,0.0,0.0,0.0,0.0,0.0,0.0,0.0,0.0,0.0,0.0,0.0,0.0,0.0,0.0,0.0,0.0,0.0,0.0,0.0,0.0,0.0,0.0,0.0,0.0,0.0,0.0,0.0,0.0,0.0,0.0,0.0,0.0,0.0,0.0,0.0,0.0,0.0,0.0,0.0,0.0,0.0,0.0,0.0,0.0,0.0,0.0,0.0,0.0,0.0,0.0,0.0,0.0,0.0,0.0,1.2474,1.3053,1.2551,1.0842,0.8629,0.6578,0.4746,0.4452,0.4489,0.0,0.0,0.0,0.0,0.0,0.0,0.0,0.0,0.0,0.0,0.0,0.0,0.0,0.0,0.0,0.0,0.0,0.0,0.0,0.0,0.0,0.0,0.0,0.0,0.0,0.0,0.0,0.0,0.0,0.0,0.0,0.0,0.0,0.0,0.0,0.0,0.0,0.0,0.0,0.0,0.0,1.618,1.6628,1.6635,0.0,0.0,0.0,0.0,1.6545,1.6365,0.0,0.0,0.0,0.0,0.0,0.0,0.0,0.0,0.0,0.0,0.0,0.0,0.0,0.0,0.0,0.0,0.0,0.0,0.0,0.0,0.0,0.0,0.0,0.0,0.0,0.0,0.0,0.0,0.0,0.0,0.0,0.0,0.0,0.0,0.0,0.0,0.0,0.0,0.0,0.0,0.0,0.0,0.0,0.0,0.0,0.0,0.0,0.0,0.0,0.0,0.0,0.0,0.0,0.0,0.0,0.0,1.2266,1.2719,1.219,1.0539,0.8279,0.6404,0.4998,0.4802,0.4979,0.0,0.0,0.0,0.0,0.0,0.0,0.0,0.0,0.0,0.0,0.0,0.0,0.0,0.0,0.0,0.0,0.0,0.0,0.0,0.0,0.0,0.0,0.0,0.0,0.0,0.0,0.0,0.0,0.0,0.0,0.0,0.0,0.0,0.0,0.0,0.0,0.0,0.0,0.0,0.0,0.0,1.6684,1.669,1.7037,1.6958,0.0,0.0,1.6475,1.6264,1.6128,0.0,0.0,0.0,0.0,0.0,0.0,0.0,0.0,0.0,0.0,0.0,0.0,0.0,0.0,0.0,0.0,0.0,0.0,0.0,0.0,0.0,0.0,0.0,0.0,0.0,0.0,0.0,0.0,0.0,0.0,0.0,0.0,0.0,0.0,0.0,0.0,0.0,0.0,0.0,0.0,0.0,0.0,0.0,0.0,0.0,0.0,0.0,0.0,0.0,0.0,0.0,0.0,0.0,0.0,0.0,1.2481,1.1951,1.2276,1.1601,0.9829,0.7644,0.5907,0.4678,0.4621,0.4915,0.0,0.0,0.0,0.0,0.0,0.0,0.0,0.0,0.0,0.0,0.0,0.0,0.0,0.0,0.0,0.0,0.0,0.0,0.0,0.0,0.0,0.0,0.0,0.0,0.0,0.0,0.0,0.0,0.0,0.0,0.0,0.0,0.0,0.0,0.0,0.0,0.0,0.0,0.0,0.0,0.0,0.0,1.7167,1.7648,0.0,0.0,0.0,1.6938,1.6709,0.0,0.0,0.0,0.0,0.0,0.0,0.0,0.0,0.0,0.0,0.0,0.0,0.0,0.0,0.0,0.0,0.0,0.0,0.0,0.0,0.0,0.0,0.0,0.0,0.0,0.0,0.0,0.0,0.0,0.0,0.0,0.0,0.0,0.0,0.0,0.0,0.0,0.0,0.0,0.0,0.0,0.0,0.0,0.0,0.0,0.0,0.0,0.0,0.0,0.0,0.0,0.0,0.0,0.0,0.0,0.0,0.0,1.1578,1.1636,1.0843,0.9108,0.7047,0.5496,0.4493,0.4625,0.0,0.0,0.0,0.0,0.0,0.0,0.0,0.0,0.0,0.0,0.0,0.0,0.0,0.0,0.0,0.0,0.0,0.0,0.0,0.0,0.0,0.0,0.0,0.0,0.0,0.0,0.0,1.0896,0.0,0.0,0.0,0.0,0.0,0.0,0.0,0.0,0.0,0.0,0.0,0.0,0.0,0.0,1.6745,1.7133,1.7815,1.8142,0.0,0.0,1.7036,1.7101,1.603,1.5447,0.0,0.0,0.0,0.0,0.0,0.0,0.0,0.0,0.0,0.0,0.0,0.0,0.0,0.0,0.0,0.0,0.0,0.0,0.0,0.0,0.0,0.0,0.0,0.0,0.0,0.0,0.0,0.0,0.0,0.0,0.0,0.0,0.0,0.0,0.0,0.0,0.0,0.0,0.0,0.0,0.0,0.0,0.0,0.0,0.0,0.0,0.0,0.0,0.0,0.0,0.0,0.0,0.0,0.0,0.0,1.1216,1.0762,0.9869,0.8547,0.6658,0.5278,0.4617,0.5187,0.5933,0.0,0.0,0.0,0.0,0.0,0.0,0.0,0.0,0.0,0.0,0.0,0.0,0.0,0.0,0.0,0.0,0.0,0.0,0.0,0.0,0.0,0.0,0.0,0.0,0.0,0.0,0.0,0.0,0.0,0.0,0.0,0.0,0.0,0.0,0.0,0.0,0.0,0.0,0.0,0.0,0.0,1.6288,1.6133,1.7093,1.7749,0.0,0.0,1.6237,1.7214,1.544,1.4664,1.6828,0.0,0.0,0.0,0.0,0.0,0.0,0.0,0.0,0.0,0.0,0.0,0.0,0.0,0.0,0.0,0.0,0.0,0.0,0.0,0.0,0.0,0.0,0.0,0.0,0.0,0.0,0.0,0.0,0.0,0.0,0.0,0.0,0.0,0.0,0.0,0.0,0.0,0.0,0.0,0.0,0.0,0.0,0.0,0.0,0.0,0.0,0.0,0.0,0.0,0.0,0.0,0.0,0.0,1.0483,1.0692,0.9856,0.8851,0.7622,0.5694,0.4463,0.4041,0.4522,0.5439,0.0,0.0,0.0,0.0,0.0,0.0,0.0,0.0,0.0,0.0,0.0,0.0,0.0,0.0,0.0,0.0,0.0,0.0,0.0,0.0,0.0,0.0,0.0,0.0,0.0,0.0,0.0,0.0,1.6583,1.711,1.6878,0.0,0.0,0.0,0.0,0.0,0.0,0.0,0.0,0.0,0.0,1.6255,1.6467,1.6791,0.0,0.0,1.5591,1.5034,1.5299,1.4331,1.4084,1.5699,1.5603,0.0,0.0,0.0,0.0,0.0,0.0,0.0,0.0,0.0,0.0,0.0,0.0,0.0,0.0,0.0,0.0,0.0,0.0,0.0,0.0,0.0,0.0,0.0,0.0,0.0,0.0,0.0,0.0,0.0,0.0,0.0,0.0,0.0,0.0,0.0,0.0,0.0,0.0,0.0,0.0,0.0,0.0,0.0,0.0,0.0,0.0,0.0,0.0,0.0,0.0,0.0,0.0,0.9519,1.0031,0.8731,0.7544,0.6465,0.4634,0.3585,0.3354,0.3945,0.5017,0.0,0.0,0.0,0.0,0.0,0.0,0.0,0.0,0.0,0.0,0.0,0.0,0.0,0.0,0.0,0.0,0.0,0.0,0.0,0.0,0.0,0.0,0.0,0.0,0.0,0.0,0.0,0.0,1.7931,1.8154,1.7055,0.0,0.0,0.0,0.0,0.0,0.0,0.0,0.0,0.0,0.0,1.6147,1.6376,1.6193,1.5835,1.5455,1.4531,1.4076,1.445,1.3591,1.3494,1.5293,0.0,0.0,0.0,0.0,0.0,0.0,0.0,0.0,0.0,0.0,0.0,0.0,0.0,0.0,0.0,0.0,0.0,0.0,0.0,0.0,0.0,0.0,0.0,0.0,0.0,0.0,0.0,0.0,0.0,0.0,0.7134,0.0,0.0,0.0,0.0,0.0,0.0,0.0,0.0,0.0,0.0,0.0,0.0,0.0,0.0,0.0,0.0,0.0,0.0,0.0,0.0,0.0,0.0,0.8418,0.9179,0.7312,0.5896,0.4925,0.354,0.2656,0.2469,0.3561,0.4771,0.6126,0.0,0.0,0.0,0.0,0.0,0.0,0.0,0.0,0.0,0.0,0.0,0.0,0.0,0.0,0.0,0.0,0.0,0.0,0.0,0.0,0.0,0.0,0.0,0.0,0.0,0.0,1.8251,1.8561,1.7907,0.0,0.0,0.0,0.0,0.0,0.0,0.0,0.0,0.0,0.0,1.6182,1.5868,1.5576,1.5134,1.4748,1.4452,1.352,1.3456,1.5108,1.3296,1.2808,0.0,0.0,0.0,0.0,0.0,0.0,0.0,0.0,0.0,0.0,0.0,0.0,0.0,0.0,0.0,0.0,0.0,0.0,0.0,0.0,0.0,0.0,0.0,0.0,0.0,0.0,0.0,0.6292,0.65,0.0,0.0,0.0,0.0,0.0,0.0,0.0,0.0,0.0,0.0,0.0,0.3985,0.4964,0.0,0.0,0.0,0.0,0.0,0.0,0.0,0.0,0.0,0.0,0.0,0.0,0.748,0.7683,0.5667,0.4103,0.3123,0.1706,0.1005,0.1123,0.224,0.4103,0.6887,0.0,0.0,0.0,0.0,0.0,0.0,0.0,0.0,0.0,0.0,0.0,0.0,0.0,0.0,0.0,0.0,0.0,0.0,0.0,0.0,0.0,0.0,0.0,0.0,0.0,1.6915,0.0,0.0,0.0,0.0,0.0,0.0,0.0,0.0,0.0,0.0,0.0,1.6493,1.6496,1.6165,1.5777,1.5362,1.4598,1.3923,0.0,0.0,0.0,0.0,0.0,0.0,0.0,0.0,0.0,0.0,0.0,0.0,0.0,0.0,1.6469,1.5764,1.4994,1.4681,1.5505,0.0,0.0,0.0,0.0,0.0,0.0,0.0,0.0,0.0,0.0,0.0,0.0,0.0,0.0,0.5203,0.0,0.5858,0.0,0.0,0.0,0.0,0.0,0.0,0.0,0.0,0.2329,0.1859,0.1323,0.2208,0.3001,0.0,0.5108,0.5968,0.0,0.0,0.0,0.0,0.0,0.0,0.0,0.0,0.6308,0.6103,0.3846,0.2163,0.1108,-0.0246,-0.073,-0.0283,0.1329,0.3571,0.655,0.7939,0.9199,0.0,0.0,0.0,0.0,0.0,0.0,0.0,0.0,0.0,0.0,0.0,0.0,0.0,0.0,0.0,0.0,0.0,0.0,0.0,0.0,0.0,0.0,0.0,1.7918,0.0,0.0,0.0,0.0,0.0,0.0,0.0,0.0,0.0,1.6839,1.712,1.7261,1.6944,1.6095,1.5308,1.4841,0.0,0.0,0.0,0.0,0.0,0.0,0.0,1.3811,1.5192,1.5818,1.6348,1.6936,1.6901,1.7078,1.7926,0.0,0.0,1.6871,1.6342,1.6168,1.6664,1.716,1.7235,1.6397,1.5723,1.518,0.0,0.0,0.0,0.0,0.0,0.0,0.0,0.0,0.3255,0.3297,0.0,0.3938,0.0,0.0,0.0,0.0,0.0,0.1348,0.0,0.0,-0.1131,-0.1521,-0.1742,-0.1144,-0.0609,-0.0214,0.1038,0.2046,0.2934,0.6414,0.0,0.0,0.0,0.0,0.0,0.0,0.4846,0.4289,0.1869,0.0053,-0.1084,-0.2197,-0.248,-0.1777,0.0796,0.3075,0.5033,0.641,0.7794,0.9283,1.0293,0.0,0.0,0.0,0.0,0.0,0.0,0.0,0.0,0.0,0.0,0.0,0.0,0.0,0.0,0.0,0.0,0.0,0.0,0.0,0.0,1.8834,0.0,0.0,0.0,0.0,0.0,0.0,0.0,0.0,0.0,0.0,1.8391,1.8257,1.8056,1.7668,0.0,0.0,0.0,0.0,1.2117,1.1893,1.1667,1.2192,1.3924,1.3724,1.4081,1.6187,0.0,0.0,1.7884,1.7642,1.7621,1.8851,1.8432,1.8032,1.8362,1.8034,1.7893,1.8329,1.8531,1.8374,1.7516,1.6969,1.6667,-0.3082,0.0,0.0,0.0,0.0,0.0088,0.0061,0.0348,0.0167,0.0237,0.0433,0.1066,0.0,0.0,0.0,0.0,0.0,0.0,-0.352,-0.4715,-0.5536,-0.5972,-0.6076,-0.5478,-0.4792,-0.4054,-0.271,-0.1407,-0.0213,0.1453,0.3852,0.6857,0.0,0.0,0.0,0.0,0.3111,0.1608,-0.0599,-0.2273,-0.3327,-0.4151,-0.3831,-0.2414,-0.0537,0.1214,0.2871,0.4496,0.6174,0.7909,0.9258,0.0,0.0,0.0,0.0,0.0,0.0,0.0,0.0,0.0,0.0,0.0,0.0,0.0,0.0,0.0,0.0,0.0,0.0,0.0,1.848,1.8854,1.8667,0.0,0.0,0.0,0.0,0.0,0.0,0.0,0.0,0.0,1.8893,1.8441,1.772,0.0,0.0,1.4172,1.3138,1.2502,1.2207,1.2402,0.0,0.0,0.0,1.5221,1.59,1.5891,1.6338,1.6848,1.7288,1.7486,1.7865,1.8688,1.8563,1.849,1.8967,1.8594,1.8331,1.8624,1.8504,1.831,1.8149,1.7563,1.6976,-0.7636,-0.5177,-0.351,-0.2847,-0.2908,-0.3206,-0.3204,-0.3015,-0.3263,-0.3196,-0.2859,-0.2384,-0.2206,-0.2229,-0.2344,0.0,0.0,0.0,-0.7111,-0.8271,-0.8963,-0.9383,-0.9552,-0.8978,-0.8332,-0.7603,-0.6327,-0.5027,-0.3685,-0.2755,-0.0809,0.2102,0.0,0.0,0.3991,0.2486,0.0869,-0.0801,-0.269,-0.4162,-0.5225,-0.5611,-0.5124,-0.3677,-0.2213,-0.0736,0.0727,0.2585,0.4407,0.6296,0.8112,0.9576,0.0,0.0,0.0,0.0,0.0,0.0,0.0,0.0,0.0,0.0,0.0,1.4026,0.0,0.0,0.0,0.0,1.7471,1.8216,1.9054,1.8895,0.0,0.0,0.0,0.0,0.0,0.0,0.0,1.9018,1.8823,1.8712,1.8992,1.8005,1.6994,1.6266,1.4865,1.3572,1.2697,0.0,1.224,1.2624,1.2868,1.3382,1.4515,1.5195,1.5603,1.5684,1.6353,1.6985,1.7256,1.7751,1.835,1.8877,1.9001,1.9028,1.9303,1.8971,1.8752,1.8971,1.8791,1.8661,1.8794,1.8222,1.7605,-1.1697,-1.1159,-0.8169,-0.6875,-0.6786,-0.6844,-0.6867,-0.6943,-0.6891,-0.6788,-0.6582,-0.6255,-0.6075,-0.6093,-0.671,0.0,-0.8316,-0.9403,-1.0348,-1.121,-1.161,-1.1979,-1.2355,-1.181,-1.1302,-1.0833,-0.9731,-0.8604,-0.7425,-0.6378,-0.5516,-0.4708,-0.1282,0.0442,0.0338,-0.0497,-0.1625,-0.3,-0.4487,-0.5779,-0.6754,-0.6694,-0.6187,-0.5249,-0.3975,-0.2587,-0.1192,0.0776,0.2743,0.4646,0.6967,0.8674,0.9651,0.0,0.0,0.0,0.0,0.0,0.0,0.0,0.0,0.0,0.0,0.0,0.0,0.0,0.0,0.0,1.8029,0.0,1.9477,1.9001,0.0,0.0,0.0,1.8485,1.9368,1.8864,1.8959,2.0307,0.0,0.0,1.8717,1.7153,1.5993,1.5836,1.4175,1.2842,1.2537,1.2246,1.2264,1.2728,1.2697,1.3242,1.4907,1.4513,1.4348,1.5548,1.6323,1.701,1.7578,1.8287,1.8946,1.9447,1.9604,1.9494,1.9339,1.9258,1.9288,1.931,1.9273,1.9236,1.9155,1.8774,1.8349,-1.4828,-1.413,-1.3151,-1.1465,-0.9425,-0.973,-0.9843,-0.9885,-1.0116,-1.019,-1.0062,-0.9616,-0.9338,-0.9224,-0.9656,-1.0341,-1.128,-1.2076,-1.2848,-1.365,-1.3953,-1.4111,-1.4186,-1.3779,-1.3415,-1.306,-1.2208,-1.1308,-1.0432,-0.9514,-0.8692,-0.7921,-0.652,-0.466,-0.2469,-0.2827,-0.3635,-0.4779,-0.6044,-0.7063,-0.7746,-0.7293,-0.6635,-0.5823,-0.4496,-0.3204,-0.1903,-0.0179,0.1731,0.383,0.6236,0.8122,0.9407,1.1161,0.0,0.0,0.0,0.0,0.0,0.0,0.0,0.0,0.0,1.599,1.6751,0.0,1.8618,0.0,1.91,1.9341,1.9092,1.9556,0.0,0.0,1.9775,2.0402,2.0789,2.0626,2.0425,2.0203,1.9896,1.9104,1.7694,1.6417,1.5327,1.4505,1.3467,1.2633,1.2332,1.2102,1.2306,1.3164,1.334,1.3818,1.5052,1.5198,1.5095,1.5477,1.6558,1.7439,1.7602,1.8634,1.9453,1.9581,1.9465,1.9354,1.9302,1.9168,1.9055,1.895,1.9003,1.9017,1.886,1.8528,1.8228,-1.641,-1.593,-1.5723,-1.4687,-1.3134,-1.2535,-1.227,-1.2307,-1.2487,-1.2504,-1.2457,-1.2179,-1.2033,-1.1982,-1.2297,-1.2784,-1.3377,-1.384,-1.4293,-1.4707,-1.4873,-1.4918,-1.4825,-1.462,-1.4415,-1.4149,-1.3609,-1.3061,-1.2469,-1.1824,-1.1217,-1.0608,-0.9836,-0.8415,-0.6456,-0.5622,-0.5599,-0.6332,-0.7467,-0.8123,-0.8262,-0.7803,-0.7111,-0.6159,-0.4918,-0.3565,-0.2244,-0.0593,0.1153,0.3155,0.5445,0.7341,0.8773,1.0399,1.1595,0.0,0.0,0.0,0.0,0.0,0.0,0.0,0.0,0.0,0.0,0.0,1.8776,0.0,1.8682,1.8649,1.9059,1.937,1.959,1.9751,2.0358,2.1004,2.1545,2.0985,2.0492,2.0382,1.9615,1.8644,1.7449,1.6391,1.5451,1.4712,1.3816,1.3015,1.2354,1.2234,1.2651,1.3515,1.392,1.4384,1.5316,1.558,1.5639,1.564,1.6692,1.7617,1.7629,1.8718,1.9647,1.9611,1.9501,1.9413,1.9288,1.9153,1.8965,1.8683,1.8606,1.8659,1.8721,1.8293,1.7774,-1.7147,-1.7006,-1.686,-1.6747,-1.6558,-1.4972,-1.4326,-1.4326,-1.4292,-1.4246,-1.4226,-1.4259,-1.4292,-1.4359,-1.4685,-1.4846,-1.497,-1.5131,-1.5167,-1.5096,-1.511,-1.5006,-1.4871,-1.4893,-1.4739,-1.4501,-1.4387,-1.4126,-1.3782,-1.3531,-1.3191,-1.2734,-1.2013,-1.1294,-1.052,-0.8639,-0.7676,-0.7708,-0.8621,-0.8928,-0.8557,-0.819,-0.7412,-0.6253,-0.5049,-0.3678,-0.2182,-0.0646,0.1006,0.2758,0.4805,0.6579,0.8008,0.9649,1.0829,0.0,1.1913,0.0,0.0,0.0,0.0,0.0,0.0,0.0,0.0,1.8222,1.8346,1.8818,1.7748,1.762,1.9026,1.8897,1.9143,2.0027,2.0401,2.0893,2.1715,2.0609,1.9921,2.0388,1.9139,1.8056,1.7405,1.6541,1.5806,1.5207,1.447,1.358,1.262,1.2727,1.322,1.3814,1.4445,1.5043,1.5505,1.577,1.5814,1.5728,1.6604,1.756,1.7581,1.8644,1.9564,1.9545,1.9538,1.9465,1.9317,1.9101,1.8822,1.8344,1.8175,1.8268,1.8475,1.7988,1.7269,-1.828,-1.7684,-1.7393,-1.699,-1.6515,-1.6068,-1.5923,-1.6007,-1.5888,-1.5937,-1.6007,-1.6007,-1.6055,-1.6208,-1.6312,-1.638,-1.6386,-1.6386,-1.6103,-1.5637,-1.5539,-1.5207,-1.4802,-1.5119,-1.4998,-1.4556,-1.4828,-1.4728,-1.4203,-1.4404,-1.4349,-1.4126,-1.3989,-1.3298,-1.1987,0.0,0.0,0.0,-0.9014,-0.9026,-0.8904,-0.8212,-0.7238,-0.593,-0.4556,0.0,-0.1451,0.0,0.1524,0.3206,0.507,0.0,0.0,0.0,0.0,0.0,0.0,0.0,0.0,0.0,0.0,0.0,1.583,1.6111,1.7448,1.7389,1.7452,1.7976,1.7915,1.8005,1.8376,1.9176,1.9819,2.0266,2.0577,2.0887,2.1182,2.0465,1.975,1.9127,1.8689,1.7887,1.6562,1.5911,1.5334,1.4538,1.4135,1.386,1.3481,1.3491,1.3804,1.4418,1.5114,1.5647,1.5942,1.5943,1.59,1.5889,1.6278,1.699,1.7504,1.8199,1.8939,1.9346,1.9288,1.9191,1.9055,1.8721,1.8344,1.7962,1.7787,1.776,1.7989,1.7557,1.6921,-1.8688,0.0,-1.796,-1.7664,0.0,-1.7198,-1.716,-1.7194,-1.6564,-1.6338,-1.6387,-1.6387,-1.6423,-1.6486,-1.6606,-1.6628,-1.6564,-1.6578,-1.6411,-1.6034,-1.5945,-1.5675,-1.5353,-1.555,-1.5467,-1.5148,-1.5375,-1.5305,-1.4967,-1.5105,-1.5019,-1.4798,-1.4688,-1.4181,-1.3217,-1.2788,-1.1686,-0.9848,-0.9658,-0.9367,-0.899,-0.8088,-0.7036,-0.5722,0.0,0.0,0.0,0.0,0.0,0.0,0.0,0.0,0.0,0.0,0.0,1.0945,1.183,1.2815,1.3934,1.4446,1.4947,1.5515,1.5105,1.5326,1.6486,1.6314,1.6256,1.6481,1.6454,1.6585,1.71,1.7884,1.8668,1.9329,1.967,1.9942,2.0009,1.9498,1.8866,1.8374,1.7834,1.7159,1.6273,1.5895,1.5534,1.4985,1.4806,1.4725,1.4629,1.4308,1.4367,1.503,1.5572,1.597,1.6083,1.6055,1.6013,1.6032,1.6638,1.7234,1.754,1.8382,1.9131,1.9317,1.9191,1.9017,1.8774,1.845,1.8042,1.7639,1.7434,1.7352,1.724,1.6863,1.6392,-1.8798,-1.8745,-1.8397,-1.8279,-1.8266,-1.8082,-1.7962,-1.7933,0.0,0.0,0.0,-1.6597,-1.6597,-1.6597,-1.6733,-1.6697,-1.661,-1.6661,-1.6605,-1.6359,-1.6327,-1.6163,-1.5968,-1.6002,-1.5928,-1.575,-1.5856,-1.5755,-1.5575,-1.5566,-1.5453,-1.5209,-1.509,-1.4811,-1.4339,-1.3508,-1.2419,-1.1203,-1.0596,-1.0018,-0.9383,-0.8349,-0.7197,-0.5985,-0.4414,-0.297,-0.1681,-0.0209,0.1166,0.2411,0.3659,0.4999,0.6324,0.7148,0.8159,0.94,1.0003,1.0818,1.2083,1.2959,1.3705,1.433,1.405,1.4267,1.5112,1.4978,1.4809,1.4741,1.4536,1.4754,1.5683,1.6281,1.7045,1.8115,1.8387,1.8543,1.8655,1.8102,1.7631,1.7475,1.6901,1.6409,1.6231,1.5981,1.5799,1.5726,1.552,1.558,1.5506,1.5077,1.4931,1.5447,1.5782,1.6039,1.6123,1.6151,1.6139,1.6144,1.6955,1.7616,1.7832,1.8629,1.9243,1.9199,1.904,1.8784,1.8461,1.8108,1.7707,1.7186,1.6989,1.6808,1.6423,1.6044,1.5614,-1.8774,-1.8673,-1.8347,-1.8242,-1.8189,-1.7989,-1.7909,-1.7909,-1.7732,-1.769,-1.7781,-1.7742,-1.7742,-1.7781,-1.7795,-1.7755,-1.7664,-1.7598,-1.7235,-1.6723,-1.6594,-1.6277,-1.5851,-1.6304,-1.6188,-1.5702,-1.6035,-1.5945,-1.5452,-1.5736,-1.5834,-1.5683,-1.6045,-1.5973,-1.5405,-1.4262,-1.3588,-1.3422,-1.2179,-1.1334,-1.0829,-0.9673,-0.8487,-0.7217,-0.5614,-0.4127,-0.2723,-0.1161,0.0243,0.1464,0.2965,0.4374,0.5591,0.7062,0.8542,0.982,1.1148,1.2227,1.3014,1.3292,1.3211,1.2708,1.2144,1.2222,1.3116,1.3129,1.3037,1.2967,1.3276,1.3898,1.4869,1.5452,1.625,1.7282,1.7131,1.7,1.7196,1.6644,1.6202,1.6148,1.5957,1.5883,1.5898,1.5697,1.5551,1.5522,1.5477,1.5448,1.5521,1.5608,1.5607,1.5638,1.5826,1.5996,1.6052,1.6176,1.6207,1.6123,1.6711,1.7378,1.7727,1.8239,1.8724,1.8864,1.8765,1.8454,1.812,1.7639,1.7227,1.685,1.6367,1.5888,1.5869,1.5198,1.4558,-1.9208,-1.9143,-1.8862,-1.87,-1.8658,-1.8153,-1.7922,-1.7922,-1.7922,-1.7909,-1.7935,-1.7855,-1.7828,-1.7814,-1.776,-1.7693,-1.7638,-1.7569,-1.7382,-1.7116,-1.6888,-1.6716,-1.6586,-1.6689,-1.6595,-1.6334,-1.6527,-1.6445,-1.6089,-1.6211,-1.6187,-1.6086,-1.6108,-1.6013,-1.5724,-1.501,-1.4545,-1.4418,-1.2967,-1.192,-1.1368,-1.0275,-0.922,-0.8131,-0.6597,-0.5105,-0.3738,-0.2293,-0.0899,0.035,0.1746,0.3084,0.4266,0.5611,0.6895,0.8068,0.9148,1.0038,1.0689,1.1162,1.1277,1.0933,1.0633,1.055,1.087,1.1365,1.1681,1.174,1.2396,1.3192,1.3961,1.4784,1.5505,1.6025,1.6037,1.6007,1.5873,1.5728,1.5507,1.5433,1.5359,1.5344,1.5418,1.5269,1.5209,1.5225,1.5315,1.5418,1.5551,1.5683,1.577,1.5639,1.5826,1.5996,1.6067,1.6191,1.6428,1.6753,1.73,1.7822,1.8281,1.8688,1.887,1.8902,1.8664,1.8224,1.7908,1.7338,1.6892,1.6595,1.5901,1.5513,1.5513,1.4674,1.3941,-1.9638,-1.9724,-1.9433,-1.9265,-1.9168,-1.8385,-1.8031,-1.8031,-1.7896,-1.7788,-1.7801,-1.772,-1.7679,-1.7651,-1.7488,-1.7365,-1.7308,-1.728,-1.728,-1.7267,-1.7057,-1.7044,-1.7115,-1.696,-1.6876,-1.6846,-1.6961,-1.6939,-1.6791,-1.6792,-1.666,-1.6404,-1.5985,-1.5703,-1.5703,-1.5435,-1.5165,-1.4824,-1.3597,-1.2652,-1.198,-1.1049,-1.0039,-0.8964,-0.7608,-0.6234,-0.4837,-0.3518,-0.2175,-0.0965,0.0358,0.1634,0.283,0.3969,0.5076,0.6138,0.6937,0.7723,0.8474,0.8971,0.935,0.9466,0.9297,0.9102,0.903,0.9679,1.034,1.0697,1.1495,1.2289,1.2904,1.3753,1.441,1.4533,1.4891,1.4998,1.4774,1.489,1.4982,1.4935,1.4859,1.4859,1.4904,1.4887,1.4842,1.4966,1.5165,1.5359,1.5522,1.5683,1.5697,1.5726,1.5854,1.6039,1.6123,1.6219,1.653,1.7189,1.7759,1.8206,1.8672,1.9041,1.9281,1.9026,1.8553,1.8082,1.7693,1.7073,1.6663,1.6405,1.5572,1.4856,1.4834,1.4043,1.3409,-1.9809,-2.0089,-1.9972,-1.9812,-1.9568,-1.8854,-1.8569,-1.8446,-1.7852,-1.7529,-1.7597,-1.7638,-1.7624,-1.7446,-1.7295,-1.7157,-1.7044,-1.696,-1.696,-1.6973,-1.6931,-1.6918,-1.6956,-1.6888,-1.6748,-1.6653,-1.7049,-1.7185,-1.7008,-1.7439,-1.7298,-1.6592,-1.5885,-1.5504,-1.5369,-1.5324,-1.5142,-1.4822,-1.4446,-1.3918,-1.325,-1.2387,-1.1336,-1.0164,-0.8967,-0.7604,-0.6088,-0.4833,-0.362,-0.243,-0.1137,0.0163,0.158,0.2765,0.3942,0.5193,0.606,0.7054,0.8098,0.8164,0.8165,0.8484,0.8116,0.7874,0.7882,0.8129,0.8699,0.9597,1.0371,1.104,1.1469,1.2238,1.2878,1.3245,1.3578,1.3721,1.3848,1.3921,1.4098,1.4351,1.4337,1.4461,1.4592,1.4592,1.461,1.4794,1.4966,1.5165,1.5389,1.5492,1.5639,1.5827,1.597,1.6039,1.6166,1.6305,1.6464,1.6592,1.7494,1.8069,1.8321,1.8852,1.9413,1.8726,1.8436,1.8002,1.7461,1.6829,1.6331,1.6077,1.5092,1.3762,1.3302,1.306,1.3112,-2.0478,-2.0567,-2.0492,-2.012,-1.9673,-1.927,-1.9118,-1.9091,-1.8645,-1.8222,-1.7863,-1.7837,-1.7623,-1.7267,-1.7128,-1.7002,-1.6833,-1.6791,-1.6748,-1.665,-1.6607,-1.6753,-1.6999,-1.6992,-1.704,-1.726,-1.7508,-1.7538,-1.7373,-1.7424,-1.7219,-1.6859,-1.6384,-1.6008,-1.5695,-1.552,-1.5197,-1.4695,-1.443,-1.4046,-1.3515,-1.2842,-1.2033,-1.097,-0.9813,-0.8553,-0.7148,-0.5812,-0.4534,-0.3329,-0.2132,-0.0938,0.0308,0.1453,0.2556,0.3668,0.4655,0.555,0.6354,0.6449,0.6613,0.6965,0.6904,0.6923,0.7098,0.7349,0.7758,0.8349,0.9497,1.0504,1.1064,1.1926,1.2541,1.271,1.3034,1.3286,1.316,1.3353,1.3568,1.3702,1.3815,1.3914,1.4046,1.4222,1.4401,1.4592,1.4811,1.5011,1.5254,1.5403,1.561,1.5812,1.5955,1.6067,1.6179,1.6316,1.6554,1.6987,1.7426,1.7713,1.8082,1.8452,1.8788,1.8374,1.8128,1.7839,1.7421,1.6497,1.5758,1.5441,1.3792,1.2193,1.2603,1.2815,1.2909,-2.0946,-2.1038,-2.0912,-2.0541,-2.0116,-1.9745,-1.9632,-1.9546,-1.9199,-1.8702,-1.8291,-1.8131,-1.7898,-1.7497,-1.7059,-1.6867,-1.6835,-1.6816,-1.6817,-1.6828,-1.6796,-1.6987,-1.7196,-1.7186,-1.7335,-1.7581,-1.7764,-1.786,-1.782,-1.7502,-1.7255,-1.707,-1.6742,-1.6341,-1.6021,-1.5793,-1.5352,-1.4777,-1.4475,-1.4079,-1.3536,-1.3045,-1.2355,-1.1425,-1.0433,-0.9223,-0.7869,-0.6633,-0.5436,-0.4129,-0.3079,-0.2043,-0.0937,0.0096,0.1178,0.228,0.3299,0.4121,0.46,0.4947,0.5298,0.5647,0.5867,0.613,0.6386,0.6761,0.7056,0.7412,0.8564,0.9609,1.0416,1.1307,1.1827,1.1975,1.2393,1.2596,1.2567,1.2766,1.2975,1.3113,1.3297,1.348,1.3615,1.3861,1.4157,1.4324,1.456,1.4825,1.5072,1.5314,1.5536,1.5827,1.5926,1.6067,1.6222,1.6316,1.6706,1.703,1.7283,1.757,1.7884,1.81,1.818,1.784,1.7707,1.7445,1.6943,1.6089,1.4931,1.4357,1.2844,1.1304,1.1997,1.2411,1.2626,-2.1148,-2.1472,-2.1272,-2.1135,-2.1046,-2.0306,-1.9998,-1.9925,-1.9118,-1.8693,-1.8655,-1.8516,-1.841,-1.8211,-1.7137,-1.6823,-1.7217,-1.7099,-1.7254,-1.7601,-1.7663,-1.7689,-1.7605,-1.7557,-1.7484,-1.7456,-1.7838,-1.8203,-1.8425,-1.7903,-1.7526,-1.7376,-1.6769,-1.6384,-1.6188,-1.6149,-1.5803,-1.5137,-1.4806,-1.4261,-1.3347,-1.3046,-1.2464,-1.1618,-1.0759,-0.9675,-0.8227,-0.7416,-0.6334,-0.4916,-0.4097,-0.324,-0.2239,-0.1277,-0.0046,0.1305,0.2182,0.2843,0.3413,0.3894,0.4335,0.4787,0.5048,0.5318,0.5712,0.6179,0.6556,0.6907,0.7531,0.8248,0.9041,0.9805,1.0312,1.074,1.1147,1.1501,1.1822,1.2102,1.2354,1.2567,1.2814,1.3069,1.3446,1.3674,1.3828,1.4013,1.4208,1.4465,1.4828,1.5133,1.5418,1.5712,1.5898,1.6052,1.6246,1.6328,1.6414,1.6643,1.7005,1.7306,1.7378,1.7424,1.7374,1.7243,1.7008,1.6711,1.6321,1.5437,1.4141,1.3163,1.2088,1.1235,1.159,1.1933,1.2181,-2.104,-2.1229,-2.1144,-2.1033,-2.0881,-2.0548,-2.0322,-2.0211,-1.9782,-1.9279,-1.889,-1.8755,-1.847,-1.7989,-1.7451,-1.7424,-1.7738,-1.7562,-1.7531,-1.7557,-1.7557,-1.7604,-1.7716,-1.7716,-1.7867,-1.8111,-1.8301,-1.833,-1.8255,-1.7943,-1.7713,-1.7583,-1.7252,-1.6911,-1.6486,-1.6326,-1.5951,-1.5335,-1.5056,-1.4604,-1.4002,-1.3469,-1.2884,-1.2254,-1.1235,-1.0138,-0.9118,-0.7934,-0.6826,-0.5825,-0.4754,-0.3827,-0.2962,-0.1687,-0.05,0.0402,0.1132,0.1757,0.2271,0.2785,0.3249,0.3687,0.4125,0.4578,0.5062,0.5577,0.6007,0.6441,0.6914,0.7447,0.8013,0.8731,0.9381,0.9825,1.0225,1.0649,1.0992,1.133,1.1653,1.1945,1.2318,1.272,1.3035,1.3254,1.3472,1.3715,1.3947,1.4259,1.4596,1.4921,1.5209,1.5551,1.5755,1.5926,1.6136,1.6301,1.6398,1.6445,1.6647,1.667,1.673,1.6939,1.6933,1.6717,1.6436,1.6123,1.5753,1.5051,1.3694,1.2305,1.113,1.096,1.1166,1.1704,1.1984,-2.0983,-2.0934,-2.0885,-2.0822,-2.0673,-2.051,-2.0422,-2.0321,-2.008,-1.9661,-1.9258,-1.907,-1.8696,-1.8326,-1.814,-1.8178,-1.829,-1.8019,-1.7871,-1.7867,-1.7816,-1.7867,-1.7996,-1.799,-1.8166,-1.8405,-1.8387,-1.8236,-1.7975,-1.7865,-1.7755,-1.7645,-1.7479,-1.7203,-1.6689,-1.6547,-1.617,-1.5584,-1.5278,-1.4887,-1.4344,-1.37,-1.3137,-1.2677,-1.1764,-1.0748,-0.9743,-0.8418,-0.7367,-0.6497,-0.5336,-0.4303,-0.3385,-0.2186,-0.1164,-0.0491,0.0174,0.0808,0.1345,0.1929,0.243,0.2891,0.3351,0.39,0.4522,0.5014,0.5496,0.597,0.6483,0.6901,0.7356,0.7964,0.8618,0.9239,0.9646,1.0049,1.0467,1.084,1.1169,1.1568,1.1957,1.2318,1.2603,1.2803,1.3047,1.3344,1.3589,1.3888,1.4278,1.4627,1.4982,1.5329,1.558,1.5784,1.5983,1.6151,1.6301,1.6359,1.6402,1.6344,1.6323,1.6483,1.6443,1.6166,1.588,1.5552,1.5076,1.446,1.3294,1.1841,1.1174,1.0879,1.1206,1.1574,1.1787,-2.0921,-2.0759,-2.0673,-2.051,-2.0372,-2.022,-2.0182,-2.0131,-1.9914,-1.9722,-1.9544,-1.9411,-1.9245,-1.923,-1.8988,-1.9032,-1.8782,-1.8255,-1.8251,-1.8567,-1.8549,-1.8412,-1.8352,-1.8286,-1.8232,-1.8139,-1.8018,-1.7854,-1.77,-1.7711,-1.7645,-1.7468,-1.7323,-1.7179,-1.6933,-1.6722,-1.6385,-1.5773,-1.5516,-1.4984,-1.4038,-1.3695,-1.3286,-1.2831,-1.2358,-1.1489,-1.0114,-0.9041,-0.8051,-0.7061,-0.5963,-0.4762,-0.3619,-0.286,-0.2237,-0.1431,-0.0758,-0.0044,0.0633,0.1301,0.1888,0.2393,0.2855,0.3357,0.3978,0.4535,0.5058,0.5626,0.6099,0.6556,0.6937,0.7356,0.7931,0.8846,0.9319,0.9716,1.0157,1.0534,1.0905,1.1356,1.1689,1.1982,1.2174,1.2354,1.2615,1.2896,1.3138,1.3421,1.3921,1.4278,1.4672,1.5072,1.5344,1.558,1.5784,1.5998,1.6151,1.6262,1.6316,1.6301,1.6207,1.627,1.6098,1.5816,1.5261,1.4902,1.4219,1.3643,1.3156,1.1961,1.1416,1.0825,1.1034,1.1367,1.1628,-2.0435,-2.0372,-2.0233,-2.0118,-1.9952,-1.9862,-1.9772,-1.9668,-1.9565,-1.9408,-1.9251,-1.9146,-1.904,-1.8881,-1.8839,-1.8774,-1.8709,-1.8407,-1.8377,-1.8506,-1.8476,-1.8356,-1.8205,-1.8193,-1.8084,-1.7963,-1.7909,-1.7799,-1.7579,-1.759,-1.7412,-1.719,-1.7134,-1.6909,-1.6591,-1.6534,-1.6213,-1.578,-1.5511,-1.5146,-1.4668,-1.4063,-1.3577,-1.3194,-1.2582,-1.1864,-1.1172,-1.0091,-0.9034,-0.8062,-0.6882,-0.5535,-0.4147,-0.3255,-0.2635,-0.2051,-0.1303,-0.0683,-0.0084,0.0589,0.1219,0.1685,0.2193,0.2811,0.3422,0.4005,0.4574,0.5145,0.5663,0.6093,0.6513,0.6937,0.7523,0.8365,0.8765,0.9159,0.9637,1.0147,1.0649,1.0981,1.1282,1.1542,1.1836,1.1993,1.2174,1.2532,1.2791,1.3126,1.3568,1.4,1.4356,1.4735,1.5013,1.5374,1.558,1.5784,1.5926,1.608,1.6191,1.6246,1.6151,1.6039,1.5841,1.5418,1.4828,1.4208,1.3531,1.2995,1.26,1.202,1.1303,1.0988,1.0935,1.1145,1.1546,-2.008,-2.0016,-1.9926,-1.9772,-1.9656,-1.9565,-1.946,-1.9303,-1.9263,-1.9158,-1.8946,-1.8893,-1.8774,-1.8614,-1.8614,-1.856,-1.8506,-1.8367,-1.8247,-1.8247,-1.8259,-1.8205,-1.8084,-1.8084,-1.7975,-1.7854,-1.7799,-1.7634,-1.7346,-1.729,-1.7179,-1.6965,-1.6853,-1.6637,-1.6384,-1.6202,-1.5961,-1.5604,-1.542,-1.5196,-1.4796,-1.4298,-1.387,-1.3477,-1.2879,-1.2414,-1.2043,-1.1145,-1.0101,-0.8871,-0.7428,-0.5861,-0.4484,-0.3691,-0.3031,-0.2446,-0.1794,-0.1157,-0.059,0.0042,0.0589,0.1014,0.1592,0.2201,0.2799,0.3432,0.4045,0.4661,0.5183,0.5626,0.6093,0.6513,0.7063,0.7663,0.8283,0.8765,0.9239,0.9795,1.0273,1.0572,1.0829,1.1132,1.1394,1.1675,1.1811,1.221,1.2473,1.2803,1.3276,1.3702,1.4065,1.4433,1.478,1.5102,1.5344,1.5551,1.5711,1.5883,1.6052,1.6136,1.6123,1.6039,1.5854,1.5285,1.4704,1.4084,1.3438,1.3002,1.2567,1.187,1.125,1.1082,1.0984,1.1306,1.1662,-1.9875,-1.9759,-1.9604,-1.9512,-1.9368,-1.9368,-1.9251,-1.9133,-1.8987,-1.8839,-1.8732,-1.8572,-1.8494,-1.8506,-1.8452,-1.841,-1.8356,-1.8139,-1.803,-1.7963,-1.803,-1.803,-1.8041,-1.803,-1.792,-1.7711,-1.77,-1.7468,-1.7067,-1.7056,-1.6909,-1.6761,-1.6545,-1.6374,-1.6202,-1.5914,-1.5604,-1.5362,-1.5196,-1.4902,-1.4538,-1.4282,-1.4034,-1.3734,-1.3218,-1.283,-1.2623,-1.1897,-1.0907,-0.9432,-0.7471,-0.5961,-0.4952,-0.4119,-0.344,-0.2784,-0.215,-0.1578,-0.098,-0.0425,0.0042,0.0511,0.1023,0.154,0.2264,0.286,0.352,0.418,0.4705,0.5145,0.5626,0.6093,0.6556,0.7063,0.7904,0.861,0.9168,0.9576,0.9892,1.0118,1.0418,1.0753,1.0981,1.1303,1.1564,1.1884,1.2186,1.2591,1.3015,1.3463,1.3868,1.4276,1.4625,1.4941,1.5203,1.5299,1.5463,1.5682,1.5883,1.6011,1.6067,1.5968,1.5754,1.518,1.461,1.3986,1.3433,1.2965,1.2401,1.17,1.1303,1.1099,1.1183,1.1457,1.1737,-1.9525,-1.9473,-1.9251,-1.9146,-1.9105,-1.8881,-1.8762,-1.8721,-1.8625,-1.8476,-1.8313,-1.8127,-1.8073,-1.792,-1.7975,-1.792,-1.7877,-1.7822,-1.7767,-1.7767,-1.7822,-1.781,-1.7822,-1.781,-1.77,-1.759,-1.7534,-1.7357,-1.7011,-1.6944,-1.6807,-1.6545,-1.6374,-1.6144,-1.572,-1.5536,-1.5235,-1.4951,-1.4775,-1.4606,-1.4318,-1.407,-1.3821,-1.3571,-1.3224,-1.292,-1.2744,-1.1926,-1.0744,-0.9266,-0.7756,-0.6403,-0.5403,-0.4638,-0.3932,-0.3179,-0.2506,-0.1962,-0.1413,-0.0879,-0.0352,0.0133,0.0658,0.1283,0.1876,0.2462,0.3081,0.3697,0.4224,0.4666,0.514,0.562,0.6221,0.7105,0.7821,0.8496,0.8943,0.9337,0.9646,0.9853,1.0205,1.0467,1.0764,1.1029,1.1351,1.1686,1.2004,1.233,1.2804,1.3436,1.3925,1.4212,1.4544,1.481,1.504,1.5115,1.5255,1.5448,1.5682,1.5898,1.5911,1.5868,1.5536,1.509,1.4624,1.4046,1.3467,1.2931,1.227,1.1664,1.1351,1.1147,1.1236,1.146,1.172,-1.921,-1.9105,-1.8934,-1.8827,-1.8774,-1.8614,-1.8452,-1.8398,-1.8236,-1.8084,-1.792,-1.7865,-1.781,-1.7711,-1.7711,-1.7656,-1.759,-1.7545,-1.7479,-1.7423,-1.7379,-1.7434,-1.759,-1.7656,-1.7534,-1.7423,-1.7312,-1.7123,-1.6853,-1.6797,-1.6581,-1.6296,-1.6077,-1.5778,-1.542,-1.5118,-1.4883,-1.4647,-1.4419,-1.4189,-1.395,-1.3761,-1.358,-1.3338,-1.3042,-1.2797,-1.2436,-1.1685,-1.0575,-0.9304,-0.816,-0.7069,-0.6034,-0.5165,-0.4379,-0.3662,-0.2922,-0.2281,-0.1748,-0.121,-0.0672,-0.0225,0.0359,0.0896,0.1478,0.2059,0.264,0.3262,0.3744,0.4184,0.4705,0.528,0.6007,0.6725,0.744,0.8077,0.8659,0.9016,0.9368,0.9655,0.9971,1.0244,1.0505,1.0812,1.1126,1.1463,1.1785,1.215,1.2615,1.3321,1.3884,1.4075,1.4346,1.462,1.479,1.4871,1.5118,1.5299,1.5684,1.5874,1.5797,1.5739,1.5433,1.5059,1.4624,1.4092,1.348,1.2883,1.2318,1.1822,1.1474,1.1244,1.1312,1.1491,1.1754,-1.8893,-1.8786,-1.8625,-1.856,-1.8506,-1.841,-1.8247,-1.8073,-1.7909,-1.7744,-1.7645,-1.7601,-1.7545,-1.759,-1.7479,-1.7545,-1.7423,-1.7256,-1.7088,-1.6965,-1.6864,-1.6987,-1.7368,-1.7368,-1.7312,-1.7155,-1.7022,-1.6797,-1.657,-1.642,-1.6249,-1.5999,-1.5652,-1.542,-1.5245,-1.4834,-1.4538,-1.4419,-1.413,-1.3881,-1.3631,-1.345,-1.3216,-1.2981,-1.2736,-1.249,-1.2058,-1.1421,-1.0608,-0.9494,-0.8644,-0.7742,-0.6815,-0.5681,-0.4835,-0.4168,-0.3354,-0.2647,-0.2064,-0.1523,-0.1031,-0.0584,0.0,0.0584,0.1075,0.1657,0.2241,0.2862,0.3303,0.3832,0.4408,0.5154,0.5755,0.6307,0.6725,0.7398,0.8152,0.8659,0.8984,0.9359,0.9744,0.9971,1.0283,1.0572,1.0916,1.1191,1.1516,1.1957,1.2472,1.3166,1.3579,1.3778,1.4086,1.4409,1.4534,1.4655,1.4918,1.5192,1.5697,1.5936,1.58,1.5667,1.5419,1.5059,1.4651,1.4059,1.3365,1.2814,1.233,1.1895,1.1511,1.1373,1.1319,1.155,1.1779,-1.8679,-1.8614,-1.8476,-1.8356,-1.8193,-1.8073,-1.7909,-1.7755,-1.7534,-1.7434,-1.7334,-1.7155,-1.7032,-1.6987,-1.7032,-1.6976,-1.6931,-1.6807,-1.6637,-1.6467,-1.641,-1.6467,-1.6637,-1.6807,-1.6864,-1.6751,-1.674,-1.6513,-1.6296,-1.6171,-1.6009,-1.5788,-1.5478,-1.5303,-1.502,-1.4656,-1.4428,-1.4249,-1.3881,-1.358,-1.339,-1.3155,-1.2858,-1.2683,-1.2436,-1.2065,-1.1747,-1.1435,-1.0836,-0.9951,-0.9166,-0.8303,-0.7364,-0.6499,-0.558,-0.4645,-0.3929,-0.32,-0.2502,-0.1932,-0.1435,-0.0987,-0.0404,0.0179,0.0761,0.1344,0.1927,0.2506,0.299,0.3568,0.432,0.4888,0.5404,0.5873,0.6301,0.6859,0.753,0.8167,0.8618,0.8984,0.9297,0.9567,0.9892,1.0205,1.0582,1.0916,1.133,1.1726,1.2326,1.2926,1.3268,1.3506,1.3939,1.4279,1.44,1.4635,1.5131,1.5398,1.5821,1.5844,1.5714,1.5653,1.5419,1.5088,1.4679,1.404,1.3331,1.2756,1.2233,1.1906,1.1612,1.1549,1.1549,1.1708,1.1793,-1.8236,-1.8193,-1.8096,-1.8041,-1.7865,-1.77,-1.7601,-1.749,-1.7211,-1.7043,-1.7043,-1.6874,-1.6818,-1.6761,-1.6751,-1.6694,-1.6534,-1.6306,-1.6066,-1.5884,-1.5874,-1.5884,-1.5884,-1.6056,-1.6171,-1.6285,-1.6296,-1.6124,-1.5951,-1.5826,-1.5662,-1.5449,-1.5196,-1.4942,-1.4715,-1.4419,-1.413,-1.389,-1.3588,-1.3346,-1.3042,-1.2858,-1.249,-1.2251,-1.1996,-1.1747,-1.149,-1.1122,-1.0681,-1.011,-0.9524,-0.8717,-0.7814,-0.7007,-0.6098,-0.5179,-0.4378,-0.3689,-0.2918,-0.2344,-0.1828,-0.13,-0.0672,-0.0134,0.0447,0.103,0.1567,0.2103,0.2637,0.3214,0.4012,0.4495,0.4923,0.5356,0.5836,0.6355,0.6901,0.7655,0.8324,0.8651,0.9016,0.9257,0.9576,0.9853,1.0205,1.0534,1.0916,1.1367,1.192,1.2519,1.2983,1.333,1.3826,1.4158,1.4259,1.4684,1.5421,1.5722,1.6081,1.5833,1.5475,1.5462,1.5477,1.5072,1.463,1.4053,1.3391,1.2768,1.2233,1.1932,1.1712,1.176,1.176,1.1808,1.1856,-1.781,-1.7711,-1.7711,-1.7656,-1.7601,-1.7379,-1.7267,-1.7166,-1.6789,-1.6666,-1.6673,-1.6641,-1.6455,-1.6637,-1.6524,-1.642,-1.6134,-1.5788,-1.5498,-1.5352,-1.5284,-1.5294,-1.5294,-1.5352,-1.5468,-1.5826,-1.5846,-1.5672,-1.5556,-1.543,-1.5313,-1.5147,-1.4834,-1.4706,-1.4478,-1.4121,-1.3821,-1.358,-1.3285,-1.2989,-1.2683,-1.2498,-1.212,-1.1747,-1.163,-1.1435,-1.1122,-1.0807,-1.0491,-1.0174,-0.9594,-0.8947,-0.8201,-0.7346,-0.6488,-0.5797,-0.4871,-0.4065,-0.3311,-0.2708,-0.2151,-0.1539,-0.0896,-0.0358,0.0134,0.0716,0.1253,0.1746,0.2281,0.2904,0.3568,0.4008,0.4399,0.4836,0.5323,0.5798,0.6307,0.7154,0.7731,0.8275,0.8521,0.8805,0.9168,0.9487,0.9843,1.0196,1.0572,1.0992,1.1553,1.2066,1.252,1.299,1.3462,1.3945,1.4106,1.4911,1.5593,1.5881,1.625,1.5813,1.5332,1.5267,1.5225,1.4994,1.4552,1.3974,1.3425,1.2826,1.2365,1.1993,1.1822,1.1796,1.1844,1.1881,1.1954,-1.7711,-1.7711,-1.7579,-1.7479,-1.7323,-1.7134,-1.6965,-1.68,-1.6234,-1.6144,-1.6358,-1.5879,-1.5838,-1.5995,-1.6029,-1.5846,-1.5546,-1.5254,-1.502,-1.4824,-1.4706,-1.4706,-1.4706,-1.4706,-1.4706,-1.4834,-1.502,-1.5147,-1.5147,-1.5088,-1.497,-1.497,-1.4656,-1.4478,-1.4291,-1.3932,-1.3571,-1.339,-1.2981,-1.2683,-1.2498,-1.2065,-1.1622,-1.1247,-1.1192,-1.0996,-1.0807,-1.0624,-1.0301,-0.9709,-0.9396,-0.8882,-0.827,-0.7609,-0.686,-0.6019,-0.5266,-0.4464,-0.3648,-0.3008,-0.2483,-0.1876,-0.1284,-0.0673,-0.0134,0.0403,0.0985,0.1567,0.2192,0.2818,0.3262,0.3629,0.3972,0.4408,0.4877,0.5368,0.5842,0.6416,0.7065,0.7652,0.8029,0.8349,0.8675,0.9047,0.9399,0.9755,1.0108,1.0611,1.1142,1.1616,1.2102,1.2567,1.3047,1.3539,1.3947,1.4975,1.582,1.5948,1.6062,1.5707,1.5326,1.511,1.4935,1.4714,1.4461,1.4078,1.3501,1.2883,1.2425,1.2029,1.1906,1.1819,1.1918,1.2016,1.2125,-1.7312,-1.72,-1.7155,-1.7088,-1.6987,-1.6751,-1.6648,-1.6513,-1.6033,-1.594,-1.5975,-1.5749,-1.5682,-1.5758,-1.5662,-1.542,-1.4951,-1.4715,-1.4488,-1.4359,-1.424,-1.424,-1.424,-1.4181,-1.4121,-1.4181,-1.43,-1.4488,-1.4556,-1.4556,-1.4556,-1.4428,-1.4309,-1.4181,-1.3983,-1.3683,-1.339,-1.3094,-1.2797,-1.2498,-1.2313,-1.1685,-1.1185,-1.0933,-1.0751,-1.0555,-1.0301,-1.0104,-0.9907,-0.9518,-0.9087,-0.8694,-0.8135,-0.7565,-0.6867,-0.6173,-0.5494,-0.483,-0.4017,-0.3447,-0.2936,-0.2291,-0.168,-0.1098,-0.0495,0.0089,0.0719,0.1436,0.1927,0.2506,0.2909,0.3278,0.3767,0.4244,0.4746,0.5268,0.5754,0.6156,0.6672,0.7191,0.7631,0.7987,0.8226,0.8586,0.8918,0.9319,0.9695,1.0244,1.0815,1.1207,1.1653,1.221,1.2708,1.3207,1.3679,1.4564,1.5398,1.5622,1.5752,1.5414,1.5124,1.4816,1.461,1.4433,1.4195,1.4,1.3467,1.2826,1.2461,1.2138,1.2041,1.2016,1.2052,1.2113,1.2281,-1.6853,-1.6751,-1.6694,-1.6637,-1.6627,-1.626,-1.6115,-1.6048,-1.5642,-1.5462,-1.5601,-1.5533,-1.5496,-1.541,-1.5196,-1.4883,-1.441,-1.4181,-1.4001,-1.389,-1.3769,-1.3769,-1.3769,-1.3709,-1.3649,-1.3588,-1.3519,-1.3571,-1.4001,-1.407,-1.4001,-1.3941,-1.3881,-1.3761,-1.3511,-1.339,-1.3103,-1.2858,-1.256,-1.2313,-1.1879,-1.1317,-1.0877,-1.0561,-1.0308,-1.011,-0.9913,-0.9652,-0.9406,-0.9122,-0.8728,-0.8334,-0.7947,-0.7235,-0.6621,-0.6164,-0.5656,-0.4991,-0.4354,-0.3807,-0.3292,-0.2576,-0.2134,-0.1516,-0.0887,-0.0186,0.0508,0.1287,0.1707,0.2083,0.2565,0.3025,0.3494,0.3996,0.4557,0.5135,0.5547,0.5963,0.6325,0.68,0.728,0.7737,0.8062,0.8594,0.9017,0.935,0.9736,1.0105,1.0637,1.0805,1.1282,1.1872,1.2389,1.2861,1.3405,1.398,1.4566,1.4783,1.4977,1.4923,1.4653,1.4401,1.4227,1.4065,1.3967,1.3735,1.3229,1.2861,1.2496,1.2246,1.221,1.215,1.2113,1.2328,1.2567,-1.6637,-1.657,-1.6265,-1.6171,-1.6079,-1.5517,-1.5245,-1.5149,-1.4502,-1.4402,-1.4799,-1.462,-1.4648,-1.4718,-1.4478,-1.424,-1.4001,-1.37,-1.3511,-1.3398,-1.3285,-1.3164,-1.3103,-1.3103,-1.3103,-1.3111,-1.2981,-1.3164,-1.3398,-1.3511,-1.3571,-1.3511,-1.339,-1.3329,-1.3268,-1.3042,-1.2797,-1.2621,-1.2305,-1.1864,-1.1281,-1.0843,-1.0528,-1.0255,-0.9996,-0.9724,-0.9491,-0.9283,-0.8995,-0.8584,-0.8375,-0.7963,-0.7431,-0.6959,-0.6529,-0.6056,-0.5566,-0.4976,-0.444,-0.4003,-0.3448,-0.2843,-0.234,-0.1804,-0.1132,-0.0393,0.0245,0.0697,0.1139,0.1624,0.2157,0.2636,0.3103,0.3611,0.4146,0.4615,0.5056,0.5673,0.6052,0.6493,0.6979,0.7568,0.7996,0.8599,0.915,0.9436,0.9796,1.0143,1.0514,1.0795,1.1196,1.1888,1.2161,1.2566,1.2827,1.3467,1.3768,1.4002,1.418,1.4345,1.4172,1.3934,1.3855,1.3735,1.3635,1.3467,1.3035,1.2685,1.2461,1.2318,1.221,1.215,1.2113,1.2435,1.2926,-1.5139,-1.5338,-1.5119,-1.5009,-1.4979,-1.4537,-1.436,-1.4266,-1.385,-1.3828,-1.4167,-1.4119,-1.4169,-1.4186,-1.3941,-1.3761,-1.358,-1.3277,-1.3103,-1.2972,-1.2797,-1.2736,-1.2728,-1.2666,-1.2613,-1.2552,-1.249,-1.2498,-1.2728,-1.2911,-1.2972,-1.3094,-1.2972,-1.2858,-1.2911,-1.2674,-1.249,-1.2243,-1.1926,-1.1403,-1.0733,-1.0307,-0.9988,-0.9474,-0.923,-0.9052,-0.8857,-0.8588,-0.8376,-0.8017,-0.777,-0.7426,-0.7066,-0.662,-0.6209,-0.5868,-0.5337,-0.4863,-0.4515,-0.4069,-0.3579,-0.3038,-0.2565,-0.2113,-0.1321,-0.0607,0.0,0.0453,0.0756,0.1212,0.178,0.2315,0.2902,0.3384,0.3828,0.4334,0.4815,0.5322,0.5829,0.6241,0.6702,0.7271,0.7864,0.8477,0.8934,0.9299,0.9653,1.0021,1.0529,1.1093,1.1551,1.2135,1.2252,1.2306,1.2457,1.2782,1.301,1.3223,1.3421,1.3572,1.3599,1.3493,1.3365,1.3331,1.3276,1.3047,1.2768,1.2627,1.2425,1.2318,1.221,1.2245,1.2351,1.3056,1.3592,-1.3442,-1.3714,-1.3927,-1.3961,-1.3888,-1.3588,-1.339,-1.3336,-1.3112,-1.3177,-1.3483,-1.3642,-1.3753,-1.3708,-1.3459,-1.3216,-1.3025,-1.2797,-1.2683,-1.256,-1.2428,-1.2359,-1.2297,-1.2182,-1.212,-1.212,-1.1926,-1.1934,-1.1934,-1.2058,-1.2297,-1.2613,-1.249,-1.2428,-1.2367,-1.2236,-1.2089,-1.1699,-1.1297,-1.0735,-1.0174,-0.9827,-0.9417,-0.8942,-0.8569,-0.8398,-0.8145,-0.7936,-0.7763,-0.7474,-0.7239,-0.6905,-0.6629,-0.6178,-0.5831,-0.5563,-0.5139,-0.4705,-0.4411,-0.411,-0.3687,-0.3207,-0.2636,-0.2085,-0.1418,-0.0829,-0.0363,0.0105,0.0522,0.0939,0.1407,0.208,0.2681,0.3197,0.3718,0.4262,0.4787,0.5124,0.5479,0.5931,0.6438,0.6972,0.7587,0.8254,0.8728,0.91,0.9463,0.9889,1.0479,1.1144,1.163,1.2077,1.2234,1.2189,1.2215,1.2338,1.2459,1.2591,1.2794,1.291,1.3027,1.299,1.2883,1.2861,1.2934,1.265,1.2389,1.2401,1.2401,1.234,1.2339,1.2471,1.2745,1.3506,1.4232,-1.1849,-1.1962,-1.3,-1.334,-1.3195,-1.2653,-1.2342,-1.2237,-1.207,-1.2206,-1.2608,-1.3033,-1.3228,-1.3094,-1.292,-1.2674,-1.2367,-1.2305,-1.2243,-1.212,-1.1934,-1.1872,-1.1809,-1.1747,-1.1685,-1.1622,-1.1498,-1.1365,-1.1365,-1.131,-1.1685,-1.2065,-1.1996,-1.1926,-1.1841,-1.175,-1.1431,-1.1044,-1.0478,-1.0048,-0.9674,-0.9408,-0.9014,-0.8774,-0.8428,-0.8162,-0.7849,-0.7624,-0.7364,-0.6959,-0.6726,-0.644,-0.6108,-0.5716,-0.5473,-0.5175,-0.4942,-0.4577,-0.4242,-0.4021,-0.3685,-0.3121,-0.25,-0.1991,-0.1533,-0.0996,-0.0556,-0.0165,0.0327,0.0824,0.1325,0.1838,0.2434,0.2879,0.3385,0.3837,0.4353,0.4732,0.5156,0.5609,0.6109,0.6647,0.7133,0.7745,0.8546,0.8955,0.9611,1.0051,1.0501,1.1095,1.1464,1.1866,1.2134,1.2172,1.2042,1.2144,1.2345,1.2415,1.2525,1.2537,1.2555,1.2495,1.2743,1.2602,1.2647,1.2313,1.2157,1.2473,1.2614,1.2454,1.2444,1.2636,1.3478,1.4538,1.5079,-1.1175,-1.1107,-1.1325,-1.1643,-1.1904,-1.1602,-1.1379,-1.1232,-1.1085,-1.1362,-1.1848,-1.2347,-1.2526,-1.2435,-1.2375,-1.2189,-1.1872,-1.1747,-1.1685,-1.156,-1.1435,-1.1373,-1.138,-1.131,-1.1247,-1.1122,-1.0996,-1.0933,-1.087,-1.0807,-1.0877,-1.1185,-1.1373,-1.1498,-1.1399,-1.1124,-1.0763,-1.0435,-0.9924,-0.9484,-0.9023,-0.8833,-0.8476,-0.7985,-0.7812,-0.7538,-0.7242,-0.713,-0.6799,-0.6486,-0.63,-0.5967,-0.5698,-0.5411,-0.5132,-0.4908,-0.4688,-0.4356,-0.4021,-0.3855,-0.3577,-0.291,-0.2406,-0.1961,-0.1628,-0.1178,-0.0729,-0.028,0.0168,0.0673,0.1121,0.1623,0.2122,0.2573,0.3021,0.3466,0.3965,0.4405,0.4846,0.534,0.5837,0.6327,0.6756,0.7176,0.8019,0.8783,0.9533,1.0134,1.0546,1.098,1.136,1.1676,1.193,1.2509,1.2446,1.2383,1.2276,1.2311,1.2381,1.2357,1.2427,1.2872,1.3009,1.2742,1.2605,1.2657,1.2698,1.2828,1.2726,1.2469,1.2588,1.2834,1.4012,1.541,1.5824,-1.0506,-1.0403,-1.0138,-1.03,-1.071,-1.0608,-1.0506,-1.036,-1.0265,-1.0561,-1.1152,-1.1573,-1.1796,-1.176,-1.1849,-1.1747,-1.1428,-1.131,-1.1185,-1.1122,-1.0996,-1.087,-1.0807,-1.0744,-1.0681,-1.0555,-1.0555,-1.0491,-1.0434,-1.0371,-1.0371,-1.0434,-1.0555,-1.0674,-1.0836,-1.0363,-0.9993,-0.9788,-0.9362,-0.889,-0.8404,-0.822,-0.8025,-0.7518,-0.7356,-0.7139,-0.6931,-0.6718,-0.6435,-0.6142,-0.5859,-0.5631,-0.5348,-0.5132,-0.4908,-0.4629,-0.4408,-0.4187,-0.3855,-0.3519,-0.3297,-0.2745,-0.2298,-0.1906,-0.1626,-0.1234,-0.0673,-0.0336,0.0056,0.0505,0.101,0.1457,0.1905,0.2408,0.2852,0.3299,0.3747,0.4187,0.4625,0.5066,0.5559,0.6055,0.649,0.6977,0.7777,0.8573,0.9162,0.9775,1.0245,1.0748,1.1245,1.1518,1.1785,1.2426,1.2982,1.2589,1.231,1.2531,1.2518,1.2381,1.2544,1.2951,1.3057,1.2666,1.2685,1.304,1.3114,1.2995,1.2747,1.243,1.2719,1.314,1.455,1.5807,1.6143,-0.9814,-0.9762,-0.9658,-0.9777,-0.9991,-0.9873,-0.9769,-0.9718,-0.9673,-0.9872,-1.0331,-1.0864,-1.1048,-1.0991,-1.1145,-1.1128,-1.0996,-1.087,-1.0737,-1.0674,-1.0548,-1.0364,-1.0301,-1.0238,-1.0174,-1.0047,-0.9983,-0.9983,-0.9983,-0.9862,-0.9798,-0.973,-0.9674,-0.9838,-1.0229,-0.9607,-0.9227,-0.9138,-0.8607,-0.8184,-0.7967,-0.78,-0.7555,-0.7376,-0.7144,-0.6923,-0.6657,-0.644,-0.6173,-0.59,-0.5572,-0.5348,-0.5128,-0.4908,-0.4688,-0.446,-0.4242,-0.3968,-0.3638,-0.3186,-0.2852,-0.2633,-0.213,-0.1796,-0.1515,-0.1122,-0.0673,-0.0336,0.0056,0.0505,0.0898,0.1346,0.1794,0.2184,0.2629,0.3077,0.3524,0.3968,0.4408,0.4791,0.5289,0.5782,0.6273,0.6815,0.7568,0.8256,0.8844,0.9413,0.9873,1.0395,1.0863,1.1141,1.1405,1.1886,1.2366,1.2376,1.2348,1.2609,1.2705,1.2559,1.2517,1.2795,1.2732,1.2499,1.2851,1.3379,1.3216,1.3022,1.3114,1.3245,1.3195,1.3749,1.5126,1.6083,1.6337,-0.9309,-0.9113,-0.8995,-0.8995,-0.9099,-0.9413,-0.9465,-0.9361,-0.933,-0.9539,-0.9824,-1.0052,-1.0203,-1.034,-1.0404,-1.0436,-1.0401,-1.0364,-1.0238,-1.0238,-1.0104,-1.011,-1.0047,-0.9919,-0.9798,-0.9658,-0.9594,-0.9466,-0.9338,-0.9256,-0.9144,-0.9056,-0.8804,-0.9036,-0.9419,-0.9162,-0.8745,-0.8591,-0.8157,-0.7681,-0.7628,-0.7408,-0.7252,-0.7149,-0.6939,-0.6737,-0.6435,-0.6289,-0.6,-0.5707,-0.5428,-0.5199,-0.4963,-0.4739,-0.4463,-0.4187,-0.3968,-0.3583,-0.3193,-0.28,-0.2575,-0.2303,-0.2021,-0.1685,-0.1403,-0.1066,-0.0673,-0.0336,0.0056,0.0449,0.0841,0.1346,0.1738,0.2073,0.2519,0.2968,0.3413,0.3802,0.4242,0.4629,0.5073,0.5626,0.6173,0.6652,0.7354,0.7889,0.8474,0.8949,0.9465,0.988,1.0352,1.0616,1.0939,1.1301,1.1639,1.1907,1.2244,1.2474,1.2675,1.2742,1.2741,1.2746,1.282,1.2816,1.3252,1.3637,1.3617,1.3651,1.4083,1.426,1.3996,1.4266,1.5464,1.612,1.6392,-0.8798,-0.8639,-0.8586,-0.8521,-0.8573,-0.889,-0.9001,-0.8949,-0.8903,-0.9064,-0.918,-0.924,-0.9362,-0.9604,-0.9806,-0.982,-0.9913,-0.9818,-0.9856,-0.9786,-0.9658,-0.9594,-0.96,-0.96,-0.9402,-0.9332,-0.921,-0.9022,-0.8941,-0.8734,-0.8498,-0.8221,-0.7941,-0.8111,-0.8348,-0.8218,-0.812,-0.8,-0.761,-0.7306,-0.7198,-0.7101,-0.697,-0.6918,-0.6739,-0.6536,-0.6309,-0.6149,-0.5949,-0.563,-0.5322,-0.5072,-0.482,-0.4574,-0.4298,-0.4021,-0.3635,-0.3322,-0.3013,-0.263,-0.2416,-0.2332,-0.194,-0.163,-0.1346,-0.1066,-0.0729,-0.0393,-0.0056,0.0336,0.0785,0.1234,0.157,0.1905,0.2352,0.28,0.319,0.3633,0.4021,0.4463,0.4904,0.5458,0.6069,0.6549,0.7085,0.7568,0.8049,0.8527,0.9001,0.9472,0.9836,1.0146,1.0506,1.0913,1.1318,1.1633,1.1953,1.2344,1.2541,1.2667,1.2791,1.2775,1.2943,1.3109,1.3403,1.3708,1.4114,1.4376,1.4494,1.4564,1.4449,1.4949,1.5856,1.6156,1.6362,-0.8421,-0.8368,-0.8368,-0.8368,-0.8374,-0.8368,-0.8368,-0.8421,-0.8427,-0.8434,-0.8447,-0.8654,-0.8807,-0.8915,-0.9354,-0.9547,-0.958,-0.946,-0.9482,-0.939,-0.9274,-0.9151,-0.9087,-0.9022,-0.9017,-0.8952,-0.8818,-0.8672,-0.8661,-0.8115,-0.7709,-0.7459,-0.717,-0.719,-0.7257,-0.7286,-0.7343,-0.729,-0.7147,-0.689,-0.6815,-0.6712,-0.6653,-0.6631,-0.6483,-0.6404,-0.6195,-0.6028,-0.5789,-0.5494,-0.5147,-0.4883,-0.4643,-0.4366,-0.419,-0.3858,-0.3357,-0.3201,-0.2907,-0.2572,-0.2441,-0.2342,-0.1984,-0.1597,-0.1295,-0.1072,-0.0785,-0.0449,-0.0112,0.0224,0.0673,0.101,0.1346,0.1738,0.2186,0.2633,0.3021,0.3411,0.3855,0.4298,0.4736,0.5289,0.5896,0.644,0.682,0.7192,0.7676,0.8109,0.858,0.9054,0.9472,0.9725,1.0138,1.0557,1.0913,1.1326,1.1628,1.2017,1.2274,1.2423,1.2589,1.2822,1.2936,1.3087,1.3406,1.3752,1.414,1.443,1.4662,1.4665,1.4665,1.5035,1.5748,1.5969,1.6144,-0.8103,-0.7883,-0.7937,-0.7836,-0.7783,-0.7788,-0.7949,-0.8215,-0.8275,-0.8209,-0.8043,-0.8009,-0.816,-0.8291,-0.839,-0.8628,-0.8871,-0.8992,-0.9064,-0.9006,-0.8952,-0.8958,-0.8829,-0.8705,-0.8571,-0.8436,-0.8291,-0.8163,-0.7882,-0.7416,-0.7081,-0.6793,-0.6516,-0.6351,-0.6253,-0.6184,-0.6473,-0.6651,-0.6464,-0.6405,-0.6376,-0.6273,-0.6309,-0.6326,-0.616,-0.6041,-0.594,-0.5795,-0.5562,-0.5408,-0.4983,-0.4714,-0.4697,-0.4251,-0.3796,-0.3421,-0.3249,-0.315,-0.289,-0.2585,-0.2451,-0.2412,-0.212,-0.1726,-0.14,-0.1143,-0.0845,-0.0505,-0.028,0.0056,0.0505,0.0841,0.1234,0.1626,0.2021,0.2417,0.2807,0.3195,0.3641,0.4132,0.457,0.5124,0.5786,0.6168,0.6549,0.6874,0.7306,0.7735,0.8162,0.8685,0.9106,0.9413,0.9829,1.0241,1.0667,1.1023,1.1326,1.1678,1.1877,1.2184,1.2412,1.2608,1.2813,1.3104,1.3382,1.3752,1.414,1.4384,1.4627,1.4834,1.4869,1.5197,1.5513,1.5691,1.5881,-0.7936,-0.7773,-0.7767,-0.766,-0.7526,-0.7521,-0.7674,-0.7858,-0.7895,-0.7836,-0.7676,-0.758,-0.7601,-0.7671,-0.7751,-0.8004,-0.8364,-0.8387,-0.8474,-0.865,-0.8619,-0.8506,-0.8447,-0.8317,-0.8117,-0.7982,-0.7752,-0.7555,-0.7264,-0.6811,-0.6402,-0.6178,-0.5817,-0.5635,-0.5521,-0.5483,-0.5575,-0.5759,-0.5839,-0.5841,-0.5828,-0.5791,-0.5884,-0.5947,-0.576,-0.5663,-0.5666,-0.556,-0.5369,-0.5206,-0.483,-0.4614,-0.4487,-0.3987,-0.3577,-0.3205,-0.3108,-0.3067,-0.2887,-0.2662,-0.2579,-0.2473,-0.2269,-0.1851,-0.1562,-0.1289,-0.0859,-0.0507,-0.0337,-0.0112,0.0336,0.0729,0.1066,0.1459,0.1801,0.2201,0.2593,0.2981,0.3477,0.3965,0.4519,0.5014,0.5513,0.5896,0.6228,0.6549,0.6928,0.7413,0.7895,0.8421,0.8844,0.9159,0.9569,0.9984,1.0352,1.0718,1.1074,1.1326,1.1528,1.1828,1.2126,1.2372,1.2569,1.2958,1.3334,1.3668,1.3999,1.428,1.4477,1.4686,1.4869,1.5062,1.5198,1.5334,1.5513,-0.7937,-0.792,-0.7864,-0.7695,-0.7486,-0.7503,-0.7456,-0.7389,-0.7439,-0.7432,-0.7345,-0.7307,-0.7209,-0.7241,-0.7322,-0.7499,-0.7693,-0.7804,-0.785,-0.8109,-0.8035,-0.7906,-0.7852,-0.7777,-0.7623,-0.7502,-0.7316,-0.6985,-0.6634,-0.6204,-0.575,-0.5572,-0.5297,-0.5179,-0.5179,-0.5011,-0.5033,-0.5089,-0.5144,-0.5171,-0.5226,-0.527,-0.5325,-0.547,-0.54,-0.5323,-0.5424,-0.5239,-0.497,-0.488,-0.4652,-0.4411,-0.4065,-0.3828,-0.3424,-0.3216,-0.3071,-0.3017,-0.2849,-0.2672,-0.2608,-0.2497,-0.2296,-0.1906,-0.1539,-0.1368,-0.1042,-0.0565,-0.0337,-0.0056,0.0336,0.0673,0.101,0.1411,0.1758,0.2117,0.2479,0.2983,0.3532,0.4076,0.4532,0.503,0.5293,0.5677,0.6064,0.6332,0.6712,0.7144,0.7574,0.8109,0.8533,0.8956,0.9368,0.9725,1.0043,1.0462,1.0769,1.1015,1.1267,1.1528,1.1877,1.2126,1.2323,1.2764,1.32,1.3478,1.3763,1.4057,1.4291,1.4419,1.4605,1.48,1.4949,1.5028,1.5153,-0.8175,-0.7832,-0.7533,-0.7379,-0.7327,-0.7333,-0.7348,-0.7298,-0.7193,-0.7211,-0.7244,-0.711,-0.7012,-0.6946,-0.691,-0.7023,-0.714,-0.714,-0.7176,-0.7333,-0.7346,-0.7288,-0.7253,-0.72,-0.715,-0.6953,-0.6741,-0.6423,-0.6037,-0.5612,-0.5294,-0.5187,-0.4959,-0.4901,-0.4849,-0.468,-0.457,-0.457,-0.446,-0.457,-0.4739,-0.4816,-0.4904,-0.4907,-0.4843,-0.4865,-0.4919,-0.4835,-0.4722,-0.4641,-0.4218,-0.3851,-0.36,-0.3505,-0.337,-0.3206,-0.3013,-0.2943,-0.2799,-0.2603,-0.246,-0.2275,-0.2056,-0.1741,-0.1499,-0.1445,-0.1167,-0.0626,-0.0224,0.0,0.0336,0.0617,0.0957,0.1363,0.1718,0.209,0.2473,0.3042,0.3655,0.4119,0.4629,0.4927,0.5187,0.5513,0.59,0.6282,0.6663,0.7041,0.7365,0.7788,0.8321,0.8745,0.9211,0.9569,0.9836,1.0146,1.0506,1.0812,1.1065,1.1368,1.1628,1.1927,1.2274,1.2666,1.3055,1.3344,1.3583,1.3831,1.402,1.4197,1.4633,1.4952,1.4799,1.4769,1.4936,-0.8101,-0.7778,-0.7456,-0.7255,-0.7195,-0.7141,-0.7125,-0.703,-0.6984,-0.6969,-0.6993,-0.6878,-0.674,-0.6611,-0.6458,-0.6495,-0.6582,-0.6535,-0.6646,-0.6741,-0.6745,-0.6682,-0.6644,-0.6585,-0.6408,-0.622,-0.5994,-0.5723,-0.5362,-0.5057,-0.4802,-0.4739,-0.457,-0.4515,-0.4519,-0.4353,-0.4242,-0.4187,-0.3965,-0.4021,-0.4242,-0.4258,-0.4376,-0.4394,-0.4308,-0.4381,-0.4336,-0.4257,-0.4235,-0.4177,-0.3918,-0.3729,-0.3513,-0.3399,-0.3258,-0.3094,-0.2955,-0.2832,-0.2599,-0.2377,-0.2218,-0.2018,-0.1748,-0.1439,-0.1211,-0.1107,-0.0942,-0.0459,-0.0225,0.0056,0.0336,0.0673,0.1025,0.1384,0.1745,0.2118,0.2747,0.3428,0.3851,0.4128,0.4568,0.486,0.5179,0.5517,0.5845,0.6009,0.6445,0.6879,0.7203,0.7526,0.8055,0.848,0.8949,0.9361,0.9673,0.9991,1.0308,1.0608,1.0913,1.1217,1.1569,1.1868,1.2215,1.2569,1.292,1.3152,1.3402,1.3641,1.3821,1.3952,1.4556,1.5141,1.49,1.4731,1.5081,-0.7966,-0.7811,-0.7471,-0.7172,-0.7026,-0.6969,-0.6874,-0.6741,-0.6691,-0.6711,-0.6595,-0.6511,-0.6271,-0.6141,-0.6019,-0.6015,-0.5993,-0.5945,-0.608,-0.6099,-0.6117,-0.6079,-0.598,-0.5832,-0.5707,-0.5512,-0.5221,-0.5053,-0.4855,-0.4577,-0.4353,-0.419,-0.4079,-0.3965,-0.3965,-0.391,-0.3855,-0.3799,-0.3633,-0.3519,-0.3633,-0.3691,-0.3866,-0.3869,-0.3823,-0.3756,-0.377,-0.3744,-0.3661,-0.3629,-0.3626,-0.3461,-0.3361,-0.3187,-0.3036,-0.2856,-0.2766,-0.2538,-0.2355,-0.2125,-0.1944,-0.1748,-0.1412,-0.1128,-0.0969,-0.0748,-0.0538,-0.029,-0.0057,0.0168,0.0449,0.0737,0.1096,0.1528,0.1898,0.2352,0.3066,0.3776,0.4002,0.4274,0.4572,0.4856,0.5136,0.547,0.5749,0.5909,0.6232,0.6657,0.7085,0.7413,0.7842,0.8268,0.8685,0.9047,0.9465,0.9777,1.0095,1.0411,1.0718,1.1124,1.1469,1.1769,1.2076,1.2431,1.2725,1.3008,1.3258,1.3478,1.3621,1.382,1.4495,1.5112,1.5079,1.4999,1.545,-0.8122,-0.7743,-0.7527,-0.7274,-0.6936,-0.6927,-0.6734,-0.6506,-0.6363,-0.6318,-0.6248,-0.6098,-0.6022,-0.6084,-0.5776,-0.5686,-0.5636,-0.549,-0.5322,-0.5334,-0.5448,-0.5401,-0.5376,-0.5242,-0.5065,-0.4793,-0.4569,-0.4369,-0.4266,-0.4163,-0.4076,-0.3968,-0.3852,-0.3796,-0.3741,-0.3688,-0.3469,-0.3411,-0.3299,-0.313,-0.313,-0.3244,-0.336,-0.3357,-0.3364,-0.3413,-0.3466,-0.3437,-0.3463,-0.3456,-0.3276,-0.3193,-0.3045,-0.296,-0.275,-0.2608,-0.2444,-0.2249,-0.1999,-0.1673,-0.148,-0.1278,-0.1006,-0.0733,-0.0518,-0.0251,-0.0061,0.0177,0.0403,0.045,0.0732,0.098,0.1351,0.1925,0.238,0.2908,0.3568,0.3961,0.4252,0.4451,0.4748,0.4916,0.5023,0.5417,0.5814,0.6036,0.6428,0.6809,0.7054,0.7383,0.7722,0.8092,0.8479,0.8791,0.9211,0.9517,0.9829,1.0205,1.0569,1.1131,1.143,1.1586,1.1886,1.2466,1.265,1.285,1.3096,1.3409,1.3618,1.3909,1.4522,1.5018,1.5039,1.5279,1.5712]},{"header":{"parameterUnit":"m.s-1","parameterCategory":1,"la1":31.0,"la2":29.5877,"lo1":-88.7671,"lo2":-86.6584,"dy":0.0162,"dx":0.0185,"nx":115,"ny":88,"refTime":"2024-03-11T06:00:00:Z","depth":0,"parameterNumber":3,"parameterNumberName":"V-component_of_WINDS"},"data":[0.0,0.0,0.0,0.0,0.0,0.0,0.0,0.0,0.0,0.0,0.0,0.0,0.0,0.0,0.0,0.0,0.0,0.0,0.0,0.0,0.0,0.0,0.0,0.0,0.0,0.0,0.0,0.0,0.0,0.0,0.0,0.0,0.0,0.0,0.0,0.0,0.0,0.0,0.0,0.0,0.0,0.0,0.0,0.0,0.0,0.0,0.0,0.0,0.0,0.0,0.0,0.0,0.0,0.0,0.0,0.0,0.0,0.0,0.0,0.0,0.0,0.0,0.0,0.0,0.0,0.0,0.0,0.0,0.0,0.0,0.0,0.0,0.0,0.0,0.0,0.0,0.0,0.0,0.0,0.0,0.0,0.0,0.0,0.0,0.0,0.0,0.0,0.0,0.0,0.0,0.0,0.0,0.0,0.0,0.0,0.0,0.0,0.0,0.0,0.0,0.0,0.0,0.0,0.0,0.0,0.0,0.0,0.0,0.0,0.0,0.0,0.0,0.0,0.0,0.0,0.0,0.0,0.0,0.0,0.0,0.0,0.0,0.0,0.0,0.0,0.0,0.0,0.0,0.0,0.0,0.0,0.0,0.0,0.0,0.0,0.0,0.0,0.0,0.0,0.0,0.0,0.0,0.0,0.0,0.0,0.0,0.0,0.0,0.0,0.0,0.0,0.0,0.0,0.0,0.0,0.0,0.0,0.0,0.0,0.0,0.0,0.0,0.0,0.0,0.0,0.0,0.0,0.0,0.0,0.0,0.0,0.0,0.0,0.0,0.0,0.0,0.0,0.0,0.0,0.0,0.0,0.0,0.0,0.0,0.0,0.0,0.0,0.0,0.0,0.0,0.0,0.0,0.0,0.0,0.0,0.0,0.0,0.0,0.0,0.0,0.0,0.0,0.0,0.0,0.0,0.0,0.0,0.0,0.0,0.0,0.0,0.0,0.0,0.0,0.0,0.0,0.0,0.0,0.0,0.0,0.0,0.0,0.0,0.0,0.0,0.0,0.0,0.0,0.0,0.0,0.0,0.0,0.0,0.0,0.0,0.0,0.0,0.0,0.0,0.0,0.0,0.0,0.0,0.0,0.0,0.0,0.0,0.0,0.0,0.0,0.0,0.0,0.0,0.0,0.0,0.0,0.0,0.0,0.0,0.0,0.0,0.0,0.0,0.0,0.0,0.0,0.0,0.0,0.0,0.0,0.0,0.0,0.0,0.0,0.0,0.0,0.0,0.0,0.0,0.0,0.0,0.0,0.0,0.0,0.0,0.0,0.0,0.0,0.0,0.0,0.0,0.0,0.0,0.0,0.0,0.0,0.0,0.0,0.0,0.0,0.0,0.0,0.0,0.0,0.0,0.0,0.0,0.0,0.0,0.0,0.0,0.0,0.0,0.0,0.0,0.0,0.0,0.0,0.0,0.0,0.0,0.0,0.0,0.0,0.0,0.0,0.0,0.0,0.0,0.0,0.0,0.0,0.0,0.0,0.0,0.0,0.0,0.0,0.0,0.0,0.0,0.0,0.0,0.0,0.0,0.0,0.0,0.0,0.0,0.0,0.0,0.0,0.0,0.0,0.0,0.0,0.0,0.0,0.0,0.0,0.0,0.0,0.0,0.0,0.0,0.0,0.0,0.0,0.0,0.0,0.0,0.0,0.0,0.0,0.0,0.0,0.0,0.0,0.0,0.0,0.0,0.0,0.0,0.0,0.0,0.0,0.0,0.0,0.0,0.0,0.0,0.0,0.0,0.0,0.0,0.0,0.0,0.0,0.0,0.0,0.0,0.0,0.0,0.0,0.0,0.0,0.0,0.0,0.0,0.0,0.0,0.0,0.0,0.0,0.0,0.0,0.0,0.0,0.0,0.0,0.0,0.0,0.0,0.0,0.0,0.0,0.0,0.0,0.0,0.0,0.0,0.0,0.0,0.0,0.0,0.0,0.0,0.0,0.0,0.0,0.0,0.0,0.0,0.0,0.0,0.0,0.0,0.0,0.0,0.0,0.0,0.0,0.0,0.0,0.0,0.0,0.0,0.0,0.0,0.0,0.0,0.0,0.0,0.0,0.0,0.0,0.0,0.0,0.0,0.0,0.0,0.0,0.0,0.0,0.0,0.0,0.0,0.0,0.0,0.0,0.0,0.0,0.0,0.0,0.0,0.0,0.0,0.0,0.0,0.0,0.0,0.0,0.0,0.0,0.0,0.0,0.0,0.0,0.0,0.0,0.0,0.0,0.0,0.0,0.0,0.0,0.0,0.0,0.0,0.0,0.0,0.0,0.0,0.0,0.0,0.0,0.0,0.0,0.0,0.0,0.0,0.0,0.0,0.0,0.0,0.0,0.0,0.0,0.0,0.0,0.0,0.0,0.0,0.0,0.0,0.0,0.0,0.0,0.0,0.0,0.0,0.0,0.0,0.0,0.0,0.0,0.0,0.0,0.0,0.0,0.0,0.0,0.0,0.0,0.0,0.0,0.0,0.0,0.0,0.0,0.0,0.0,0.0,0.0,0.0,0.0,0.0,0.0,0.0,0.0,0.0,0.0,0.0,0.0,0.0,0.0,0.0,0.0,0.0,0.0,0.0,0.0,0.0,0.0,0.0,0.0,0.0,0.0,0.0,0.0,0.0,0.0,0.0,0.0,0.0,0.0,0.0,0.0,0.0,0.0,0.0,0.0,0.0,0.0,0.0,0.0,0.0,0.0,0.0,0.0,0.0,0.0,0.0,0.0,0.0,0.0,0.0,0.0,0.0,0.0,0.0,0.0,0.0,0.0,0.0,0.0,0.0,0.0,0.0,0.0,0.0,0.0,0.0,0.0,0.0,0.0,0.0,0.0,0.0,0.0,0.0,0.0,0.0,0.0,0.0,0.0,0.0,0.0,0.0,0.0,0.0,0.0,0.0,0.0,0.0,0.0,0.0,0.0,0.0,0.0,0.0,0.0,0.0,0.0,0.0,0.0,0.0,0.0,0.0,0.0,0.0,0.0,0.0,0.0,0.0,0.0,0.0,0.0,0.0,0.0,0.0,0.0,0.0,0.0,0.0,0.0,0.0,0.0,0.0,0.0,0.0,0.0,0.0,0.0,0.0,0.0,0.0,0.0,0.0,0.0,0.0,0.0,0.0,0.0,0.0,0.0,0.0,0.0,0.0,0.0,0.0,0.0,0.0,0.0,0.0,0.0,0.0,0.0,0.0,0.0,0.0,0.0,0.0,0.0,0.0,0.0,0.0,0.0,0.0,0.0,0.0,0.0,0.0,0.0,0.0,0.0,0.0,0.0,0.0,0.0,0.0,0.0,0.0,0.0,0.0,0.0,0.0,0.0,0.0,0.0,0.0,0.0,0.0,0.0,0.0,0.0,0.0,0.0,0.0,0.0,0.0,0.0,0.0,0.0,0.0,0.0,0.0,0.0,0.0,0.0,0.0,0.0,0.0,0.0,0.0,0.0,0.0,0.0,0.0,0.0,0.0,0.0,0.0,0.0,0.0,0.0,0.0,0.0,0.0,0.0,0.0,0.0,0.0,0.0,0.0,0.0,0.0,0.0,0.0,0.0,0.0,0.0,0.0,0.0,0.0,0.0,0.0,0.0,0.0,0.0,0.0,0.0,0.0,0.0,0.0,0.0,0.0,0.0,0.0,0.0,0.0,0.0,0.0,0.0,0.0,0.0,0.0,0.0,0.0,0.0,0.0,0.0,0.0,0.0,0.0,0.0,0.0,0.0,0.0,0.0,0.0,0.0,0.0,0.0,0.0,0.0,0.0,0.0,0.0,0.0,0.0,0.0,0.0,0.0,0.0,0.0,0.0,0.0,0.0,0.0,0.0,0.0,0.0,0.0,0.0,0.0,0.0,0.0,0.0,0.0,0.0,0.0,0.0,0.0,0.0,0.0,0.0,0.0,0.0,0.0,0.0,0.0,0.0,0.0,0.0,0.0,0.0,0.0,0.0,0.0,0.0,0.0,0.0,0.0,0.0,0.0,0.0,0.0,0.0,0.0,0.0,0.0,0.0,0.0,0.0,0.0,0.0,0.0,0.0,0.0,0.0,0.0,0.0,0.0,0.0,0.0,0.0,0.0,0.0,0.0,0.0,0.0,0.0,0.0,0.0,0.0,0.0,0.0,0.0,0.0,0.0,0.0,0.0,0.0,0.0,0.0,0.0,0.0,0.0,0.0,0.0,0.0,0.0,0.0,0.0,0.0,0.0,0.0,0.0,0.0,0.0,0.0,0.0,0.0,0.0,0.0,0.0,0.0,0.0,0.0,0.0,0.0,0.0,0.0,0.0,0.0,0.4465,0.0,0.0,0.0,0.0,0.0,0.0,0.0,0.0,0.0,0.0,0.0,0.0,0.0,0.0,0.0,0.0,0.0,0.0,0.0,0.0,0.0,0.0,0.0,0.0,0.0,0.0,0.0,0.0,0.0,0.0,0.0,0.0,0.0,0.0,0.0,0.0,0.0,0.0,0.0,0.0,0.0,0.0,0.0,0.0,0.0,0.0,0.0,0.0,0.0,0.0,0.0,0.0,0.0,0.0,0.0,0.0,0.0,0.0,0.0,0.0,0.0,0.0,0.0,0.0,0.0,0.0,0.0,0.0,0.0,0.0,0.0,0.0,0.0,0.0,0.0,0.0,0.0,0.0,0.0,0.0,0.0,0.0,0.0,0.0,0.0,0.0,0.0,0.0,0.0,0.0,0.0,0.0,0.0,0.0,0.0,0.0,0.0,0.0,0.0,0.0,0.0,0.0,0.0,0.0,0.0,0.0,0.0,0.0,0.0,0.0,0.0333,0.1334,0.2368,0.343,0.4485,0.0,0.0,0.0,0.0,0.0,0.0,0.0,0.0,0.0,0.0,0.0,0.0,0.0,0.0,0.0,0.0,0.0,0.0,0.0,0.0,0.0,0.0,0.0,0.0,0.0,0.0,0.0,0.0,0.0,0.0,0.0,0.0,0.0,0.0,0.0,0.0,0.0,0.0,0.0,0.0,0.0,0.0,0.0,0.0,0.0,0.0,0.0,0.0,0.0,0.0,0.0,0.0,0.0,0.0,0.0,0.0,0.0,0.0,0.0,0.0,0.0,0.0,0.0,0.0,0.0,0.0,0.0,0.0,0.0,0.0,0.0,0.0,0.0,0.0,0.0,0.0,0.0,0.0,0.0,0.0,0.0,0.0,0.0,0.0,0.0,0.0,0.0,0.0,0.0,0.0,0.0,0.0,0.0,0.0,0.0,0.0,0.0,0.0,0.0,0.0,0.0,0.0,0.0,0.0,0.0,0.0,0.0,0.0,0.0,0.0,0.0,0.0,0.1911,0.2937,0.4163,0.0,0.0,0.0,0.0,0.0,0.0,0.0,0.0,0.0,0.0,0.0,0.0,0.0,0.0,0.0,0.0,0.0,0.0,0.0,0.0,0.0,0.0,0.0,0.0,0.0,0.0,0.0,0.0,0.0,0.0,0.0,0.0,0.0,0.0,0.0,0.0,0.0,0.0,0.0,0.0,0.0,0.0,0.0,0.0,0.0,0.0,0.0,0.0,0.0,0.0,0.0,0.0,0.0,0.0,0.0,0.0,0.0,0.0,0.0,0.0,0.0,0.0,0.0,0.0,0.0,0.0,0.0,0.0,0.0,0.0,0.0,0.0,0.0,0.0,0.0,0.0,0.0,0.0,0.0,0.0,0.0,0.0,0.0,0.0,0.0,0.0,0.0,0.0,0.0,0.0,0.0,0.0,0.0,0.0,0.0,0.0,0.0,0.0,0.0,0.0,0.0,0.0,0.0,0.0,0.0,0.0,0.0,0.0,0.0,0.0,-0.0777,0.0269,0.032,0.0,0.3025,0.0,0.0,0.0,0.0,0.0,0.0,0.0,0.0,0.0,0.0,0.0,0.0,0.0,0.0,0.0,0.0,0.0,0.0,0.0,0.0,0.0,0.0,0.0,0.0,0.0,0.0,0.0,0.0,0.0,0.0,0.0,0.0,0.0,0.0,0.0,0.0,0.0,0.0,0.0,0.0,0.0,0.0,0.0,0.0,0.0,0.0,0.0,0.0,0.0,0.0,0.0,0.0,0.0,0.0,0.0,0.0,0.0,0.0,0.0,0.0,0.0,0.0,0.0,0.0,0.0,0.0,0.0,0.0,0.0,0.0,0.0,0.0,0.0,0.0,0.0,0.0,0.0,0.0,0.0,0.0,0.0,0.0,0.0,0.0,0.0,0.0,0.0,0.0,0.0,0.0,0.0,0.0,0.0,0.0,0.0,0.0,0.0,0.0,0.0,0.0,0.0,0.0,0.0,0.0,0.0,0.0,0.0,0.0,0.0,0.0,-0.0653,0.041,0.1462,0.2376,0.0,0.0,0.0,0.0,0.0,0.0,0.0,0.0,0.0,0.0,0.0,0.0,0.0,0.0,0.0,0.0,0.0,0.0,0.0,0.0,0.0,0.0,0.0,0.0,0.0,0.0,0.0,0.0,0.0,0.0,0.0,0.0,0.0,0.0,0.0,0.0,0.0,0.0,0.0,0.0,0.0,0.0,0.0,0.0,0.0,0.0,0.0,0.0,0.0,0.0,0.0,0.0,0.0,0.0,0.0,0.0,0.0,0.0,0.0,0.0,0.0,0.0,0.0,0.0,0.0,0.0,0.0,0.0,0.0,0.0,0.0,0.0,0.0,0.0,0.0,0.0,0.0,0.0,0.0,0.0,0.0,0.0,0.0,0.0,0.0,0.0,0.0,0.0,0.0,0.0,0.0,0.0,0.0,0.0,0.0,0.0,0.0,0.0,0.0,0.0,0.0,0.0,0.0,0.0,0.0,0.0,0.0,0.0,0.0,0.0,-0.0937,-0.058,0.0233,0.2152,0.3101,0.2884,0.0,0.0,0.0,0.0,0.0,0.0,0.0,0.0,0.0,0.0,0.0,0.0,0.0,0.0,0.0,0.0,0.0,0.0,0.0,0.0,0.0,0.0,0.0,0.0,0.0,0.0,0.0,0.0,0.0,0.0,0.0,0.0,0.0,0.0,0.0,0.0,0.0,0.0,0.0,0.0,0.0,0.0,0.0,0.0,0.0,0.0,0.0,0.0,0.0,0.0,0.0,0.0,0.0,0.0,0.0,0.0,0.0,0.0,0.0,0.0,0.0,0.0,0.0,0.0,0.0,0.0,0.0,0.0,0.0,0.0,0.0,0.0,0.0,0.0,0.0,0.0,0.0,0.0,0.0,0.0,0.0,0.0,0.0,0.0,0.0,0.0,0.0,0.0,0.0,0.0,0.0,0.0,0.0,0.0,0.0,0.0,0.0,0.0,0.0,0.0,0.0,0.0,0.0,0.0,0.0,0.0,0.0,0.0,-0.0813,-0.0806,-0.0807,-0.0756,0.1489,0.2435,0.0,0.0,0.0,0.0,0.0,0.0,0.0,0.0,0.0,0.0,0.0,0.0,0.0,0.0,0.0,0.0,0.0,0.0,0.0,0.0,0.0,0.0,0.0,0.0,0.0,0.0,0.0,0.0,0.0,0.0,0.0,0.0,0.0,0.0,0.0,0.0,0.0,0.0,0.0,0.0,0.0,0.0,0.0,0.0,0.0,0.0,0.0,0.0,0.0,0.0,0.0,0.0,0.0,0.0,0.0,0.0,0.0,0.0,0.0,0.0,0.0,0.0,0.0,0.0,0.0,0.0,0.0,0.0,0.0,0.0,0.0,0.0,0.0,0.0,0.0,0.0,0.0,0.0,0.0,0.0,0.0,0.0,0.0,0.0,0.0,0.0,0.0,0.0,0.0,0.0,0.0,0.0,0.0,0.0,0.0,0.0,0.0,0.0,0.0,0.0,0.0,0.0,0.0,0.0,0.0,0.0,0.0,0.0,0.0,-0.0811,-0.0639,-0.0532,-0.0447,0.195,0.3664,0.0,0.0,0.0,0.0,0.0,0.0,0.0,0.0,0.0,0.0,0.0,0.0,0.0,0.0,0.0,0.0,0.0,0.0,0.0,0.0,0.0,0.0,0.0,0.0,0.0,0.0,0.0,0.0,0.0,0.0,0.0,0.0,0.0,0.0,0.0,0.0,0.0,0.0,0.0,0.0,0.0,0.0,0.0,0.0,0.0,0.0,0.0,0.0,0.0,0.0,0.0,0.0,0.0,0.0,0.0,0.0,0.0,0.0,0.0,0.0,0.0,0.0,0.0,0.0,0.0,0.0,0.0,0.0,0.0,0.0,0.0,0.0,0.0,0.0,0.0,0.0,0.0,0.0,0.0,0.0,0.0,0.0,0.0,0.0,0.0,0.0,0.0,0.0,0.0,0.0,0.0,0.0,0.0,0.0,0.0,0.0,0.0,0.0,0.0,0.0,0.0,0.0,0.0,0.0,0.0,0.0,0.0,0.0,0.0,-0.0679,0.0,0.0054,0.0219,0.3032,0.487,0.0,0.0,0.0,0.0,0.0,0.0,0.0,0.0,0.0,0.0,0.0,0.0,0.0,0.0,0.0,0.0,0.0,0.0,0.0,0.0,0.0,0.0,0.0,0.0,0.0,0.0,0.0,0.0,0.0,0.0,0.0,0.0,0.0,0.0,0.0,0.0,0.0,0.0,0.0,0.0,0.0,0.0,0.0,0.0,0.0,0.0,0.0,0.0,0.0,0.0,0.0,0.0,0.0,0.0,0.0,0.0,0.0,0.0,0.0,0.0,0.0,0.0,0.0,0.0,0.0,0.0,0.0,0.0,0.0,0.0,0.0,0.0,0.0,0.0,0.0,0.0,0.0,0.0,0.0,0.0,0.0,0.0,0.0,0.0,0.0,0.0,0.0,0.0,0.0,0.0,0.0,0.0,0.0,0.0,0.0,0.0,0.0,0.0,0.0,0.0,0.0,0.0,0.0,0.0,0.0,0.0,0.0,0.0,-0.1131,-0.0406,0.0449,0.0933,0.1108,0.4627,0.5873,0.0,0.0,0.0,0.0,0.0,0.0,0.0,0.0,0.0,0.0,0.0,0.0,0.0,0.0,0.0,0.0,0.0,0.0,0.0,0.0,0.0,0.0,0.0,0.0,0.0,0.0,0.0,0.0,0.0,0.0,0.0,0.0,0.0,0.0,0.0,0.0,0.0,0.0,0.0,0.0,0.0,0.0,0.0,0.0,0.0,0.0,0.0,0.0,0.0,0.0,0.0,0.0,0.0,0.0,0.0,0.0,0.0,0.0,0.0,0.0,0.0,0.0,0.0,0.0,0.0,0.0,0.0,0.0,0.0,0.0,0.0,0.0,0.0,0.0,0.0,0.0,0.0,0.0,0.0,0.0,0.0,0.0,0.0,0.0,0.0,0.0,0.0,0.0,0.0,0.0,0.0,0.0,0.0,0.0,0.0,0.0,0.0,0.0,0.0,0.0,0.0,0.0,0.0,0.0,0.0,0.0,0.0,0.0,0.0,0.014,0.0993,0.1763,0.2443,0.4911,0.6409,0.0,0.0,0.0,0.0,0.0,0.0,0.0,0.0,0.0,0.0,0.0,0.0,0.0,0.0,0.0,0.0,0.0,0.0,0.0,0.0,0.0,0.0,0.0,0.0,0.0,0.0,0.0,0.0,0.0,0.0,0.0,0.0,0.0,0.0,0.0,0.0,0.0,0.0,0.0,0.0,0.0,0.0,0.0,0.0,0.0,0.0,0.0,0.0,0.0,0.0,0.0,0.0,0.0,0.0,0.0,0.0,0.0,0.0,0.0,0.0,0.0,0.0,0.0,0.0,0.0,0.0,0.0,0.0,0.0,0.0,0.0,0.0,0.0,0.0,0.0,0.0,0.0,0.0,0.0,0.0,0.0,0.0,0.0,0.0,0.0,0.0,0.0,0.0,0.0,0.0,0.0,0.0,0.0,0.0,0.0,0.0,0.0,0.0,0.0,0.0,0.0,0.0,0.0,0.0,0.0,0.0,0.0,0.0,0.0,0.1182,0.2165,0.3072,0.3851,0.5573,0.686,0.7608,0.0,0.0,0.0,0.0,0.0,0.0,0.0,0.0,0.0,0.0,0.0,0.0,0.0,0.0,0.0,0.0,0.0,0.0,0.0,0.0,0.0,0.0,0.0,0.0,0.0,0.0,0.0,0.0,0.0,0.0,0.0,0.0,0.0,0.0,0.0,0.0,0.0,0.0,0.0,0.0,0.0,0.0,0.0,0.0,0.0,0.0,0.0,0.0,0.0,0.0,0.0,0.0,0.0,0.0,0.0,0.0,0.0,0.0,0.0,0.0,0.0,0.0,0.0,0.0,0.0,0.0,0.0,0.0,0.0,0.0,0.0,0.0,0.0,0.0,0.0,0.0,0.0,0.0,0.0,0.0,0.0,0.0,0.0,0.0,0.0,0.0,0.0,0.0,0.0,0.0,0.0,0.0,0.0,0.0,0.0,0.0,0.0,0.0,0.0,0.0,0.0,0.0,0.0,0.0,0.0,0.0,0.0,0.0,0.2515,0.3924,0.4947,0.5485,0.6731,0.7328,0.0,0.0,0.0,0.0,0.0,0.0,0.0,0.0,0.0,0.0,0.0,0.0,0.0,0.0,0.0,0.0,0.0,0.0,0.0,0.0,0.0,0.0,0.0,0.0,0.0,0.0,0.0,0.0,0.0,0.0,0.0,0.0,0.0,0.0,0.0,0.0,0.0,0.0,0.0,0.0,0.0,0.0,0.0,0.0,0.0,0.0,0.0,0.0,0.0,0.0,0.0,0.0,0.0,0.0,0.0,0.0,0.0,0.0,0.0,0.0,0.0,0.0,0.0,0.0,0.0,0.0,0.0,0.0,0.0,0.0,0.0,0.0,0.0,0.0,0.0,0.0,0.0,0.0,0.0,0.0,0.0,0.0,0.0,0.0,0.0,0.0,0.0,0.0,0.0,0.0,0.0,0.0,0.0,0.0,0.0,0.0,0.0,0.0,0.0,0.0,0.0,0.0,0.0,0.0,0.0,0.0,0.0,0.0,0.0,0.2895,0.6104,0.7828,0.7699,0.8748,0.9136,0.0,0.0,0.0,0.0,0.0,0.0,0.0,0.0,0.0,0.0,0.0,0.0,0.0,0.0,0.0,0.0,0.0,0.0,0.0,0.0,0.0,0.0,0.0,0.0,0.0,0.0,0.0,0.0,0.0,0.0,0.0,0.0,0.0,0.0,0.0,0.0,0.0,0.0,0.0,0.0,0.0,0.0,0.0,0.0,0.0,0.0,0.0,0.0,0.0,0.0,0.0,0.0,0.0,0.0,0.0,0.0,0.0,0.0,0.0,0.0,0.0,0.0,0.0,0.0,0.0,0.0,0.0,0.0,0.0,0.0,0.0,0.0,0.0,0.0,0.0,0.0,0.0,0.0,0.0,0.0,0.0,0.0,0.0,0.0,0.0,0.0,0.0,0.0,0.0,0.0,0.0,0.0,0.0,0.0,0.0,0.0,0.0,0.0,0.0,0.0,0.0,0.0,0.0,0.0,0.0,0.0,0.0,0.0,0.314,0.326,0.8015,1.0491,1.0316,1.0584,1.0329,0.0,0.0,0.0,0.0,0.0,0.0,0.0,0.0,0.0,0.0,0.0,0.0,0.0,0.0,0.0,0.0,0.0,0.0,0.0,0.0,0.0,0.0,0.0,0.0,0.0,0.0,0.0,0.0,0.0,0.0,0.0,0.0,0.0,0.0,0.0,0.0,0.0,0.0,0.0,0.0,0.0,0.0,0.0,0.0,0.0,0.0,0.0,0.0,0.0,0.0,0.0,0.0,0.0,0.0,0.0,0.0,0.0,0.0,0.0,0.0,0.0,0.0,0.0,0.0,0.0,0.0,0.0,0.0,0.0,0.0,0.0,0.0,0.0,0.0,0.0,0.0,0.0,0.0,0.0,0.0,0.0,0.0,0.0,0.0,0.0,0.0,0.0,0.0,0.0,0.0,0.0,0.0,0.0,0.0,0.0,0.0,0.0,0.0,0.0,0.0,0.0,0.0,0.0,0.0,0.0,0.0,0.0,0.0,0.4403,0.3737,0.9508,1.2681,1.2838,1.2173,1.1267,0.0,0.0,0.0,0.0,0.0,0.0,0.0,0.0,0.0,0.0,0.0,0.0,0.0,0.0,0.0,0.0,0.0,0.0,0.0,0.0,0.0,0.0,0.0,0.0,0.0,0.0,0.0,0.0,0.0,0.0,0.0,0.0,0.0,0.0,0.0,0.0,0.0,0.0,0.0,0.0,0.0,0.0,0.0,0.0,0.0,0.0,0.0,0.0,0.0,0.0,0.0,0.0,0.0,0.0,0.0,0.0,0.0,0.0,0.0,0.0,0.0,0.0,0.0,0.0,0.0,0.0,0.0,0.0,0.0,0.0,0.0,0.0,0.0,0.0,0.0,0.0,0.0,0.0,0.0,0.0,0.0,0.0,0.0,0.0,0.0,0.0,0.0,0.0,0.0,0.0,0.0,0.0,0.0,0.0,0.0,0.0,0.0,0.0,0.0,0.0,0.0,0.0,0.0,0.0,0.0,0.0,0.0,0.0,0.4352,0.4044,0.9598,1.2819,1.3267,1.3261,1.2828,0.0,0.0,0.0,0.0,0.0,0.0,0.0,0.0,0.0,0.0,0.0,0.0,0.0,0.0,0.0,0.0,0.0,0.0,0.0,0.0,0.0,0.0,0.0,0.0,0.0,0.0,0.0,0.0,0.0,0.0,0.0,0.0,0.0,0.0,0.0,0.0,0.0,0.0,0.0,0.0,0.0,0.0,0.0,0.0,0.0,0.0,0.0,0.0,0.5642,0.0,0.0,0.0,0.0,0.0,0.0,0.0,0.0,0.0,0.0,0.0,0.0,0.0,0.0,0.0,0.0,0.0,0.0,0.0,0.0,0.0,0.0,0.0,0.0,0.0,0.0,0.0,0.0,0.0,0.0,0.0,0.0,0.0,0.0,0.0,0.0,0.0,0.0,0.0,0.0,0.0,0.0,0.0,0.0,0.0,0.0,0.0,0.0,0.0,0.0,0.0,0.0,0.0,0.0,0.0,0.0,0.0,0.0,0.0,0.4495,0.4792,0.9828,1.2908,1.3623,1.4386,1.4131,0.0,0.0,0.0,0.0,0.0,0.0,0.0,0.0,0.0,0.0,0.0,0.0,0.0,0.0,0.0,0.0,0.0,0.0,0.0,0.0,0.0,0.0,0.0,0.0,0.0,0.0,0.0,0.0,0.0,0.0,0.0,0.0,0.0,0.0,0.0,0.0,0.0,0.0,0.0,0.0,0.0,0.0,0.0,0.0,0.0,0.0,0.0,0.0,0.0,0.0,0.0,0.0,0.0,0.0,0.0,0.0,0.0,0.0,0.0,0.0,0.0,0.0,0.0,0.0,0.0,0.0,0.0,0.0,0.0,0.0,0.0,0.0,0.0,0.0,0.0,0.0,0.0,0.0,0.0,0.0,0.0,0.0,0.0,0.0,0.0,0.0,0.0,0.0,0.0,0.0,0.0,0.0,0.0,0.0,0.0,0.0,0.0,0.0,0.0,0.0,0.0,0.0,0.0,0.0,0.0,0.0,0.0,0.2344,0.4762,0.5762,1.0259,1.3088,1.3941,1.5306,1.5185,1.3395,0.0,0.0,0.0,0.0,0.0,0.0,0.0,0.0,0.0,0.0,0.0,0.0,0.0,0.0,0.0,0.0,0.0,0.0,0.0,0.0,0.0,0.0,0.0,0.0,0.0,0.0,0.0,0.0,0.0,0.0,0.0,0.0,0.0,0.0,0.0,0.0,0.0,0.0,0.388,0.4538,0.0,0.0,0.0,0.0,0.0,0.0,0.0,0.0,0.7978,0.0,0.0,0.0,0.0,0.0,0.0,0.0,0.0,0.0,0.0,0.0,0.0,0.0,0.0,0.0,0.0,0.0,0.0,0.0,0.0,0.0,0.0,0.0,0.0,0.0,0.0,0.0,0.0,0.0,0.0,0.0,0.0,0.0,0.0,0.0,0.0,0.0,0.0,0.0,0.0,0.0,0.0,0.0,0.0,0.0,0.0,0.0,0.0,0.0,0.0,0.0,0.0,0.0,0.0,0.0,0.0,-0.0576,0.2731,0.521,0.6765,1.1223,1.3775,1.4173,1.545,1.5602,1.4396,0.0,0.0,0.0,0.0,0.0,0.0,0.0,0.0,0.0,0.0,0.0,0.0,0.0,0.0,0.0,0.0,0.0,0.0,0.0,0.0,0.0,0.0,0.0,0.0,0.0,0.0,0.0,0.0,0.0,0.0,0.0,0.0,0.0,0.0,0.0,0.0,0.0,0.0,0.0,0.5041,0.5359,0.0,0.0,0.0,0.0,0.0,0.0,0.0,0.0,0.8738,0.0,0.0,0.0,0.0,0.0,0.0,0.0,0.0,0.0,0.0,0.0,0.0,0.0,0.0,0.0,0.0,0.0,0.0,0.0,0.0,0.0,0.0,0.0,0.0,0.0,0.0,0.0,0.0,0.0,0.0,0.0,0.0,0.0,0.0,0.0,0.0,0.0,0.0,0.0,0.0,0.0,0.0,0.0,0.0,0.0,0.0,0.0,0.0,0.0,0.0,0.0,0.0,0.0,0.0,0.0,0.0603,0.324,0.5718,0.7962,1.1796,1.4014,1.4367,1.6007,1.613,0.0,0.0,0.0,0.0,0.0,0.0,0.0,0.0,0.0,0.0,0.0,0.0,0.0,0.0,0.0,0.0,0.0,0.0,0.0,0.0,0.0,0.0,0.0,0.0,0.0,0.0,0.0,0.0,0.0,0.0,0.0,0.0,0.0,0.0,0.0,0.0,0.0,0.0,0.0,0.0,0.5136,0.5638,0.6052,0.0,0.0,0.0,0.0,0.0,0.0,0.951,0.9643,0.0,0.0,0.0,0.0,0.0,0.0,0.0,0.0,0.0,0.0,0.0,0.0,0.0,0.0,0.0,0.0,0.0,0.0,0.0,0.0,0.0,0.0,0.0,0.0,0.0,0.0,0.0,0.0,0.0,0.0,0.0,0.0,0.0,0.0,0.0,0.0,0.0,0.0,0.0,0.0,0.0,0.0,0.0,0.0,0.0,0.0,0.0,0.0,0.0,0.0,0.0,0.0,0.0,0.0,0.0,0.1615,0.3866,0.6429,0.926,1.2555,1.4517,1.5051,1.6762,1.6753,0.0,0.0,0.0,0.0,0.0,0.0,0.0,0.0,0.0,0.0,0.0,0.0,0.0,0.0,0.0,0.0,0.0,0.0,0.0,0.0,0.0,0.0,0.0,0.0,0.0,0.0,0.0,0.0,0.0,0.0,0.0,0.0,0.0,0.0,0.0,0.0,0.0,0.0,0.0,0.0,0.0,0.5969,0.655,0.7147,0.0,0.0,0.0,0.0,0.9892,1.0226,0.0,0.0,0.0,0.0,0.0,0.0,0.0,0.0,0.0,0.0,0.0,0.0,0.0,0.0,0.0,0.0,0.0,0.0,0.0,0.0,0.0,0.0,0.0,0.0,0.0,0.0,0.0,0.0,0.0,0.0,0.0,0.0,0.0,0.0,0.0,0.0,0.0,0.0,0.0,0.0,0.0,0.0,0.0,0.0,0.0,0.0,0.0,0.0,0.0,0.0,0.0,0.0,0.0,0.0,0.0,0.0,0.2301,0.4629,0.7507,1.0865,1.3915,1.595,1.6873,1.7922,1.7509,0.0,0.0,0.0,0.0,0.0,0.0,0.0,0.0,0.0,0.0,0.0,0.0,0.0,0.0,0.0,0.0,0.0,0.0,0.0,0.0,0.0,0.0,0.0,0.0,0.0,0.0,0.0,0.0,0.0,0.0,0.0,0.0,0.0,0.0,0.0,0.0,0.0,0.0,0.0,0.0,0.0,0.6404,0.6658,0.7496,0.818,0.0,0.0,1.0047,1.0312,1.0524,0.0,0.0,0.0,0.0,0.0,0.0,0.0,0.0,0.0,0.0,0.0,0.0,0.0,0.0,0.0,0.0,0.0,0.0,0.0,0.0,0.0,0.0,0.0,0.0,0.0,0.0,0.0,0.0,0.0,0.0,0.0,0.0,0.0,0.0,0.0,0.0,0.0,0.0,0.0,0.0,0.0,0.0,0.0,0.0,0.0,0.0,0.0,0.0,0.0,0.0,0.0,0.0,0.0,0.0,0.0,0.1202,0.3091,0.5466,0.839,1.1818,1.4605,1.6452,1.7309,1.7708,1.7141,0.0,0.0,0.0,0.0,0.0,0.0,0.0,0.0,0.0,0.0,0.0,0.0,0.0,0.0,0.0,0.0,0.0,0.0,0.0,0.0,0.0,0.0,0.0,0.0,0.0,0.0,0.0,0.0,0.0,0.0,0.0,0.0,0.0,0.0,0.0,0.0,0.0,0.0,0.0,0.0,0.0,0.0,0.7243,0.8136,0.0,0.0,0.0,1.0635,1.0955,0.0,0.0,0.0,0.0,0.0,0.0,0.0,0.0,0.0,0.0,0.0,0.0,0.0,0.0,0.0,0.0,0.0,0.0,0.0,0.0,0.0,0.0,0.0,0.0,0.0,0.0,0.0,0.0,0.0,0.0,0.0,0.0,0.0,0.0,0.0,0.0,0.0,0.0,0.0,0.0,0.0,0.0,0.0,0.0,0.0,0.0,0.0,0.0,0.0,0.0,0.0,0.0,0.0,0.0,0.0,0.0,0.0,0.393,0.6483,0.9467,1.2888,1.5462,1.7169,1.8022,1.8211,0.0,0.0,0.0,0.0,0.0,0.0,0.0,0.0,0.0,0.0,0.0,0.0,0.0,0.0,0.0,0.0,0.0,0.0,0.0,0.0,0.0,0.0,0.0,0.0,0.0,0.0,0.0,0.3305,0.0,0.0,0.0,0.0,0.0,0.0,0.0,0.0,0.0,0.0,0.0,0.0,0.0,0.0,0.7238,0.7808,0.8785,0.9646,0.0,0.0,1.1169,1.1808,1.1329,1.1069,0.0,0.0,0.0,0.0,0.0,0.0,0.0,0.0,0.0,0.0,0.0,0.0,0.0,0.0,0.0,0.0,0.0,0.0,0.0,0.0,0.0,0.0,0.0,0.0,0.0,0.0,0.0,0.0,0.0,0.0,0.0,0.0,0.0,0.0,0.0,0.0,0.0,0.0,0.0,0.0,0.0,0.0,0.0,0.0,0.0,0.0,0.0,0.0,0.0,0.0,0.0,0.0,0.0,0.0,0.0,0.4819,0.7783,1.1009,1.4437,1.6795,1.8561,1.9801,2.0426,1.9712,0.0,0.0,0.0,0.0,0.0,0.0,0.0,0.0,0.0,0.0,0.0,0.0,0.0,0.0,0.0,0.0,0.0,0.0,0.0,0.0,0.0,0.0,0.0,0.0,0.0,0.0,0.0,0.0,0.0,0.0,0.0,0.0,0.0,0.0,0.0,0.0,0.0,0.0,0.0,0.0,0.0,0.7725,0.8044,0.9329,1.0351,0.0,0.0,1.1475,1.2855,1.1477,1.095,1.2912,0.0,0.0,0.0,0.0,0.0,0.0,0.0,0.0,0.0,0.0,0.0,0.0,0.0,0.0,0.0,0.0,0.0,0.0,0.0,0.0,0.0,0.0,0.0,0.0,0.0,0.0,0.0,0.0,0.0,0.0,0.0,0.0,0.0,0.0,0.0,0.0,0.0,0.0,0.0,0.0,0.0,0.0,0.0,0.0,0.0,0.0,0.0,0.0,0.0,0.0,0.0,0.0,0.0,0.3255,0.5685,0.8125,1.1278,1.5121,1.6775,1.8412,2.0086,1.9783,1.9287,0.0,0.0,0.0,0.0,0.0,0.0,0.0,0.0,0.0,0.0,0.0,0.0,0.0,0.0,0.0,0.0,0.0,0.0,0.0,0.0,0.0,0.0,0.0,0.0,0.0,0.0,0.0,0.0,0.4443,0.4665,0.484,0.0,0.0,0.0,0.0,0.0,0.0,0.0,0.0,0.0,0.0,0.8149,0.8802,0.9548,0.0,0.0,1.0866,1.1074,1.1792,1.1096,1.0905,1.2265,1.1651,0.0,0.0,0.0,0.0,0.0,0.0,0.0,0.0,0.0,0.0,0.0,0.0,0.0,0.0,0.0,0.0,0.0,0.0,0.0,0.0,0.0,0.0,0.0,0.0,0.0,0.0,0.0,0.0,0.0,0.0,0.0,0.0,0.0,0.0,0.0,0.0,0.0,0.0,0.0,0.0,0.0,0.0,0.0,0.0,0.0,0.0,0.0,0.0,0.0,0.0,0.0,0.0,0.3967,0.6608,0.8808,1.1729,1.5418,1.6997,1.8444,1.9776,1.9607,1.9401,0.0,0.0,0.0,0.0,0.0,0.0,0.0,0.0,0.0,0.0,0.0,0.0,0.0,0.0,0.0,0.0,0.0,0.0,0.0,0.0,0.0,0.0,0.0,0.0,0.0,0.0,0.0,0.0,0.4846,0.4992,0.4931,0.0,0.0,0.0,0.0,0.0,0.0,0.0,0.0,0.0,0.0,0.8361,0.9171,0.9682,1.0186,1.0822,1.0801,1.0948,1.1701,1.1055,1.0927,1.2274,0.0,0.0,0.0,0.0,0.0,0.0,0.0,0.0,0.0,0.0,0.0,0.0,0.0,0.0,0.0,0.0,0.0,0.0,0.0,0.0,0.0,0.0,0.0,0.0,0.0,0.0,0.0,0.0,0.0,0.0,0.742,0.0,0.0,0.0,0.0,0.0,0.0,0.0,0.0,0.0,0.0,0.0,0.0,0.0,0.0,0.0,0.0,0.0,0.0,0.0,0.0,0.0,0.0,0.4714,0.7533,1.0018,1.2573,1.5157,1.7597,1.8896,1.9079,2.0454,2.0667,1.9428,0.0,0.0,0.0,0.0,0.0,0.0,0.0,0.0,0.0,0.0,0.0,0.0,0.0,0.0,0.0,0.0,0.0,0.0,0.0,0.0,0.0,0.0,0.0,0.0,0.0,0.0,0.4933,0.506,0.5008,0.0,0.0,0.0,0.0,0.0,0.0,0.0,0.0,0.0,0.0,0.7675,0.8348,0.9038,0.9688,1.0231,1.0645,1.0706,1.1341,1.3075,1.1558,1.0987,0.0,0.0,0.0,0.0,0.0,0.0,0.0,0.0,0.0,0.0,0.0,0.0,0.0,0.0,0.0,0.0,0.0,0.0,0.0,0.0,0.0,0.0,0.0,0.0,0.0,0.0,0.0,1.0369,0.9961,0.0,0.0,0.0,0.0,0.0,0.0,0.0,0.0,0.0,0.0,0.0,1.0729,1.1216,0.0,0.0,0.0,0.0,0.0,0.0,0.0,0.0,0.0,0.0,0.0,0.0,0.5586,0.7784,0.9966,1.2261,1.4691,1.6946,1.841,1.9049,2.0051,2.0392,2.0,0.0,0.0,0.0,0.0,0.0,0.0,0.0,0.0,0.0,0.0,0.0,0.0,0.0,0.0,0.0,0.0,0.0,0.0,0.0,0.0,0.0,0.0,0.0,0.0,0.0,0.5131,0.0,0.0,0.0,0.0,0.0,0.0,0.0,0.0,0.0,0.0,0.0,0.6249,0.6875,0.7667,0.8477,0.9322,0.9616,0.9977,0.0,0.0,0.0,0.0,0.0,0.0,0.0,0.0,0.0,0.0,0.0,0.0,0.0,0.0,1.1856,1.0683,0.9831,0.9489,1.0263,0.0,0.0,0.0,0.0,0.0,0.0,0.0,0.0,0.0,0.0,0.0,0.0,0.0,0.0,1.1687,0.0,1.1373,0.0,0.0,0.0,0.0,0.0,0.0,0.0,0.0,1.2122,1.244,1.2587,1.3017,1.2998,0.0,1.2724,1.105,0.0,0.0,0.0,0.0,0.0,0.0,0.0,0.0,0.6561,0.8361,1.0218,1.2113,1.4078,1.6092,1.7602,1.8552,1.9623,2.0254,2.0462,2.0027,1.9177,0.0,0.0,0.0,0.0,0.0,0.0,0.0,0.0,0.0,0.0,0.0,0.0,0.0,0.0,0.0,0.0,0.0,0.0,0.0,0.0,0.0,0.0,0.0,0.5909,0.0,0.0,0.0,0.0,0.0,0.0,0.0,0.0,0.0,0.5309,0.577,0.6368,0.7018,0.7677,0.8398,0.9274,0.0,0.0,0.0,0.0,0.0,0.0,0.0,1.2273,1.2918,1.2867,1.283,1.2996,1.2621,1.2579,1.3631,0.0,0.0,1.2201,1.1496,1.1268,1.1886,1.2467,1.2695,1.2022,1.1848,1.1913,0.0,0.0,0.0,0.0,0.0,0.0,0.0,0.0,1.2936,1.2865,0.0,1.2684,0.0,0.0,0.0,0.0,0.0,1.1385,0.0,0.0,1.2606,1.3351,1.4721,1.4956,1.4694,1.3983,1.3965,1.3103,1.1446,0.9877,0.0,0.0,0.0,0.0,0.0,0.0,0.7681,0.9357,1.0876,1.2207,1.3394,1.5154,1.6593,1.7645,1.9202,2.0276,2.0766,2.0485,2.0042,1.9462,1.7918,0.0,0.0,0.0,0.0,0.0,0.0,0.0,0.0,0.0,0.0,0.0,0.0,0.0,0.0,0.0,0.0,0.0,0.0,0.0,0.0,0.6902,0.0,0.0,0.0,0.0,0.0,0.0,0.0,0.0,0.0,0.0,0.5843,0.6065,0.6527,0.7363,0.0,0.0,0.0,0.0,0.9552,0.9891,1.0187,1.0978,1.2703,1.2631,1.2791,1.3948,0.0,0.0,1.4036,1.3294,1.3158,1.4861,1.5194,1.5064,1.4217,1.3714,1.3545,1.3875,1.4413,1.455,1.3746,1.368,1.3986,1.5318,0.0,0.0,0.0,0.0,1.3418,1.3945,1.4508,1.5331,1.5525,1.5248,1.4786,0.0,0.0,0.0,0.0,0.0,0.0,1.3251,1.4404,1.4235,1.4418,1.4945,1.5153,1.52,1.513,1.5368,1.4953,1.3963,1.3005,1.1768,1.0311,0.0,0.0,0.0,0.0,1.0098,1.0759,1.1919,1.2728,1.31,1.4841,1.6595,1.8338,1.8938,1.9846,2.1095,2.0929,2.0843,2.0876,1.9409,0.0,0.0,0.0,0.0,0.0,0.0,0.0,0.0,0.0,0.0,0.0,0.0,0.0,0.0,0.0,0.0,0.0,0.0,0.0,0.7749,0.7713,0.7447,0.0,0.0,0.0,0.0,0.0,0.0,0.0,0.0,0.0,0.6737,0.6667,0.6758,0.0,0.0,0.8265,0.8778,0.9209,0.9753,1.0499,0.0,0.0,0.0,1.3947,1.4506,1.3753,1.3588,1.3643,1.3875,1.4034,1.4467,1.5405,1.5646,1.5792,1.5986,1.5396,1.4977,1.5082,1.5321,1.5432,1.5229,1.5133,1.5151,1.5485,1.4722,1.4342,1.415,1.4137,1.4613,1.5073,1.551,1.6039,1.6251,1.6215,1.5719,1.5212,1.4695,1.4004,0.0,0.0,0.0,1.3957,1.4619,1.4413,1.4517,1.485,1.509,1.5345,1.5588,1.596,1.5822,1.5204,1.4864,1.4254,1.3272,0.0,0.0,1.135,1.1332,1.1354,1.1456,1.2387,1.3002,1.335,1.5417,1.7161,1.8485,1.9052,1.983,2.0808,2.1053,2.1187,2.1255,2.0462,1.9101,0.0,0.0,0.0,0.0,0.0,0.0,0.0,0.0,0.0,0.0,0.0,0.6615,0.0,0.0,0.0,0.0,0.8054,0.8398,0.8583,0.8413,0.0,0.0,0.0,0.0,0.0,0.0,0.0,0.6735,0.6758,0.695,0.7529,0.7366,0.7301,0.7542,0.7904,0.8317,0.8767,0.0,0.9868,1.0782,1.1335,1.205,1.3069,1.3802,1.4049,1.3454,1.3661,1.4001,1.4225,1.4698,1.5262,1.591,1.6157,1.6395,1.6854,1.6491,1.6087,1.6131,1.6191,1.6222,1.6337,1.6336,1.6489,1.5175,1.5359,1.5609,1.5625,1.5514,1.5553,1.5607,1.5594,1.566,1.5705,1.5793,1.5778,1.5723,1.5569,1.5249,0.0,1.4773,1.4411,1.4113,1.3843,1.3714,1.3964,1.4594,1.4914,1.5205,1.5471,1.5958,1.593,1.5479,1.5687,1.5907,1.6022,1.3317,1.1906,1.1909,1.1982,1.1941,1.1812,1.2583,1.329,1.4003,1.6465,1.7969,1.8305,1.9322,1.9989,2.0219,2.0923,2.119,2.0956,2.1127,2.0188,1.7962,0.0,0.0,0.0,0.0,0.0,0.0,0.0,0.0,0.0,0.0,0.0,0.0,0.0,0.0,0.0,0.9186,0.0,0.9342,0.9114,0.0,0.0,0.0,0.7375,0.7145,0.6819,0.6901,0.7592,0.0,0.0,0.8187,0.8136,0.8061,0.8112,0.8143,0.834,0.886,0.9354,0.9931,1.0871,1.1086,1.1767,1.3305,1.2953,1.2639,1.3162,1.3758,1.4337,1.4815,1.5277,1.5827,1.6536,1.6744,1.6871,1.696,1.6964,1.6989,1.6934,1.6976,1.7018,1.7021,1.7354,1.7719,1.5762,1.5556,1.5812,1.5424,1.4652,1.5199,1.5451,1.5517,1.6111,1.6387,1.642,1.5846,1.5238,1.4619,1.4383,1.4431,1.4634,1.4139,1.4082,1.4322,1.4137,1.4173,1.4373,1.4711,1.4965,1.5224,1.5767,1.5781,1.5321,1.5679,1.5682,1.5297,1.4906,1.4668,1.4558,1.4054,1.3686,1.3495,1.4154,1.4808,1.5452,1.638,1.7286,1.8192,1.8726,1.9405,2.0223,2.0487,2.0827,2.118,2.1395,2.0752,1.9076,1.8037,0.0,0.0,0.0,0.0,0.0,0.0,0.0,0.0,0.0,0.8324,0.8766,0.0,1.0162,0.0,1.0862,1.111,1.0637,1.0563,0.0,0.0,0.9169,0.8818,0.8137,0.8334,0.8617,0.8837,0.8806,0.8757,0.8678,0.8729,0.8804,0.8889,0.8704,0.8723,0.9209,0.954,1.0189,1.1293,1.1596,1.2118,1.3317,1.3387,1.318,1.3395,1.4205,1.4828,1.4967,1.5774,1.6469,1.665,1.6846,1.6973,1.7002,1.7183,1.7308,1.7365,1.7337,1.735,1.7434,1.7814,1.8149,1.5847,1.5723,1.593,1.5681,1.5109,1.5206,1.5221,1.5266,1.5698,1.5933,1.5945,1.5518,1.506,1.46,1.4335,1.4324,1.4471,1.4084,1.4046,1.4264,1.4176,1.4157,1.4254,1.4493,1.4669,1.4845,1.5315,1.5429,1.5261,1.5619,1.5726,1.5579,1.5664,1.5744,1.5781,1.5038,1.4587,1.4476,1.5394,1.6115,1.657,1.7221,1.7939,1.8679,1.868,1.9004,1.9697,1.9405,1.9556,2.0204,2.05,2.017,1.914,1.8195,1.6559,0.0,0.0,0.0,0.0,0.0,0.0,0.0,0.0,0.0,0.0,0.0,1.1338,0.0,1.1787,1.1767,1.1737,1.141,1.1027,1.0447,1.0206,0.9906,0.9424,0.9289,0.9339,0.9667,0.9461,0.9398,0.9573,0.9655,0.9843,1.0111,0.9992,0.9763,0.9566,0.9907,1.0568,1.1543,1.1941,1.2449,1.3432,1.3425,1.3357,1.3536,1.4319,1.498,1.5057,1.5916,1.6633,1.6675,1.6803,1.6876,1.6989,1.717,1.7378,1.7652,1.7733,1.7706,1.7611,1.8055,1.8567,1.592,1.5928,1.614,1.6172,1.6059,1.5436,1.5162,1.5162,1.5193,1.521,1.5256,1.5224,1.5193,1.5131,1.4814,1.4653,1.4583,1.4359,1.4206,1.4139,1.4152,1.4178,1.4235,1.4382,1.4484,1.4501,1.4833,1.5082,1.5239,1.5566,1.5931,1.6299,1.6088,1.6054,1.62,1.5666,1.5313,1.5209,1.6386,1.7151,1.7448,1.8396,1.9059,1.9388,1.9009,1.8923,1.9153,1.8504,1.843,1.902,1.9454,1.9382,1.8752,1.8052,1.6675,0.0,1.3058,0.0,0.0,0.0,0.0,0.0,0.0,0.0,0.0,1.189,1.2374,1.3238,1.2485,1.2224,1.2833,1.2213,1.1674,1.1562,1.1135,1.0876,1.0768,1.0052,0.977,1.0277,1.0016,1.0009,1.051,1.064,1.0863,1.1201,1.1204,1.0851,1.0174,1.0445,1.1044,1.1643,1.2228,1.2791,1.3243,1.3232,1.321,1.3493,1.4181,1.4866,1.5082,1.5853,1.6489,1.6693,1.6761,1.6846,1.7015,1.7199,1.7475,1.7948,1.8175,1.8109,1.7841,1.8305,1.9011,1.6824,1.649,1.6797,1.6623,1.6159,1.6138,1.6062,1.6007,1.6097,1.6076,1.6007,1.6007,1.5985,1.5858,1.5752,1.5681,1.5618,1.5618,1.5348,1.4904,1.5006,1.4814,1.4419,1.4988,1.4998,1.4556,1.5221,1.5318,1.4902,1.565,1.6147,1.6394,1.7121,1.7097,1.6423,0.0,0.0,0.0,1.6863,1.7431,1.8257,1.8664,1.9104,1.955,1.9735,0.0,2.0123,1.998,1.9922,1.9959,2.0334,0.0,0.0,0.0,0.0,0.0,0.0,0.0,0.0,0.0,0.0,0.0,1.3283,1.2815,1.2735,1.3044,1.3574,1.4235,1.3997,1.3816,1.391,1.3678,1.3368,1.2973,1.2548,1.2181,1.1862,1.1344,1.1061,1.0932,1.1064,1.1069,1.0859,1.0987,1.1192,1.1308,1.1345,1.1374,1.1312,1.1421,1.1686,1.226,1.2738,1.3014,1.3025,1.3084,1.3107,1.3333,1.3841,1.4511,1.5082,1.5681,1.6319,1.6744,1.6989,1.7128,1.7308,1.7611,1.7948,1.8358,1.85,1.8553,1.8386,1.8745,1.9295,1.7275,0.0,1.7419,1.7358,0.0,1.7273,1.7311,1.7194,1.6637,1.6338,1.6316,1.6316,1.628,1.6272,1.6177,1.6127,1.6136,1.615,1.5986,1.5757,1.5875,1.5813,1.5555,1.5963,1.6017,1.5755,1.6132,1.6198,1.598,1.6412,1.6754,1.6949,1.7582,1.7669,1.7381,1.8179,1.8168,1.7318,1.7424,1.7803,1.8432,1.8824,1.9201,1.9632,0.0,0.0,0.0,0.0,0.0,0.0,0.0,0.0,0.0,0.0,0.0,1.7181,1.6584,1.6111,1.568,1.529,1.5078,1.5114,1.4974,1.4607,1.4018,1.4307,1.4637,1.4971,1.4621,1.4354,1.4412,1.4099,1.3813,1.3597,1.3205,1.2827,1.2503,1.2066,1.1789,1.1762,1.1804,1.1793,1.1661,1.1978,1.2191,1.2189,1.2314,1.2411,1.2494,1.2328,1.2379,1.2837,1.2951,1.299,1.285,1.2885,1.2967,1.3099,1.3838,1.4525,1.498,1.5769,1.6485,1.6866,1.7128,1.735,1.7584,1.7895,1.8279,1.8669,1.886,1.8936,1.9064,1.9398,1.9797,1.7529,1.7557,1.7922,1.8042,1.8028,1.824,1.8358,1.8249,0.0,0.0,0.0,1.6742,1.6742,1.6742,1.6661,1.6697,1.6756,1.6733,1.6678,1.6647,1.676,1.681,1.6754,1.6937,1.7006,1.7039,1.7153,1.7193,1.7146,1.7364,1.7543,1.7729,1.7984,1.829,1.8687,1.8938,1.8762,1.8103,1.8262,1.8452,1.8717,1.9201,1.9641,2.0044,1.9707,1.9581,1.9714,1.912,1.9066,1.9638,1.9503,1.9506,1.9755,1.8992,1.8217,1.7587,1.673,1.6191,1.6108,1.6146,1.6189,1.6268,1.6305,1.5985,1.5244,1.5375,1.5538,1.5602,1.4987,1.469,1.4883,1.4404,1.4051,1.4089,1.3668,1.3288,1.3062,1.2558,1.2345,1.2465,1.2392,1.2365,1.2567,1.2883,1.3198,1.3254,1.3255,1.3425,1.3361,1.2991,1.2922,1.3251,1.3126,1.2873,1.2768,1.2733,1.278,1.2899,1.3791,1.4586,1.5029,1.584,1.6654,1.706,1.7295,1.7516,1.7828,1.8187,1.8577,1.9087,1.9288,1.942,1.9747,2.008,2.0441,1.7584,1.772,1.8029,1.8163,1.8189,1.8386,1.8464,1.8464,1.8282,1.8159,1.8015,1.8054,1.8054,1.8015,1.8029,1.8068,1.8212,1.8303,1.8083,1.7545,1.764,1.7455,1.6998,1.7484,1.7512,1.7136,1.7731,1.7786,1.7466,1.8023,1.8377,1.8608,1.9121,1.9637,1.9986,1.9186,1.9049,1.9712,1.9681,1.973,1.9945,2.0509,2.1006,2.1414,2.1708,2.1999,2.2177,2.2157,2.2245,2.2335,2.2146,2.1991,2.1814,2.1897,2.1825,2.1302,2.1302,2.1177,2.0726,1.9988,1.8956,1.7733,1.7104,1.6517,1.5841,1.5856,1.5957,1.6013,1.5682,1.5503,1.5669,1.5318,1.5021,1.4891,1.4375,1.389,1.3678,1.318,1.2888,1.3018,1.3037,1.3035,1.3047,1.3288,1.3459,1.3493,1.3514,1.3547,1.3433,1.3272,1.3213,1.3297,1.3104,1.2896,1.2826,1.2638,1.2662,1.2768,1.3472,1.4261,1.4941,1.5785,1.6565,1.7286,1.7422,1.7666,1.812,1.8669,1.9049,1.9384,1.9767,2.0154,2.022,2.0728,2.1183,1.8148,1.8246,1.8536,1.87,1.8658,1.8553,1.8478,1.8478,1.8478,1.8464,1.8411,1.8489,1.8542,1.8528,1.8553,1.8644,1.875,1.8841,1.8722,1.8435,1.8592,1.8484,1.818,1.8535,1.8593,1.8381,1.868,1.8752,1.8673,1.898,1.9206,1.9341,1.9803,2.0131,2.0308,1.9919,2.002,2.0495,1.9968,1.9839,2.0093,2.0608,2.1079,2.1461,2.1919,2.2334,2.2643,2.2775,2.2873,2.2946,2.2824,2.2662,2.247,2.2092,2.1704,2.1296,2.0791,2.0355,1.9998,1.9333,1.8676,1.8017,1.7696,1.7472,1.7228,1.6929,1.6761,1.6767,1.6752,1.6734,1.6637,1.6492,1.6197,1.5543,1.502,1.4476,1.3981,1.3612,1.3421,1.3535,1.3589,1.3635,1.3581,1.3749,1.3815,1.3769,1.3669,1.3581,1.3459,1.3335,1.3232,1.3357,1.3104,1.2896,1.2838,1.265,1.2663,1.2913,1.3577,1.4303,1.507,1.5891,1.6695,1.7244,1.7558,1.7987,1.8383,1.8921,1.9347,1.9603,2.017,2.0494,2.0494,2.1055,2.157,1.8717,1.8882,1.9181,1.9349,1.9336,1.8955,1.8753,1.8753,1.8613,1.8581,1.8595,1.8673,1.8711,1.8764,1.8836,1.895,1.9055,1.9107,1.9107,1.9093,1.928,1.9265,1.9176,1.9339,1.9413,1.9465,1.9598,1.9745,1.9922,2.01,2.021,2.0167,2.0277,2.0373,2.0373,2.0577,2.0777,2.0878,2.0254,2.0053,2.0439,2.0891,2.1286,2.1508,2.1941,2.2289,2.2514,2.2856,2.312,2.3261,2.3415,2.3361,2.305,2.2226,2.1559,2.1057,2.0148,1.9482,1.9146,1.8702,1.845,1.8478,1.8345,1.8356,1.8413,1.8013,1.7642,1.7542,1.7616,1.7551,1.7202,1.7136,1.6871,1.5929,1.5487,1.4998,1.4392,1.413,1.4032,1.4111,1.4163,1.4163,1.4144,1.4189,1.4208,1.4078,1.3835,1.3648,1.3493,1.3335,1.3288,1.3254,1.3069,1.2873,1.2768,1.2615,1.2627,1.2953,1.3688,1.4353,1.5053,1.6048,1.6909,1.7282,1.776,1.824,1.8644,1.9213,1.9596,1.9812,2.0203,2.0542,2.0511,2.1318,2.1882,1.9046,1.9656,1.9885,2.0073,2.0175,1.9696,1.9482,1.9438,1.8977,1.8798,1.8788,1.875,1.8817,1.8955,1.904,1.9139,1.9265,1.9339,1.9339,1.9354,1.9391,1.9376,1.942,1.9428,1.9523,1.9758,2.0318,2.0663,2.0909,2.144,2.1553,2.1142,2.0702,2.0574,2.0675,2.0709,2.0842,2.107,2.1118,2.133,2.1728,2.2231,2.237,2.2047,2.2476,2.2562,2.2329,2.3233,2.3868,2.4136,2.4798,2.4902,2.4108,2.3805,2.3242,2.2274,2.1851,2.1551,2.1097,2.0463,1.9957,1.9866,1.9237,1.8893,1.8912,1.8807,1.855,1.8146,1.7783,1.7583,1.7165,1.6844,1.6558,1.614,1.5758,1.5373,1.5179,1.5059,1.4921,1.4732,1.4718,1.4651,1.4465,1.4465,1.442,1.4287,1.4078,1.3835,1.3615,1.3527,1.3357,1.3163,1.299,1.2873,1.2745,1.2567,1.252,1.2674,1.3424,1.418,1.4836,1.5819,1.6876,1.7234,1.7882,1.8319,1.8889,1.9531,1.9899,1.9854,2.0028,2.0213,2.0681,2.1523,2.2039,2.0124,2.0478,2.0581,2.0564,2.0372,2.0217,2.0146,2.0118,2.0081,1.9886,1.958,1.9551,1.9402,1.9093,1.9191,1.9302,1.945,1.9487,1.9523,1.9581,1.9617,1.9878,2.0258,2.034,2.058,2.1031,2.1333,2.1561,2.1744,2.2102,2.2238,2.2071,2.1941,2.1733,2.1405,2.146,2.1404,2.1183,2.1294,2.1526,2.184,2.2243,2.2513,2.2617,2.2568,2.2575,2.2669,2.2887,2.3055,2.3318,2.3772,2.3868,2.3514,2.2942,2.2433,2.1922,2.1214,2.0715,2.0462,2.0145,1.9907,1.9807,1.9497,1.9283,1.924,1.9146,1.8963,1.8753,1.8638,1.8472,1.8143,1.8104,1.7828,1.7176,1.6758,1.6334,1.5754,1.5565,1.5404,1.5285,1.5209,1.5118,1.4996,1.4856,1.4655,1.4465,1.4241,1.4059,1.3795,1.3628,1.3391,1.3151,1.2978,1.2838,1.2697,1.252,1.2531,1.28,1.3191,1.3715,1.4447,1.5414,1.6404,1.6837,1.7582,1.8232,1.8846,1.9146,1.9459,1.9587,1.907,1.8956,2.0567,2.1647,2.2136,2.1038,2.1222,2.1373,2.1271,2.0922,2.0898,2.0869,2.087,2.0952,2.077,2.0404,2.0494,2.0231,1.9777,1.9538,1.9575,1.9886,1.9952,2.013,2.0324,2.0376,2.0699,2.1235,2.1318,2.1599,2.2103,2.2332,2.2554,2.2809,2.2809,2.2898,2.2964,2.2938,2.2699,2.2255,2.2346,2.213,2.1601,2.1664,2.1784,2.1873,2.2147,2.2405,2.2544,2.2374,2.2267,2.2222,2.2214,2.2216,2.2277,2.2623,2.278,2.2598,2.2011,2.1569,2.1245,2.0537,2.003,1.9925,1.9842,1.9771,1.9695,1.965,1.9591,1.9509,1.9361,1.9256,1.9184,1.9234,1.9063,1.8791,1.8817,1.8564,1.7837,1.7454,1.6945,1.6305,1.605,1.5881,1.5767,1.5638,1.5507,1.5389,1.5193,1.4918,1.4704,1.4497,1.4254,1.3993,1.3728,1.3506,1.3163,1.3012,1.2838,1.2674,1.252,1.2589,1.2775,1.3024,1.3421,1.3973,1.492,1.5734,1.6205,1.7174,1.7908,1.8409,1.8673,1.877,1.9139,1.8688,1.8178,1.977,2.1069,2.1758,2.1333,2.1946,2.2221,2.2271,2.2275,2.1871,2.1729,2.1744,2.142,2.1222,2.1178,2.13,2.1366,2.1228,2.0244,2.0049,2.061,2.0835,2.1212,2.1736,2.1812,2.1941,2.2133,2.2171,2.2279,2.2647,2.3142,2.3723,2.434,2.3975,2.3793,2.3806,2.3401,2.3076,2.3119,2.317,2.2887,2.2442,2.2476,2.2386,2.2103,2.2259,2.2143,2.1849,2.1937,2.1604,2.0753,2.1387,2.1732,2.1295,2.2104,2.2344,2.176,2.1662,2.1308,2.0603,2.0332,2.0231,2.0123,2.0035,1.9964,1.9941,1.9877,1.9847,1.9757,1.9596,1.9452,1.9372,1.9243,1.8968,1.8538,1.8345,1.8042,1.7699,1.733,1.705,1.6805,1.6581,1.6394,1.6231,1.6037,1.5854,1.5536,1.5388,1.5224,1.5027,1.4842,1.4592,1.4195,1.3927,1.3641,1.3301,1.3047,1.2826,1.2579,1.2473,1.2425,1.2542,1.2873,1.3219,1.37,1.4236,1.4904,1.5526,1.6211,1.6931,1.7734,1.8074,1.81,1.82,1.8091,1.8244,1.9194,2.0058,2.0887,2.2172,2.237,2.2477,2.2555,2.2589,2.2523,2.257,2.2644,2.2657,2.2473,2.2215,2.2252,2.2109,2.1822,2.1455,2.1326,2.1422,2.1591,2.1843,2.2171,2.2171,2.2532,2.3088,2.3088,2.339,2.3818,2.4067,2.4436,2.4784,2.4697,2.4719,2.4764,2.4639,2.4377,2.41,2.4091,2.3872,2.339,2.3408,2.3486,2.3418,2.3211,2.3005,2.2926,2.229,2.1866,2.1612,2.1221,2.1009,2.1004,2.1012,2.0903,2.0747,2.085,2.0814,2.0465,1.9929,1.9589,1.9556,1.9509,1.9417,1.9419,1.9829,2.003,1.9934,1.9775,1.9649,1.9532,1.939,1.915,1.8877,1.8513,1.8214,1.8001,1.78,1.7549,1.7337,1.7117,1.6876,1.667,1.6421,1.6136,1.5883,1.5726,1.5566,1.5299,1.5088,1.4766,1.4406,1.4098,1.3815,1.3459,1.322,1.3012,1.272,1.2508,1.2413,1.2448,1.2602,1.2733,1.3071,1.3717,1.4398,1.4855,1.5394,1.6194,1.7116,1.8017,1.7927,1.7492,1.7387,1.7885,1.8583,1.9672,2.055,2.2601,2.2646,2.2692,2.2723,2.2859,2.2979,2.3083,2.3172,2.3407,2.3327,2.3053,2.3134,2.2985,2.2732,2.2806,2.2751,2.2586,2.2552,2.267,2.2971,2.301,2.339,2.3881,2.3983,2.4217,2.4648,2.4735,2.4871,2.5084,2.5162,2.524,2.5317,2.5432,2.5266,2.4977,2.5,2.4781,2.4345,2.4331,2.4413,2.4351,2.4092,2.407,2.4095,2.3466,2.2788,2.2407,2.137,2.0804,2.0765,2.0266,2.0031,2.0227,2.0371,2.0494,2.0443,1.998,1.9475,1.923,1.9161,1.9104,1.9059,1.9499,1.9835,1.9983,1.9926,1.9818,1.9681,1.9518,1.9353,1.9164,1.8877,1.8587,1.833,1.8142,1.7944,1.7681,1.7432,1.7199,1.691,1.6686,1.6421,1.6203,1.6095,1.5898,1.5624,1.5359,1.509,1.4721,1.4374,1.4032,1.3682,1.3425,1.3185,1.2943,1.2733,1.2508,1.2496,1.2472,1.2484,1.2639,1.3288,1.3797,1.424,1.4873,1.5688,1.6597,1.7619,1.7642,1.7149,1.7289,1.7752,1.8559,1.9454,2.0212,2.2632,2.2754,2.2859,2.2979,2.3127,2.326,2.3319,2.3363,2.3523,2.3608,2.3603,2.3864,2.3872,2.396,2.3978,2.4142,2.404,2.3683,2.3785,2.4306,2.4393,2.4545,2.4688,2.4712,2.4752,2.4966,2.5029,2.5146,2.5278,2.5294,2.5317,2.5416,2.5562,2.5589,2.5705,2.575,2.5595,2.5243,2.5196,2.5061,2.4686,2.4834,2.4988,2.5181,2.5199,2.436,2.2585,2.1962,2.1532,2.0951,2.0294,2.0028,2.0265,2.0347,2.0425,2.0458,2.0435,2.0,1.9326,1.9214,1.9165,1.9148,1.9104,1.9538,1.9999,2.004,1.9915,1.9782,1.9641,1.9452,1.932,1.9164,1.8912,1.8545,1.829,1.8082,1.7861,1.7618,1.7368,1.7076,1.685,1.6644,1.6528,1.6394,1.6219,1.5996,1.5797,1.5507,1.5059,1.4721,1.4356,1.3993,1.3695,1.3425,1.3185,1.2955,1.2733,1.2591,1.252,1.2508,1.2662,1.3116,1.3388,1.3809,1.4419,1.5231,1.6001,1.6924,1.7379,1.7161,1.7412,1.7579,1.8184,1.8918,1.974,2.3098,2.3127,2.3275,2.3348,2.3465,2.3566,2.3668,2.3754,2.3839,2.3967,2.4094,2.4177,2.4261,2.4385,2.4441,2.4467,2.4492,2.4427,2.4498,2.467,2.4742,2.4806,2.4942,2.4926,2.5005,2.5068,2.5107,2.5185,2.5339,2.5355,2.5454,2.5605,2.5642,2.5791,2.6043,2.6079,2.6073,2.6133,2.6202,2.6234,2.6192,2.5901,2.5806,2.5895,2.5655,2.5155,2.4657,2.4212,2.3687,2.3086,2.1995,2.1022,2.0383,2.0268,2.0357,2.0366,1.9879,1.9558,1.9336,1.9268,1.9239,1.9262,1.9624,1.9999,2.0181,2.0133,2.0011,1.9892,1.9751,1.9623,1.9467,1.932,1.9099,1.8788,1.8584,1.8371,1.8125,1.7844,1.7549,1.732,1.7126,1.6952,1.6747,1.6659,1.6528,1.6258,1.608,1.5782,1.5404,1.5013,1.4672,1.4292,1.4,1.3661,1.3425,1.3185,1.3012,1.2791,1.265,1.2579,1.2733,1.2873,1.3116,1.3581,1.4195,1.4842,1.5566,1.6192,1.6721,1.7167,1.7322,1.75,1.7671,1.8367,1.9311,2.3407,2.3436,2.3538,2.3668,2.3739,2.3839,2.3925,2.4051,2.4109,2.4193,2.4359,2.44,2.4467,2.4589,2.4589,2.463,2.467,2.4822,2.4886,2.4886,2.4902,2.4942,2.5005,2.5005,2.5084,2.5146,2.5185,2.5301,2.5476,2.5513,2.5589,2.5754,2.5828,2.599,2.622,2.631,2.6434,2.6623,2.6708,2.6859,2.697,2.675,2.6645,2.6737,2.6553,2.6472,2.6579,2.6417,2.5808,2.4539,2.3031,2.1683,2.0652,2.0411,2.0283,2.0283,1.9998,1.9614,1.9327,1.9277,1.9288,1.9348,1.9682,2.0095,2.0237,2.0238,2.0105,1.9991,1.9862,1.9782,1.9623,1.9467,1.9274,1.9086,1.8825,1.8584,1.833,1.804,1.7794,1.7595,1.7415,1.7224,1.7052,1.6908,1.6789,1.6501,1.6328,1.6095,1.5682,1.5285,1.4951,1.4624,1.4273,1.396,1.3695,1.3459,1.3242,1.3035,1.2826,1.272,1.2768,1.2873,1.3069,1.3702,1.4324,1.4907,1.5595,1.5985,1.6452,1.6795,1.724,1.7395,1.7664,1.836,1.9219,2.3581,2.3653,2.3782,2.3882,2.4024,2.4024,2.4094,2.4162,2.4302,2.4441,2.4523,2.4645,2.4655,2.467,2.471,2.4766,2.4806,2.4966,2.5045,2.5068,2.5045,2.5045,2.506,2.5045,2.5123,2.5294,2.5278,2.5416,2.5663,2.5647,2.5791,2.5934,2.6096,2.6203,2.631,2.6485,2.6623,2.6742,2.6859,2.7023,2.7198,2.7289,2.7396,2.7547,2.7712,2.783,2.786,2.8029,2.7338,2.5395,2.3694,2.2444,2.1448,2.0708,2.0554,2.0456,2.0454,2.0055,1.9507,1.9468,1.9473,1.9505,1.9524,1.9568,2.0264,2.0347,2.0223,2.0097,1.9981,1.9892,1.9782,1.9623,1.9452,1.9274,1.8966,1.8677,1.8388,1.8201,1.8031,1.7883,1.7687,1.7462,1.732,1.7158,1.6984,1.6738,1.6543,1.6262,1.6,1.5625,1.5267,1.4913,1.4625,1.4303,1.4053,1.3715,1.3501,1.3276,1.3035,1.2908,1.2838,1.2931,1.316,1.3789,1.442,1.4998,1.5521,1.594,1.6382,1.6866,1.7158,1.7338,1.7724,1.8336,1.8783,2.3897,2.394,2.4094,2.4177,2.4234,2.4385,2.4451,2.4508,2.4605,2.4742,2.4862,2.495,2.4989,2.5123,2.5084,2.5123,2.5178,2.5217,2.5256,2.5256,2.5217,2.5201,2.5217,2.5201,2.5278,2.5355,2.5394,2.5492,2.5701,2.5721,2.5881,2.6096,2.6203,2.6345,2.6555,2.664,2.6791,2.6973,2.707,2.7184,2.7359,2.7465,2.7569,2.7672,2.7882,2.8025,2.8126,2.844,2.7989,2.6534,2.5568,2.4106,2.2505,2.2057,2.1479,2.0655,2.0413,2.0374,2.0205,2.0137,2.0192,2.0253,2.0106,2.0252,2.0422,2.0418,2.0314,2.0192,2.0088,2.001,1.9873,1.9763,1.9582,1.9259,1.9,1.8751,1.8542,1.8325,1.8142,1.8053,1.7856,1.7681,1.7479,1.7313,1.715,1.6924,1.6675,1.6436,1.6169,1.6083,1.574,1.5375,1.5061,1.4745,1.4397,1.4033,1.3735,1.3547,1.3276,1.3047,1.3,1.3022,1.3387,1.3888,1.4433,1.4996,1.5492,1.5968,1.6432,1.6892,1.715,1.733,1.7552,1.7988,1.8308,2.4151,2.4234,2.4343,2.4426,2.4467,2.4589,2.471,2.4751,2.4871,2.5005,2.5123,2.5162,2.5201,2.5294,2.5294,2.5333,2.5355,2.541,2.5432,2.547,2.5524,2.5486,2.5355,2.5333,2.5394,2.547,2.5546,2.5626,2.5828,2.5864,2.6026,2.6206,2.6364,2.6521,2.6708,2.6858,2.6989,2.7117,2.7261,2.7404,2.7526,2.76,2.7689,2.7806,2.7968,2.8081,2.8264,2.8562,2.8283,2.7409,2.6691,2.5706,2.42,2.3061,2.2269,2.1309,2.0792,2.042,2.0492,2.0511,2.0536,2.0585,2.0563,2.0527,2.0494,2.0443,2.0396,2.0306,2.0203,2.0116,1.9981,1.9877,1.9649,1.9394,1.9132,1.8914,1.8676,1.8485,1.8287,1.8159,1.7988,1.7833,1.7658,1.7472,1.7297,1.7075,1.6831,1.657,1.6292,1.6305,1.6113,1.5632,1.525,1.4878,1.4598,1.4235,1.3914,1.3715,1.3574,1.332,1.3138,1.3148,1.3475,1.3921,1.4433,1.498,1.5507,1.5981,1.6421,1.6805,1.7092,1.7314,1.7502,1.7526,1.7843,2.44,2.4482,2.4605,2.463,2.467,2.4766,2.4886,2.4989,2.5107,2.5224,2.5317,2.5371,2.541,2.5355,2.5432,2.541,2.547,2.5584,2.5696,2.5754,2.5844,2.5787,2.5508,2.5508,2.5546,2.5675,2.5717,2.5864,2.601,2.6151,2.6258,2.6365,2.6572,2.6708,2.6808,2.7038,2.7198,2.7261,2.7434,2.7539,2.7642,2.773,2.7864,2.7996,2.8109,2.8219,2.8406,2.8626,2.8562,2.817,2.7624,2.6998,2.6118,2.4125,2.2993,2.2488,2.1478,2.0809,2.0502,2.049,2.0521,2.0578,2.0586,2.0578,2.0519,2.048,2.0464,2.0366,2.028,2.0186,2.0089,1.993,1.9745,1.9555,1.9394,1.9148,1.8861,1.8676,1.8522,1.827,1.8134,1.7988,1.7811,1.7595,1.7384,1.7232,1.6993,1.6686,1.6476,1.6405,1.604,1.5505,1.5172,1.4921,1.4661,1.4401,1.4157,1.3921,1.3826,1.361,1.3257,1.3263,1.3522,1.3921,1.4461,1.5011,1.558,1.6037,1.6436,1.6753,1.7066,1.7183,1.7265,1.7205,1.7381,2.4564,2.4589,2.4742,2.4806,2.4926,2.4989,2.5107,2.524,2.5394,2.5486,2.5578,2.5675,2.5733,2.5787,2.5733,2.577,2.5824,2.5881,2.599,2.6099,2.6134,2.6099,2.599,2.5881,2.5844,2.5917,2.5901,2.6046,2.6206,2.626,2.6382,2.6537,2.6674,2.6775,2.6957,2.7135,2.7279,2.7373,2.7539,2.7689,2.776,2.7893,2.8053,2.8154,2.8264,2.8424,2.8536,2.8662,2.879,2.8901,2.8852,2.8258,2.7245,2.656,2.517,2.3351,2.2571,2.1738,2.0748,2.0534,2.0516,2.0543,2.0562,2.0566,2.0513,2.0503,2.0476,2.0413,2.0308,2.0235,2.0108,1.9977,1.9823,1.9669,1.9536,1.9368,1.9117,1.8896,1.8695,1.8522,1.8345,1.8184,1.8031,1.7856,1.7612,1.7384,1.7117,1.6825,1.6658,1.6545,1.6096,1.5536,1.5413,1.5179,1.4847,1.4699,1.4612,1.4359,1.4245,1.3895,1.354,1.331,1.3522,1.3947,1.4488,1.5056,1.5609,1.6108,1.6532,1.6769,1.6975,1.7041,1.7041,1.6956,1.6921,2.4871,2.4926,2.5021,2.506,2.5162,2.5278,2.5371,2.5448,2.5637,2.5749,2.5749,2.586,2.5897,2.5934,2.5917,2.5954,2.6079,2.6222,2.6347,2.6435,2.6418,2.6435,2.6435,2.633,2.626,2.6189,2.6206,2.6312,2.6417,2.6469,2.6589,2.6759,2.6859,2.6956,2.7103,2.7261,2.7434,2.7557,2.7707,2.7824,2.7968,2.8053,2.8219,2.8345,2.8432,2.8536,2.8619,2.8785,2.8952,2.9156,2.9312,2.9195,2.8418,2.7843,2.6415,2.4897,2.3621,2.2651,2.1443,2.0983,2.0897,2.0525,2.0536,2.0527,2.0503,2.0501,2.0487,2.0439,2.0377,2.0294,2.0171,2.0069,1.9928,1.9816,1.9701,1.956,1.9353,1.9067,1.8807,1.8658,1.8485,1.8365,1.8201,1.8053,1.7856,1.7618,1.7384,1.7093,1.6712,1.6538,1.6176,1.5815,1.5697,1.5451,1.5091,1.5008,1.5154,1.4985,1.48,1.4319,1.3812,1.362,1.3454,1.3993,1.4566,1.507,1.561,1.6123,1.6532,1.6727,1.6882,1.6873,1.6873,1.6863,1.6853,2.5201,2.5294,2.5294,2.5333,2.5371,2.5524,2.56,2.5691,2.573,2.5786,2.5921,2.5872,2.5829,2.599,2.6063,2.6151,2.6329,2.6537,2.6708,2.6725,2.6741,2.6758,2.6758,2.6725,2.6657,2.6469,2.6503,2.6606,2.6674,2.6725,2.6792,2.6909,2.7038,2.7085,2.723,2.7417,2.7569,2.7689,2.7853,2.8014,2.8154,2.8237,2.838,2.8536,2.8605,2.8662,2.8785,2.8905,2.9021,2.9134,2.931,2.9493,2.9324,2.8663,2.7286,2.6422,2.5058,2.3657,2.2156,2.1667,2.1357,2.0705,2.0527,2.0505,2.0507,2.0515,2.0489,2.0472,2.042,2.0341,2.0235,2.0152,2.005,1.995,1.9866,1.9732,1.9555,1.9261,1.9016,1.8807,1.8697,1.8565,1.8388,1.8225,1.8035,1.7839,1.7595,1.7337,1.6968,1.6607,1.6316,1.597,1.5832,1.5487,1.5127,1.5576,1.5729,1.5606,1.5421,1.4746,1.4173,1.3868,1.3769,1.4105,1.4616,1.5117,1.558,1.6052,1.6409,1.6659,1.6805,1.6847,1.6837,1.6811,1.6759,2.5294,2.5294,2.5339,2.5432,2.5562,2.5642,2.5754,2.5746,2.5483,2.5587,2.6052,2.566,2.5846,2.623,2.6415,2.6503,2.6657,2.6825,2.6957,2.7021,2.7085,2.7085,2.7085,2.7085,2.7085,2.7038,2.6957,2.6909,2.6909,2.6942,2.7007,2.7007,2.7135,2.723,2.7307,2.7491,2.7672,2.776,2.7996,2.8154,2.8237,2.8424,2.8587,2.8737,2.8779,2.8834,2.8905,2.8994,2.9089,2.923,2.9353,2.9513,2.9568,2.9423,2.8302,2.6873,2.6175,2.4995,2.3033,2.2101,2.1793,2.1441,2.0996,2.0555,2.0527,2.0504,2.0504,2.0487,2.043,2.0372,2.0306,2.0323,2.0199,2.0089,2.012,2.0035,1.9882,1.9746,1.9543,1.9426,1.9146,1.8753,1.8604,1.8448,1.8249,1.8061,1.7866,1.7572,1.724,1.6901,1.6581,1.6231,1.5898,1.5507,1.5088,1.5919,1.6382,1.6229,1.5923,1.5168,1.4607,1.4152,1.4111,1.4397,1.4651,1.4966,1.5463,1.5981,1.634,1.6633,1.6769,1.6879,1.6785,1.6691,1.6612,2.5546,2.5621,2.5675,2.5696,2.5787,2.5917,2.6007,2.6046,2.5909,2.6012,2.6197,2.6082,2.61,2.6487,2.6589,2.6708,2.6973,2.7103,2.7247,2.7293,2.7355,2.7355,2.7355,2.7386,2.7417,2.7386,2.7324,2.7247,2.7233,2.7233,2.7233,2.7279,2.7341,2.7386,2.7444,2.7595,2.776,2.7922,2.8081,2.8237,2.8318,2.8562,2.8761,2.8858,2.8947,2.8998,2.9089,2.9138,2.9185,2.9293,2.9491,2.9589,2.9585,2.9252,2.8601,2.7279,2.7005,2.606,2.4002,2.3064,2.2682,2.1794,2.134,2.0948,2.0639,2.0508,2.0593,2.0536,2.0476,2.0413,2.0379,2.0699,2.0834,2.0862,2.0974,2.113,2.1105,2.095,2.0689,2.0307,1.9623,1.9164,1.8807,1.8624,1.8489,1.829,1.8138,1.7833,1.7562,1.7175,1.6876,1.6501,1.612,1.574,1.5462,1.6033,1.6513,1.6463,1.6312,1.5549,1.4927,1.4433,1.442,1.4624,1.4828,1.5013,1.5492,1.6052,1.6313,1.6554,1.6649,1.6691,1.6665,1.6596,1.6521,2.5828,2.5917,2.5954,2.599,2.5974,2.6021,2.6042,2.606,2.6033,2.6118,2.6353,2.6371,2.6438,2.6691,2.6859,2.6989,2.7244,2.7386,2.7478,2.7557,2.7617,2.7617,2.7617,2.7647,2.7677,2.7707,2.7719,2.7672,2.7478,2.7465,2.7478,2.7509,2.7539,2.76,2.7701,2.776,2.794,2.8053,2.8209,2.8318,2.8502,2.873,2.89,2.9017,2.9108,2.9156,2.9203,2.927,2.9165,2.9153,2.9232,2.9307,2.9151,2.8752,2.8118,2.7521,2.7491,2.6288,2.5014,2.4036,2.3422,2.2608,2.2163,2.1685,2.1388,2.1308,2.1166,2.1035,2.1103,2.1148,2.1272,2.1527,2.1752,2.1825,2.2153,2.2467,2.2249,2.206,2.1877,2.1243,2.0276,1.9896,1.983,1.9648,1.9672,1.9278,1.9108,1.8516,1.8148,1.7545,1.7126,1.6722,1.6367,1.6024,1.5905,1.6082,1.632,1.6203,1.6131,1.5726,1.5174,1.4655,1.4797,1.4951,1.5043,1.5255,1.5696,1.6024,1.6285,1.6474,1.6501,1.657,1.6596,1.6584,1.6526,2.599,2.601,2.6156,2.626,2.611,2.5698,2.5497,2.5463,2.5118,2.5198,2.5893,2.5973,2.6426,2.6967,2.723,2.7355,2.7478,2.763,2.7701,2.7777,2.7853,2.7911,2.794,2.794,2.794,2.7957,2.7996,2.7911,2.7777,2.7701,2.7672,2.7701,2.776,2.7789,2.7818,2.7968,2.8081,2.8182,2.83,2.8466,2.8639,2.8808,2.8925,2.896,2.903,2.9061,2.8994,2.9,2.8968,2.8521,2.8502,2.8234,2.7733,2.7653,2.7196,2.6765,2.6472,2.6211,2.5178,2.4578,2.415,2.3579,2.3242,2.2917,2.255,2.2497,2.2499,2.2802,2.2686,2.252,2.2396,2.2699,2.2798,2.2802,2.2929,2.2939,2.2806,2.3183,2.2986,2.2642,2.1801,2.1521,2.1386,2.1151,2.0918,2.0469,1.9973,1.9381,1.887,1.8326,1.7831,1.7543,1.6971,1.66,1.6126,1.6337,1.6263,1.6037,1.5958,1.5862,1.5466,1.5074,1.512,1.5255,1.5344,1.5492,1.5883,1.6163,1.6313,1.6421,1.6501,1.657,1.6596,1.6577,1.662,2.5196,2.503,2.5162,2.5228,2.5178,2.5053,2.4997,2.4961,2.4859,2.5206,2.5822,2.6004,2.6509,2.7251,2.7509,2.76,2.7689,2.7836,2.794,2.7979,2.8081,2.8109,2.8091,2.8119,2.8164,2.8191,2.8219,2.8237,2.8091,2.8007,2.7979,2.7922,2.7979,2.8053,2.8007,2.8136,2.8219,2.8327,2.844,2.8402,2.8328,2.8319,2.8206,2.7908,2.799,2.8068,2.809,2.8091,2.8053,2.7731,2.7782,2.7714,2.7324,2.7053,2.6629,2.6467,2.5941,2.5617,2.5284,2.4983,2.4683,2.4303,2.3906,2.3558,2.3263,2.3176,2.3164,2.3081,2.3093,2.3132,2.3272,2.35,2.3631,2.3705,2.3835,2.3967,2.3934,2.4007,2.405,2.3704,2.3374,2.3061,2.2679,2.2227,2.1837,2.1258,2.082,2.032,1.9907,1.9508,1.9035,1.8598,1.791,1.7252,1.6682,1.6435,1.6355,1.6184,1.5994,1.5891,1.5713,1.5522,1.558,1.5609,1.5682,1.5898,1.6123,1.6234,1.634,1.6421,1.6501,1.6548,1.6615,1.6939,1.7164,2.4125,2.3994,2.4367,2.455,2.4547,2.4513,2.4533,2.4562,2.466,2.5178,2.59,2.6346,2.6991,2.7495,2.7748,2.7864,2.7933,2.8081,2.8154,2.8209,2.8246,2.8255,2.8282,2.8353,2.838,2.838,2.844,2.8458,2.8458,2.8406,2.8282,2.8164,2.8219,2.8246,2.8273,2.8309,2.8308,2.807,2.796,2.7783,2.7578,2.7558,2.735,2.7118,2.6972,2.7046,2.7063,2.7226,2.7296,2.6951,2.7016,2.6942,2.6588,2.6236,2.6035,2.5893,2.5543,2.5388,2.5341,2.5234,2.5043,2.4774,2.4566,2.4442,2.404,2.3735,2.3767,2.3965,2.394,2.3888,2.3865,2.4384,2.4482,2.4696,2.488,2.5129,2.5214,2.4908,2.4712,2.4467,2.4238,2.4313,2.3882,2.3308,2.2738,2.2106,2.1634,2.1206,2.079,2.0418,1.9942,1.9422,1.893,1.807,1.7125,1.6674,1.6534,1.6483,1.6302,1.6085,1.6015,1.597,1.5981,1.6024,1.6116,1.6191,1.6367,1.6382,1.6382,1.6526,1.66,1.655,1.6685,1.7133,1.7653,2.3007,2.3102,2.4322,2.4827,2.4816,2.4306,2.4093,2.4147,2.4209,2.4752,2.5707,2.6869,2.7578,2.7922,2.8025,2.8136,2.8273,2.83,2.8327,2.838,2.8458,2.8484,2.851,2.8536,2.8562,2.8587,2.8637,2.8669,2.8669,2.8712,2.8562,2.8424,2.8432,2.844,2.8412,2.8366,2.8117,2.7683,2.7296,2.6874,2.6762,2.6753,2.6745,2.6804,2.6935,2.7119,2.715,2.7031,2.6779,2.6201,2.6242,2.6072,2.569,2.552,2.5473,2.5436,2.5423,2.5312,2.5351,2.5387,2.5418,2.5415,2.5385,2.5293,2.507,2.5351,2.5463,2.5234,2.4998,2.5162,2.5278,2.5481,2.5274,2.5266,2.5282,2.5297,2.5332,2.5224,2.5061,2.5043,2.4966,2.4808,2.4673,2.4016,2.3639,2.3027,2.2506,2.2056,2.1411,2.0977,2.0576,2.0144,1.9801,1.8923,1.7603,1.7343,1.7631,1.7486,1.7239,1.6866,1.6511,1.6507,1.6834,1.6647,1.6784,1.6716,1.6733,1.7011,1.7125,1.6831,1.6741,1.6768,1.7329,1.8034,1.8374,2.3168,2.3287,2.3876,2.4005,2.3877,2.3656,2.359,2.3682,2.3773,2.4506,2.5701,2.6783,2.7646,2.8094,2.8291,2.8371,2.8484,2.8536,2.8562,2.8612,2.8662,2.8687,2.8705,2.8712,2.8737,2.8785,2.8834,2.8858,2.8881,2.8905,2.89,2.8761,2.8687,2.8637,2.8572,2.824,2.7856,2.7543,2.69,2.6415,2.6019,2.6022,2.5894,2.5518,2.5551,2.5654,2.5678,2.5709,2.5597,2.5537,2.5503,2.5342,2.5184,2.5187,2.5225,2.525,2.5292,2.5351,2.5387,2.5412,2.5453,2.5538,2.5571,2.5628,2.5691,2.5696,2.5693,2.5662,2.5703,2.5694,2.5679,2.5613,2.5537,2.5554,2.5525,2.5468,2.5395,2.5303,2.5222,2.5122,2.5032,2.4912,2.4779,2.462,2.4317,2.3969,2.3449,2.2896,2.2235,2.1784,2.1478,2.1174,2.0874,2.0715,1.9536,1.9159,1.8903,1.86,1.827,1.7813,1.7502,1.788,1.807,1.7781,1.759,1.7745,1.7884,1.7984,1.7841,1.74,1.7168,1.7108,1.7854,1.8861,1.9026,2.3458,2.3504,2.3598,2.3549,2.3365,2.3412,2.3458,2.3544,2.3607,2.4288,2.5649,2.6616,2.7456,2.8044,2.843,2.8536,2.8644,2.8712,2.8761,2.8785,2.8834,2.8881,2.8905,2.8929,2.8952,2.8998,2.8998,2.9021,2.9062,2.9085,2.9085,2.9062,2.8998,2.8934,2.8602,2.7903,2.7457,2.7261,2.6438,2.5817,2.5301,2.53,2.526,2.4783,2.4832,2.4895,2.4994,2.5073,2.5106,2.5099,2.5127,2.5139,2.516,2.5225,2.525,2.5283,2.5322,2.536,2.5412,2.5441,2.5471,2.5576,2.562,2.5652,2.5671,2.5693,2.5694,2.5701,2.5703,2.5698,2.5703,2.5662,2.5632,2.559,2.5525,2.549,2.5448,2.536,2.5264,2.5179,2.5075,2.498,2.487,2.4738,2.4478,2.421,2.3868,2.3455,2.3146,2.2788,2.2678,2.2364,2.2048,2.1963,2.1821,2.0849,1.999,2.0152,1.9745,1.8974,1.8773,1.9111,1.9086,1.869,1.8631,1.8885,1.8904,1.882,1.8375,1.7834,1.7749,1.7757,1.8623,1.952,1.9497,2.3692,2.3714,2.3756,2.375,2.3682,2.3689,2.3732,2.3753,2.3792,2.4281,2.5253,2.6555,2.7345,2.7725,2.8294,2.8615,2.8834,2.8881,2.891,2.8934,2.898,2.9067,2.9089,2.9112,2.9134,2.9178,2.92,2.92,2.92,2.9262,2.9283,2.9079,2.8913,2.8981,2.8887,2.7511,2.6796,2.6537,2.5356,2.4818,2.4704,2.4737,2.4711,2.4703,2.4711,2.4753,2.4846,2.4903,2.4991,2.5057,2.5132,2.516,2.5206,2.525,2.5292,2.5293,2.5351,2.5415,2.5484,2.5485,2.5525,2.5587,2.5634,2.5679,2.5697,2.5698,2.5694,2.5701,2.5703,2.5698,2.5707,2.5687,2.566,2.561,2.5549,2.5518,2.548,2.5415,2.5322,2.5233,2.5153,2.5044,2.4926,2.4783,2.4564,2.4321,2.4134,2.3896,2.3689,2.3486,2.3295,2.3098,2.275,2.2591,2.231,2.1654,2.1174,2.1406,2.1145,2.0295,1.9838,1.9892,1.9794,1.9526,1.96,1.9741,1.9686,1.9581,1.926,1.9004,1.8585,1.8666,1.9536,1.9949,1.9818,2.3937,2.4054,2.4057,2.4057,2.4018,2.3896,2.3876,2.3917,2.3992,2.4372,2.5099,2.5849,2.6753,2.7474,2.8013,2.848,2.8971,2.9067,2.9112,2.9112,2.9138,2.9156,2.9178,2.9222,2.9283,2.9289,2.931,2.9351,2.9392,2.9357,2.9003,2.8723,2.8352,2.8443,2.8565,2.7786,2.6916,2.6637,2.5484,2.4549,2.4566,2.4613,2.4679,2.4729,2.481,2.4926,2.5106,2.5224,2.5234,2.5222,2.5263,2.5271,2.5239,2.5262,2.5313,2.536,2.5415,2.5492,2.5543,2.557,2.5574,2.5678,2.5682,2.5707,2.5704,2.5701,2.5694,2.5701,2.5703,2.5699,2.5689,2.5687,2.5664,2.5619,2.5579,2.5551,2.5495,2.544,2.5351,2.5283,2.5217,2.512,2.4991,2.4827,2.4629,2.4462,2.4266,2.4095,2.3876,2.3707,2.3526,2.343,2.3194,2.3042,2.272,2.216,2.1863,2.1936,2.1843,2.1418,2.11,2.08,2.0616,2.0411,2.0504,2.0603,2.0475,2.0429,2.049,2.0272,1.9621,1.928,1.9793,1.9995,1.9797,2.4171,2.4228,2.4247,2.4229,2.421,2.4096,2.4075,2.4095,2.4133,2.4406,2.4884,2.5216,2.5899,2.6933,2.769,2.812,2.879,2.9132,2.9243,2.9246,2.9289,2.931,2.9328,2.9328,2.9372,2.9373,2.9433,2.9511,2.9474,2.9251,2.869,2.7977,2.7469,2.7826,2.796,2.7306,2.656,2.6168,2.5286,2.4663,2.4695,2.4764,2.4922,2.516,2.537,2.5504,2.5782,2.5861,2.5767,2.5659,2.5585,2.5497,2.5386,2.5293,2.5341,2.5387,2.5464,2.5665,2.5939,2.6118,2.6295,2.6656,2.61,2.573,2.5687,2.5701,2.5693,2.57,2.5703,2.5701,2.5691,2.5693,2.5675,2.5632,2.5595,2.557,2.5524,2.5445,2.5387,2.5313,2.5231,2.5137,2.5037,2.4875,2.4707,2.4564,2.441,2.4247,2.4075,2.3894,2.3747,2.3616,2.3458,2.3271,2.3077,2.2832,2.26,2.25,2.2279,2.205,2.1933,2.158,2.1434,2.1287,2.1242,2.121,2.1224,2.1213,2.099,2.0703,2.0257,2.0111,2.0204,2.0041,1.9848,2.4284,2.4303,2.4303,2.4303,2.4321,2.4303,2.4303,2.4284,2.4303,2.4321,2.4358,2.5134,2.5577,2.5891,2.7165,2.7925,2.8223,2.8901,2.9182,2.9334,2.9412,2.9471,2.9491,2.9511,2.9492,2.9512,2.9532,2.9514,2.9476,2.8536,2.7798,2.7361,2.6994,2.7069,2.6849,2.6497,2.6035,2.5847,2.534,2.4844,2.4783,2.4832,2.5272,2.5641,2.6001,2.6422,2.6833,2.7191,2.6944,2.6706,2.6477,2.603,2.5677,2.5409,2.5379,2.5432,2.5503,2.6074,2.654,2.6712,2.7215,2.7459,2.6704,2.6104,2.5788,2.5837,2.5691,2.5699,2.5703,2.5702,2.5694,2.5703,2.5687,2.5664,2.563,2.5587,2.5525,2.5476,2.5412,2.5341,2.5243,2.5153,2.5038,2.4903,2.4802,2.4676,2.453,2.4411,2.4229,2.4056,2.3894,2.3771,2.3598,2.3435,2.3271,2.3095,2.2944,2.2721,2.2605,2.2412,2.2364,2.2209,2.1961,2.1781,2.177,2.1691,2.1464,2.1294,2.1135,2.0847,2.056,2.0412,2.0339,2.0166,2.0025,2.4393,2.4444,2.4426,2.4479,2.4497,2.4515,2.4464,2.4375,2.4376,2.4357,2.4392,2.4649,2.5114,2.5708,2.6209,2.7158,2.7922,2.8518,2.8967,2.923,2.9512,2.9531,2.9569,2.9626,2.9645,2.9664,2.9644,2.9436,2.8663,2.7676,2.6896,2.6507,2.6133,2.5953,2.5796,2.5511,2.5721,2.5716,2.522,2.4993,2.4879,2.4926,2.5541,2.61,2.642,2.6968,2.765,2.7861,2.7649,2.7501,2.6886,2.6399,2.6303,2.5745,2.5401,2.5553,2.5989,2.6611,2.6935,2.7476,2.8018,2.8276,2.7712,2.725,2.6721,2.6186,2.5826,2.5737,2.5702,2.5703,2.5698,2.5689,2.5693,2.5671,2.5682,2.5687,2.5628,2.5563,2.5503,2.5369,2.5274,2.5187,2.5063,2.4972,2.4875,2.4787,2.4663,2.4532,2.4393,2.4191,2.4036,2.3896,2.3728,2.3553,2.3407,2.3241,2.3095,2.2919,2.2816,2.2676,2.2508,2.2398,2.2304,2.2135,2.1945,2.1691,2.1464,2.1325,2.1183,2.099,2.075,2.0632,2.0494,2.0357,2.0235,2.4981,2.5032,2.5013,2.4862,2.4617,2.4599,2.4715,2.4923,2.4666,2.4479,2.453,2.4601,2.486,2.5288,2.5753,2.6595,2.7792,2.8315,2.8839,2.9439,2.957,2.9664,2.9701,2.9738,2.9773,2.9789,2.9708,2.9477,2.8342,2.7066,2.6162,2.5734,2.5197,2.5158,2.5163,2.5251,2.5411,2.545,2.5292,2.5051,2.4994,2.5082,2.5742,2.6549,2.681,2.7529,2.8485,2.8605,2.8622,2.8434,2.7747,2.7209,2.6815,2.5906,2.5453,2.564,2.6262,2.6916,2.7466,2.8293,2.8752,2.8996,2.8837,2.824,2.7514,2.6844,2.6236,2.5815,2.574,2.5703,2.5701,2.5693,2.5701,2.5701,2.5757,2.5805,2.5749,2.5667,2.5546,2.5395,2.5303,2.5209,2.5125,2.5038,2.4977,2.4875,2.4772,2.4631,2.4481,2.4284,2.4134,2.4016,2.3834,2.3664,2.3526,2.3383,2.3217,2.3095,2.2995,2.2842,2.2685,2.2552,2.2443,2.222,2.1974,2.1768,2.1556,2.1371,2.1262,2.1071,2.0942,2.0827,2.0728,2.0628,2.0494,2.5962,2.5906,2.5923,2.5566,2.4874,2.493,2.5373,2.5981,2.5316,2.4891,2.4998,2.4867,2.4936,2.5252,2.5533,2.6153,2.7052,2.7671,2.8307,2.9491,2.9471,2.9506,2.9561,2.9803,2.9742,2.9813,2.9618,2.9095,2.8175,2.6871,2.5672,2.5132,2.5191,2.5176,2.5176,2.519,2.5305,2.5294,2.5283,2.5138,2.5126,2.5337,2.5884,2.719,2.7781,2.8372,2.9625,3.0094,3.01,2.9561,2.8965,2.8251,2.7198,2.6404,2.6006,2.619,2.6954,2.755,2.8294,2.9077,2.9808,3.0053,3.001,2.9078,2.8181,2.7231,2.6522,2.5873,2.572,2.5703,2.5701,2.5694,2.5703,2.584,2.5956,2.6164,2.6348,2.6178,2.5952,2.5734,2.538,2.5286,2.5172,2.5088,2.5018,2.4931,2.4832,2.4711,2.4582,2.4411,2.4266,2.4113,2.3935,2.3771,2.366,2.3499,2.336,2.3223,2.3102,2.2995,2.2816,2.2685,2.2579,2.2332,2.2077,2.1886,2.1708,2.1542,2.1388,2.1277,2.1151,2.1038,2.0957,2.0972,2.0761,2.738,2.687,2.6935,2.6836,2.6648,2.6666,2.6723,2.7,2.6846,2.6679,2.6569,2.6079,2.5721,2.5699,2.5344,2.5759,2.6415,2.688,2.7255,2.8102,2.8663,2.896,2.909,2.9425,2.9497,2.9243,2.8912,2.8384,2.7229,2.6123,2.5451,2.5214,2.522,2.5212,2.5241,2.5253,2.5274,2.5274,2.5293,2.5274,2.5262,2.5367,2.5828,2.6801,2.7467,2.8315,2.9396,3.0102,3.0239,3.0153,2.9544,2.8767,2.7815,2.7551,2.745,2.7607,2.8081,2.8599,2.9065,2.975,3.0408,3.0619,3.036,2.9519,2.8594,2.7579,2.6732,2.6086,2.5702,2.5703,2.5701,2.5696,2.5783,2.5999,2.6213,2.6558,2.6918,2.6702,2.6428,2.6004,2.56,2.5346,2.5214,2.5125,2.5057,2.4964,2.4865,2.476,2.4666,2.4515,2.4339,2.419,2.3996,2.3834,2.3747,2.3616,2.3458,2.3319,2.3199,2.3052,2.2944,2.279,2.2605,2.2388,2.2163,2.1991,2.1844,2.1711,2.1589,2.145,2.2004,2.2167,2.1633,2.1488,2.1134,2.8723,2.8286,2.7584,2.7315,2.733,2.7365,2.7551,2.7938,2.801,2.8214,2.8309,2.7331,2.654,2.6271,2.5665,2.5575,2.6157,2.6209,2.6906,2.7547,2.7827,2.8103,2.8493,2.8808,2.8608,2.8349,2.7899,2.7217,2.6355,2.5718,2.529,2.5262,2.5274,2.5284,2.5303,2.5332,2.5351,2.536,2.5395,2.5387,2.5351,2.5447,2.5803,2.6612,2.72,2.8058,2.9014,2.9815,3.0133,3.0201,2.9763,2.9314,2.8613,2.8194,2.8054,2.8249,2.8716,2.9415,2.9711,3.02,3.076,3.0793,3.079,2.9965,2.9194,2.8181,2.6976,2.6305,2.578,2.5703,2.5701,2.5694,2.6093,2.6409,2.6623,2.6909,2.7284,2.7423,2.6973,2.6437,2.5909,2.5299,2.5176,2.5144,2.507,2.5031,2.4922,2.4806,2.4714,2.4617,2.4429,2.4284,2.4095,2.3917,2.3792,2.3682,2.3567,2.3412,2.3271,2.3126,2.2952,2.2799,2.2615,2.2443,2.2265,2.2106,2.1978,2.1831,2.1694,2.1587,2.2522,2.3539,2.2834,2.2151,2.215,3.0258,2.9935,2.8631,2.7982,2.7919,2.7953,2.8358,2.8912,2.8984,2.936,2.9746,2.8484,2.7437,2.6866,2.6333,2.6314,2.6218,2.6009,2.6599,2.6955,2.7312,2.742,2.7542,2.7733,2.7739,2.74,2.686,2.6614,2.6194,2.563,2.5332,2.5379,2.5397,2.5395,2.5395,2.5404,2.5412,2.5421,2.5445,2.5441,2.5445,2.5456,2.5865,2.6279,2.6779,2.7597,2.864,2.9431,2.9815,3.0094,3.0075,2.98,2.9497,2.9103,2.8884,2.9,2.9401,2.9755,2.9927,3.0394,3.0681,3.079,3.0788,3.0409,2.9613,2.8584,2.7377,2.66,2.6074,2.5703,2.5699,2.5986,2.6423,2.691,2.7141,2.7576,2.7997,2.8205,2.7602,2.6988,2.6265,2.5578,2.5244,2.5194,2.5152,2.5095,2.4996,2.4846,2.4707,2.4631,2.4498,2.4358,2.4191,2.4037,2.3876,2.375,2.3638,2.3522,2.3383,2.3193,2.3003,2.285,2.2712,2.2542,2.2377,2.2304,2.2065,2.1886,2.1797,2.1903,2.2862,2.3836,2.3556,2.3096,2.3454,3.2577,3.1946,3.1656,3.1194,3.0651,3.0613,3.0376,2.9966,2.9937,3.0046,3.0041,2.9972,2.927,2.8319,2.6886,2.6466,2.6517,2.6109,2.5585,2.5643,2.6776,2.6845,2.7029,2.7612,2.7328,2.6841,2.6246,2.5765,2.5842,2.5562,2.5378,2.5415,2.5393,2.5401,2.541,2.5437,2.5488,2.5476,2.549,2.5492,2.5492,2.5498,2.5522,2.5936,2.6447,2.7307,2.8225,2.9036,2.9819,3.0331,3.0528,3.0379,3.0238,3.005,2.9932,2.9808,3.0214,3.0268,3.0501,3.0638,3.0804,3.0813,3.0745,3.0518,2.9683,2.8807,2.7773,2.6972,2.6403,2.5797,2.581,2.6408,2.69,2.753,2.7906,2.8877,2.959,2.9107,2.8453,2.7711,2.6928,2.6203,2.5546,2.5485,2.5438,2.5386,2.531,2.519,2.5223,2.4926,2.4679,2.454,2.445,2.4153,2.3996,2.3855,2.3728,2.3611,2.3601,2.3601,2.3435,2.2987,2.2834,2.3079,2.2822,2.2598,2.2343,2.2316,2.2441,2.2698,2.3353,2.3918,2.3836,2.3984,2.431]}]]